GFSGL_prec_cloud_003.txt.gz
Cloud_Cover
38 93 54 44 19 6 5 5 5 2 1 0 0 0 0 3 0 0 0 0 0 1 5 5 36 84 57 59 100 100 100 100 96 22 100 100 100 100 100 100 100 100 94
10 48 95 93 36 50 29 5 5 1 0 0 0 0 0 0 0 0 3 5 3 5 5 5 5 1 3 19 66 100 100 100 100 41 99 100 100 100 100 100 100 100 100
100 86 13 5 41 100 100 99 100 100 100 83 0 0 0 0 4 3 5 2 5 5 9 5 5 0 0 1 76 54 99 56 100 85 54 100 100 100 100 100 100 100 100
5 5 5 4 6 99 73 27 90 100 92 1 1 0 0 2 5 5 0 0 4 5 4 0 0 0 0 0 0 48 86 91 66 5 5 92 100 100 100 98 9 100 100
0 0 0 5 47 40 87 49 100 100 100 100 86 0 5 5 4 5 31 8 5 5 5 4 0 1 5 3 12 34 54 84 6 4 85 12 100 100 100 100 86 53 100
4 0 0 0 5 5 79 100 100 94 33 100 35 5 0 5 5 84 36 74 88 78 4 5 5 5 69 100 92 100 100 78 12 5 5 5 89 82 86 96 64 98 99
5 1 0 2 6 54 46 100 100 100 91 100 7 16 5 5 52 75 76 30 5 5 13 5 5 92 76 85 100 100 100 100 99 89 53 7 63 72 8 36 65 54 6
5 0 2 0 0 5 40 100 100 100 100 1 100 6 5 17 24 4 5 7 77 96 94 55 22 80 100 100 82 26 19 14 53 26 5 6 26 99 5 68 81 94 82
0 4 1 3 5 9 85 100 100 78 6 100 64 5 0 0 2 5 34 53 58 71 72 89 91 30 100 100 100 83 84 7 25 6 30 81 97 92 99 100 97 75 73
2 0 0 0 36 99 70 84 100 95 100 50 5 0 4 5 5 10 71 100 82 100 100 100 100 100 100 100 100 98 80 26 5 5 11 73 74 65 96 95 76 98 100
3 0 0 3 5 9 50 100 100 94 52 5 5 13 79 4 5 64 94 100 100 100 100 100 100 100 100 100 100 95 89 92 95 74 5 5 21 15 51 97 63 18 51
0 2 5 5 86 77 100 100 99 42 5 21 5 28 5 5 2 14 47 37 90 99 100 100 100 100 100 100 100 100 100 100 96 98 96 97 98 98 100 100 98 75 81
0 0 5 35 88 100 99 94 12 10 91 5 5 5 5 5 5 3 5 10 76 100 100 100 100 100 100 100 100 100 100 100 100 100 100 100 100 100 100 100 100 100 99
0 0 0 4 3 14 66 5 5 6 5 5 5 5 9 5 5 7 54 75 99 100 100 100 100 100 100 100 100 100 100 100 100 100 100 100 100 100 100 100 95 96 98
5 4 0 3 3 2 5 14 48 44 22 10 5 6 36 43 18 100 100 100 100 100 100 100 100 100 100 100 100 100 100 100 100 100 100 100 100 100 100 100 100 98 100
5 5 5 5 5 38 98 100 59 5 12 5 5 42 23 15 12 100 98 100 100 96 100 100 100 100 100 100 95 100 100 100 100 100 85 91 96 98 97 96 91 94 84
94 64 5 5 5 9 82 57 64 64 65 36 8 91 29 5 38 61 15 31 18 91 100 100 100 100 100 100 100 100 100 100 100 100 100 92 100 100 92 95 85 100 100
99 21 5 8 5 5 86 100 100 100 93 94 17 64 11 61 96 5 42 5 5 90 95 100 100 100 100 100 100 100 100 100 100 100 100 99 98 94 83 100 95 95 100
97 15 67 88 53 25 100 100 100 100 100 100 100 61 82 100 49 5 5 5 5 8 96 100 100 100 100 100 100 100 100 100 100 100 100 100 100 100 97 77 82 69 75
78 5 78 98 96 21 100 100 100 100 100 100 100 100 100 100 58 46 17 9 7 9 49 94 100 100 100 100 100 100 100 100 100 100 100 100 100 100 100 100 99 74 80
98 87 96 100 86 94 100 100 100 100 100 100 100 100 100 79 64 77 100 53 22 28 48 24 88 100 100 100 100 100 100 100 100 100 100 100 100 100 100 100 100 100 88
100 98 97 72 82 99 100 100 99 100 100 100 100 100 100 87 78 99 100 86 43 15 26 5 8 66 100 100 100 100 100 100 100 100 100 100 100 100 100 91 100 81 100
5 5 5 100 100 80 88 100 100 100 100 100 100 100 100 74 90 100 100 100 65 61 57 15 5 5 55 100 100 100 100 100 100 100 100 100 100 100 100 97 85 77 88
5 28 20 94 95 64 65 100 100 100 100 100 100 100 100 100 100 100 100 100 100 75 66 33 5 5 5 44 100 100 100 100 100 100 100 100 100 100 100 100 100 100 98
83 39 25 99 94 46 84 96 100 100 100 100 100 100 100 100 100 100 100 93 100 100 25 27 5 5 5 5 66 100 100 100 100 100 100 100 100 100 100 100 100 100 100
82 81 27 55 93 56 93 99 99 100 100 100 100 100 100 100 100 100 100 84 81 93 76 87 15 50 23 58 20 73 100 100 100 100 100 100 100 100 100 100 100 100 100

GFSGL_prec_cloud_006.txt.gz
Cloud_Cover
5 2 1 9 22 28 6 5 6 31 100 100 100 100 100 100 60 83 9 0 0 0 4 4 5 5 4 0 7 31 50 94 100 95 99 90 100 100 100 48 80 100 92
5 5 19 6 5 5 5 10 10 17 79 100 100 100 100 100 12 0 0 5 47 65 16 7 5 5 0 0 0 0 0 6 48 43 82 100 100 100 100 100 23 28 100
5 5 5 5 0 0 0 4 8 69 99 100 95 100 100 100 100 62 1 5 5 5 5 5 5 4 0 0 0 0 0 0 92 90 13 98 100 100 100 100 40 39 100
5 5 5 0 0 0 28 88 100 100 93 100 100 100 100 100 28 2 5 5 5 14 80 87 31 3 0 2 38 17 41 4 4 99 78 100 88 77 100 100 92 94 100
5 5 5 0 0 0 7 5 84 100 60 98 100 100 100 6 5 5 5 6 94 38 2 0 4 4 5 48 100 100 100 99 78 22 10 68 5 3 80 100 100 87 99
5 0 0 0 0 0 0 5 40 85 97 100 100 98 2 3 5 5 5 5 0 5 5 5 5 5 5 5 14 89 100 100 100 100 100 100 45 5 5 79 97 100 78
1 2 5 5 0 0 2 11 24 55 92 100 99 26 5 5 3 5 5 5 17 5 5 5 5 35 100 22 5 43 100 90 100 100 23 5 5 5 2 8 5 5 50
5 3 5 0 1 0 38 86 100 99 90 95 10 5 5 3 4 5 28 85 90 68 5 5 6 99 100 91 43 86 93 100 78 5 5 5 5 5 5 5 5 13 88
5 5 0 0 4 0 11 20 81 17 71 89 100 54 5 5 5 18 97 95 43 5 48 53 94 100 100 100 100 85 82 99 92 34 61 98 57 89 74 81 99 100 100
5 5 3 1 1 5 5 45 44 64 81 100 100 5 15 6 5 9 92 27 10 31 38 99 100 100 100 100 100 100 95 97 94 23 5 5 10 58 5 22 82 100 100
5 5 5 0 5 54 94 46 6 96 100 100 27 77 29 4 5 5 60 100 99 84 54 94 100 100 100 100 100 100 100 100 90 87 60 9 5 5 5 5 5 87 94
5 5 0 3 6 100 97 85 76 74 72 47 26 22 5 5 1 4 6 100 100 80 100 94 100 100 100 100 100 100 100 100 100 100 97 82 68 70 67 64 63 78 66
5 5 4 0 3 9 13 6 5 5 5 11 5 19 5 12 5 1 5 12 7 80 94 100 100 100 100 100 100 100 100 100 100 100 100 100 100 99 97 98 97 91 98
5 5 5 2 2 5 4 5 5 31 78 8 5 5 60 5 5 5 13 26 77 48 82 90 100 100 100 100 100 100 100 100 100 100 100 100 100 100 100 100 100 100 100
92 78 82 26 5 5 5 24 97 99 81 5 5 5 31 20 18 58 100 22 85 31 75 71 97 100 100 100 100 100 100 100 100 100 100 100 100 100 100 100 100 100 97
100 100 99 100 12 5 18 63 98 99 33 5 5 5 56 5 5 95 70 35 5 14 31 72 89 100 100 100 100 94 100 100 100 100 100 100 100 100 100 100 100 99 99
100 100 100 100 54 40 68 97 10 12 5 63 10 5 5 13 5 68 17 5 4 2 39 62 72 94 100 100 100 98 100 100 100 100 100 100 100 100 99 89 94 91 99
90 100 99 100 100 99 86 5 97 95 40 5 8 5 5 31 7 7 5 5 5 15 60 68 82 77 100 100 100 100 100 78 78 99 97 97 100 100 100 84 84 88 80
100 98 99 96 100 97 99 6 62 100 100 88 65 53 82 44 73 73 5 6 5 12 60 62 72 84 82 100 100 100 100 100 100 100 100 100 100 100 100 100 93 97 87
100 100 96 97 99 100 100 29 100 100 100 100 96 66 69 6 89 97 76 75 82 55 69 57 61 72 78 94 100 100 100 100 100 100 100 100 100 100 100 100 100 98 98
93 100 100 100 100 100 100 44 100 100 100 100 98 86 56 16 81 71 79 89 100 59 57 54 57 70 65 68 95 100 100 100 100 100 100 100 100 100 100 100 100 100 100
91 100 100 88 98 93 38 95 100 100 99 98 88 94 69 11 38 71 87 89 84 85 34 18 35 57 60 13 64 98 100 100 100 100 100 100 100 100 100 100 100 100 100
82 12 31 24 7 94 89 77 100 100 100 100 100 78 97 86 84 70 63 14 67 75 100 78 58 52 58 24 33 38 99 100 100 100 100 100 100 100 100 100 100 100 100
93 39 50 51 46 24 90 61 100 100 93 100 91 79 65 74 68 62 40 65 79 73 79 97 52 5 14 24 39 43 46 94 100 100 100 100 100 100 100 100 100 100 100
92 98 91 86 86 94 80 90 95 100 100 94 100 97 72 78 84 74 68 63 25 78 76 88 78 63 5 5 14 5 5 5 78 100 100 100 100 100 100 100 100 100 100
100 100 100 99 100 99 100 100 100 100 95 100 100 97 97 100 97 82 94 83 66 62 61 66 72 71 6 15 55 16 5 5 5 77 100 100 100 100 100 100 100 100 100

GFSGL_prec_cloud_009.txt.gz
Cloud_Cover
5 10 6 5 2 3 3 0 0 33 100 100 62 81 96 100 100 100 99 100 100 78 76 5 5 5 5 5 5 5 3 5 5 5 0 32 91 100 100 100 35 5 5
5 5 0 5 4 0 0 0 18 100 99 98 85 76 92 100 72 17 46 100 100 86 5 55 70 5 5 5 5 0 0 0 5 5 1 9 20 100 100 100 100 16 5
5 5 5 0 0 0 0 0 0 0 1 43 12 5 5 89 74 97 99 94 6 5 98 91 57 3 0 0 0 5 17 19 48 16 1 80 14 90 100 100 100 100 16
3 1 0 0 0 0 0 0 0 3 22 10 13 5 29 100 100 5 4 5 5 53 76 5 2 3 5 1 5 11 74 100 100 84 5 24 93 74 3 61 100 98 90
5 0 5 5 5 3 0 0 5 77 92 5 5 68 98 58 8 4 5 5 5 5 4 5 5 5 5 5 26 41 30 95 100 100 100 98 87 49 5 3 21 100 38
5 5 5 5 5 0 0 5 5 82 79 92 95 100 98 5 5 5 5 5 5 40 88 35 19 5 5 39 89 100 100 100 100 100 99 100 100 95 70 5 5 5 31
12 27 6 5 5 0 0 5 5 28 97 93 56 5 62 8 40 5 6 72 98 86 98 100 36 7 19 51 88 100 100 100 100 100 100 100 100 100 49 5 5 5 5
56 75 59 5 5 0 0 5 5 41 5 5 5 24 45 98 5 5 26 68 28 15 5 5 60 79 96 99 100 100 100 100 99 100 100 100 72 5 10 5 5 5 31
97 34 2 0 0 2 5 5 31 16 5 5 93 100 100 7 5 8 5 50 16 5 5 5 95 100 99 100 100 100 100 100 99 57 85 95 99 100 98 92 95 100 100
15 0 4 2 5 2 5 5 61 86 72 81 100 99 96 64 5 5 13 59 32 18 5 6 59 100 100 100 100 100 100 100 98 100 78 6 5 5 23 99 68 98 100
3 4 5 5 5 2 5 7 75 75 64 30 65 84 33 4 5 5 5 5 44 91 81 60 82 100 100 100 100 100 100 100 100 96 100 95 80 51 5 5 5 5 50
5 5 13 9 5 1 5 5 5 5 85 70 80 78 38 5 2 4 5 73 99 88 100 76 100 100 100 100 100 100 100 100 100 99 99 100 100 96 74 53 55 82 54
5 5 92 100 49 5 0 2 5 5 33 100 100 49 5 5 5 5 5 7 5 61 16 99 87 100 100 100 100 100 100 100 100 100 100 100 100 100 100 100 97 97 98
86 100 100 100 80 47 5 5 5 84 100 100 94 5 53 7 9 5 71 33 8 8 7 50 31 100 100 100 100 100 100 100 100 100 100 100 100 100 100 100 100 100 100
100 100 90 87 99 60 9 30 65 74 82 94 5 5 65 43 5 33 95 21 5 16 22 59 74 96 100 100 100 100 100 100 100 100 100 100 100 100 100 100 100 100 100
100 94 82 100 100 92 62 38 52 74 96 68 61 57 50 8 5 33 68 20 5 4 20 76 91 74 100 100 100 100 100 97 100 100 100 100 100 100 100 100 100 100 100
100 100 100 100 99 99 100 100 81 5 10 57 18 6 5 12 29 29 5 5 5 5 41 71 100 100 71 100 100 100 100 91 83 100 100 100 100 100 100 100 100 88 98
99 67 96 99 90 99 100 100 95 20 92 42 7 5 5 10 5 5 8 15 35 5 70 79 100 100 80 76 100 100 100 100 67 68 100 96 85 98 99 100 100 98 100
100 100 99 100 100 100 100 100 100 99 97 66 68 38 79 23 16 6 68 94 82 32 55 65 77 95 75 71 92 100 100 100 100 100 88 94 92 94 77 85 86 95 97
100 100 100 100 100 100 96 95 100 100 87 70 68 56 84 87 13 32 86 92 60 65 61 58 27 76 73 70 80 94 100 100 100 100 100 100 100 100 100 100 100 100 84
100 100 100 100 100 97 93 94 100 94 96 19 66 49 24 32 35 60 96 88 70 62 86 79 58 65 83 72 65 66 68 100 100 100 100 100 100 100 100 100 100 100 100
100 100 100 100 100 100 91 72 91 55 97 88 34 72 82 82 70 92 70 64 62 29 64 87 80 16 59 31 49 67 59 60 98 100 100 100 100 100 100 100 100 100 100
100 96 100 100 100 82 79 91 87 75 76 86 70 65 84 83 66 100 57 50 68 64 76 62 74 55 55 58 42 60 58 53 61 78 100 100 100 100 100 100 100 100 100
100 100 100 100 100 90 68 28 64 86 100 100 100 100 94 88 81 76 65 68 70 58 70 66 73 54 72 41 56 80 65 57 75 64 60 100 100 100 100 100 100 100 100
100 100 100 100 100 100 97 100 91 80 99 100 100 100 100 98 100 98 88 72 62 89 61 66 67 42 6 10 5 19 32 5 5 5 43 68 97 100 100 100 100 100 100
100 100 100 100 100 100 100 98 100 100 100 100 100 100 100 100 98 72 66 74 86 66 64 74 71 27 29 35 6 11 5 5 5 5 49 59 60 86 100 100 100 100 100

GFSGL_prec_cloud_012.txt.gz
Cloud_Cover
100 93 23 5 0 5 2 4 4 0 0 19 87 29 50 97 5 5 19 29 3 0 4 1 5 5 5 6 43 4 2 3 5 1 0 0 0 0 5 24 100 100 48
95 5 5 5 5 5 5 3 0 1 5 2 18 95 100 83 80 5 35 38 5 0 0 3 5 8 69 6 0 1 0 1 13 92 8 5 1 2 3 19 76 100 91
5 5 5 16 8 5 5 2 5 5 2 37 99 100 58 100 91 100 37 2 0 0 5 5 5 5 5 5 5 5 5 13 80 100 86 6 5 87 98 38 83 100 100
5 5 5 5 5 5 5 5 5 5 11 100 100 90 40 89 100 100 49 0 0 4 5 5 4 43 85 81 27 49 5 36 23 78 97 61 78 6 100 56 10 33 100
5 5 5 5 5 5 5 5 5 4 22 100 51 87 92 98 100 50 5 1 5 5 5 5 35 51 98 100 94 100 100 98 97 100 100 92 100 100 100 99 68 2 44
6 45 31 45 8 34 39 24 0 5 30 5 82 92 100 100 6 5 5 5 5 5 72 90 5 5 5 100 70 100 100 100 97 100 93 100 100 100 100 100 100 48 2
83 62 25 12 90 100 18 4 0 5 5 5 27 5 10 5 11 57 10 5 5 10 5 5 6 40 26 33 7 60 100 100 100 100 99 100 100 100 100 94 100 48 5
100 69 53 80 100 28 5 0 4 5 76 84 51 72 61 72 50 37 7 5 5 5 5 5 14 29 47 99 93 100 100 100 100 100 100 89 94 100 99 100 100 49 18
100 100 87 100 28 5 0 4 5 5 48 100 100 99 100 80 65 8 5 5 5 5 5 5 78 90 63 100 100 100 100 100 100 100 100 100 100 100 100 100 96 100 99
100 100 99 16 5 5 5 6 5 75 98 75 24 5 12 96 28 5 5 5 55 7 8 14 6 100 100 100 100 99 100 100 100 100 100 83 90 71 63 9 52 100 100
100 85 14 5 5 73 14 59 5 5 5 42 5 45 97 8 5 4 5 5 17 76 44 40 59 85 100 100 100 100 100 100 100 99 100 98 98 94 29 5 5 5 81
84 6 5 0 6 70 81 5 5 5 5 5 50 84 96 9 5 5 5 56 13 72 16 55 70 100 82 75 100 100 100 100 100 100 100 100 100 89 95 80 5 5 5
5 4 5 5 17 97 5 5 5 5 5 83 100 81 87 5 5 5 5 5 5 48 12 24 15 5 97 75 100 100 100 100 100 100 100 100 100 100 100 98 79 76 77
5 5 5 6 25 75 97 98 79 33 99 98 77 98 30 52 45 5 7 38 5 5 5 14 8 6 20 87 97 100 100 100 100 100 100 100 100 100 100 100 100 100 100
36 60 27 91 86 78 76 98 61 5 5 5 92 83 73 74 36 5 59 45 5 5 5 32 16 11 91 99 76 100 100 100 100 100 100 100 100 100 100 100 100 100 100
97 100 100 100 100 93 98 100 69 24 7 5 30 71 84 39 42 18 52 8 5 5 5 80 98 98 63 84 100 96 100 100 90 100 100 100 100 100 100 100 100 100 100
100 100 99 97 89 99 100 95 100 74 21 94 24 56 14 10 41 5 45 5 5 5 13 69 100 100 95 23 82 98 100 100 100 91 100 100 100 100 100 100 100 100 100
100 100 100 99 100 100 100 100 100 85 39 94 50 39 22 5 32 5 20 13 33 32 49 67 86 98 85 39 74 83 100 100 100 100 85 100 100 100 100 96 97 88 86
100 100 100 100 100 100 100 100 100 100 89 100 77 23 86 28 79 72 27 43 48 32 15 12 62 74 68 30 75 97 68 96 100 100 100 100 98 100 97 90 85 88 84
96 100 100 100 100 100 100 71 78 93 98 100 96 32 74 100 96 62 82 63 67 36 29 9 5 15 68 66 76 100 82 61 93 100 100 100 100 100 100 100 98 88 60
99 100 100 100 99 100 100 99 94 92 100 91 69 82 21 62 32 71 49 58 74 68 50 18 5 54 64 93 25 86 57 80 50 69 100 100 100 100 100 100 100 100 100
97 100 100 97 98 100 90 94 99 99 92 66 53 95 100 98 96 74 64 100 58 48 55 5 5 5 5 5 5 96 84 97 73 64 53 100 100 100 100 100 100 100 100
100 100 100 100 100 100 98 72 72 87 90 86 64 90 100 100 100 100 96 71 56 63 66 65 52 55 26 29 60 18 63 21 13 98 98 73 95 100 100 100 100 100 100
100 100 100 100 100 100 100 100 62 95 94 93 98 96 100 100 100 100 100 100 93 81 79 63 54 40 6 42 76 63 5 53 73 38 80 100 98 65 100 100 100 100 100
100 100 100 100 100 100 100 100 100 100 93 98 100 100 100 100 100 100 100 100 100 99 69 65 63 41 8 5 5 17 33 55 7 5 5 86 98 63 11 100 100 100 100
100 100 100 100 100 100 100 100 100 100 100 100 100 100 100 100 100 100 100 100 100 100 100 99 67 36 6 11 5 8 26 5 5 5 47 52 64 9 5 52 74 100 100

GFSGL_prec_cloud_015.txt.gz
Cloud_Cover
100 100 100 66 5 5 22 51 14 26 5 5 11 90 97 87 34 97 83 88 99 10 4 3 0 5 5 6 42 66 61 72 100 1 5 9 66 90 7 2 5 58 100
100 100 93 19 48 55 16 5 2 5 3 1 10 87 81 5 100 17 80 100 96 40 7 0 2 5 5 68 96 97 99 100 100 98 88 100 100 100 100 5 20 83 100
98 26 36 13 5 5 5 5 5 2 5 5 5 5 68 100 93 100 100 100 100 67 4 5 5 5 41 99 100 100 100 100 100 100 100 100 100 100 100 78 52 93 100
5 5 5 5 5 19 22 6 27 34 39 5 5 65 96 90 100 100 100 97 9 5 5 5 13 89 89 92 100 100 100 100 100 100 100 100 100 100 100 100 100 89 60
5 5 5 5 52 68 30 96 99 57 13 5 6 40 100 97 100 100 74 7 39 75 5 5 5 36 63 84 100 100 100 100 100 100 100 100 100 100 100 100 100 100 91
8 13 25 87 93 100 100 100 100 36 2 5 5 6 8 45 5 22 92 98 49 5 2 5 5 5 59 100 100 100 95 100 100 100 100 100 100 100 100 100 100 100 87
60 76 100 100 100 100 99 82 5 2 0 5 11 75 78 89 96 98 16 5 5 4 5 5 7 86 100 100 100 87 100 96 100 100 100 100 100 100 100 100 100 100 100
100 100 100 100 93 54 78 53 0 0 2 5 6 6 15 89 97 32 5 1 0 5 5 19 99 100 100 99 100 100 100 100 100 100 100 100 100 100 100 100 100 100 100
100 100 100 100 70 68 38 6 5 4 5 5 5 5 5 8 5 5 4 5 5 5 28 94 100 100 100 100 100 100 100 100 100 88 88 100 100 99 92 100 100 100 100
100 100 96 38 50 100 98 5 5 5 3 5 5 5 5 5 5 5 2 5 25 29 43 24 100 100 100 100 100 100 100 100 100 100 100 100 100 100 86 97 100 100 100
93 89 44 53 100 52 5 5 5 5 5 5 5 5 5 5 5 5 5 47 74 64 5 5 82 100 92 88 94 100 100 100 100 100 100 100 100 100 100 100 100 100 100
96 42 54 100 46 5 5 5 5 5 5 5 5 5 28 8 5 5 5 5 14 67 11 5 59 54 12 53 98 100 100 99 100 100 100 100 100 100 100 100 100 100 100
72 100 94 10 5 5 9 5 9 51 5 5 55 84 72 5 5 5 5 5 11 6 33 5 5 5 5 30 84 79 100 98 100 100 100 100 100 100 100 100 100 100 100
100 100 75 86 35 51 51 16 48 58 5 18 5 8 7 5 5 5 5 72 16 7 5 5 5 5 4 5 5 21 100 100 99 100 100 100 100 100 100 100 100 100 100
100 27 86 100 100 100 100 78 70 54 5 5 5 5 8 25 34 5 5 89 91 49 5 5 5 5 5 5 5 58 85 93 100 100 100 100 100 100 100 100 100 100 100
100 5 86 85 85 94 96 81 68 68 56 5 5 5 5 19 50 5 5 61 5 5 5 5 5 5 5 5 5 5 72 100 100 100 100 100 100 100 100 100 100 100 100
11 30 96 65 100 84 95 98 80 66 56 5 5 5 5 12 6 5 5 69 5 5 68 25 52 68 5 5 5 5 5 87 100 100 100 100 100 100 100 100 100 100 100
9 82 79 100 97 98 100 99 100 100 94 5 5 46 13 17 5 12 49 97 93 62 20 25 52 69 38 5 5 5 5 5 56 94 100 100 100 100 100 100 100 100 100
100 100 100 99 96 98 95 97 86 94 68 32 15 16 11 42 24 100 100 96 94 97 97 61 53 59 67 65 38 5 16 5 12 45 99 100 100 100 100 100 100 100 99
100 100 100 100 100 99 94 70 77 64 54 68 74 74 17 70 74 80 100 88 88 60 85 86 31 30 73 80 88 68 8 7 5 34 54 98 100 100 100 100 100 100 100
100 100 34 97 100 93 95 100 82 96 64 78 22 13 7 51 47 63 88 100 97 51 79 84 86 60 71 78 57 84 13 12 21 5 22 64 94 98 100 100 100 100 99
94 69 53 100 98 100 100 100 100 94 60 88 61 60 5 45 27 54 58 84 100 99 74 72 80 72 69 74 95 99 40 24 64 5 5 10 79 66 82 100 100 100 100
69 86 97 100 100 100 100 100 100 94 76 25 69 71 45 57 53 53 62 63 89 100 100 99 92 89 71 66 74 57 65 23 88 15 5 7 62 57 72 86 99 100 100
99 100 100 100 100 100 100 100 100 90 78 74 73 100 87 82 100 100 84 64 87 96 100 100 100 83 37 78 92 57 5 17 82 41 5 9 76 72 33 56 97 100 100
100 100 100 98 100 100 100 100 100 100 88 100 100 88 99 100 100 100 100 100 100 100 98 100 100 100 100 28 59 5 5 18 5 11 5 31 82 72 49 5 21 91 100
92 100 100 100 100 99 100 100 100 100 98 98 99 99 100 100 100 100 100 100 100 100 100 99 100 100 100 89 50 5 5 5 13 5 5 5 21 5 5 5 31 73 44

GFSGL_prec_cloud_018.txt.gz
Cloud_Cover
100 15 16 89 97 42 5 5 5 5 5 14 5 5 51 14 29 82 62 50 98 100 100 100 100 100 100 100 100 100 100 100 100 2 100 100 100 100 100 100 100 100 88
100 94 93 74 5 5 5 5 5 14 12 5 5 5 61 99 78 81 100 84 100 100 100 100 100 100 100 100 100 100 100 100 100 86 100 100 100 100 100 100 100 100 100
67 5 5 5 5 5 6 34 25 17 97 91 5 85 84 61 30 59 78 100 100 99 95 14 69 65 80 72 84 99 100 100 100 100 100 100 100 100 98 100 100 99 100
5 12 57 70 5 5 42 16 36 98 48 5 61 93 84 25 80 92 97 100 99 94 66 58 76 18 5 5 17 93 100 100 100 100 100 100 100 100 100 100 100 100 100
91 100 100 10 29 64 52 85 100 27 6 14 26 93 59 69 66 81 96 96 71 97 71 26 4 4 5 39 73 99 100 100 100 100 100 100 100 100 100 100 100 100 100
100 100 26 37 85 66 89 50 5 33 65 22 46 88 53 69 5 55 95 84 94 60 5 0 1 5 70 6 92 84 60 100 100 100 100 100 100 100 100 100 100 100 100
100 21 49 49 83 86 100 100 51 71 5 24 87 22 30 70 5 17 83 90 5 5 1 0 5 5 98 100 100 100 100 100 100 99 100 100 100 100 100 100 100 100 100
59 62 63 87 100 100 93 11 97 61 42 100 100 53 64 43 5 5 5 5 5 5 5 5 5 36 100 84 100 100 100 100 100 100 100 100 100 100 100 100 100 100 100
98 100 100 100 99 90 100 72 98 58 94 100 56 70 89 87 5 5 5 5 5 5 5 5 5 24 97 84 100 100 100 100 100 100 99 100 16 9 32 87 100 100 100
100 100 100 100 100 100 100 43 100 89 71 5 5 5 8 71 5 5 5 5 85 54 11 5 5 44 45 98 98 100 100 100 100 100 100 100 100 100 65 80 100 100 100
100 100 100 100 100 100 100 100 62 91 6 5 5 5 5 5 49 5 5 6 79 39 54 49 5 17 45 59 44 96 86 96 100 100 100 100 100 100 100 100 100 100 100
100 100 100 100 97 100 100 79 88 99 33 38 44 19 79 56 12 9 5 5 4 59 84 99 26 5 5 10 5 9 64 66 100 100 100 100 100 100 100 100 100 100 100
100 100 100 100 99 100 100 97 100 98 93 61 62 99 99 100 98 63 5 5 10 64 84 26 5 5 5 0 0 5 38 98 100 100 100 100 100 100 100 100 100 100 100
100 100 100 100 100 96 100 100 100 100 98 98 100 100 100 100 100 100 100 100 100 91 100 84 26 5 5 2 8 8 5 31 99 100 100 100 100 100 100 100 100 100 100
100 100 100 100 100 100 100 100 100 96 90 98 100 100 98 92 100 77 56 93 99 83 6 97 100 100 38 41 39 49 52 5 70 100 100 100 100 100 100 100 100 100 100
100 100 100 100 100 100 100 100 96 56 18 5 5 5 5 5 5 5 5 5 29 27 74 100 100 100 100 94 93 97 98 17 5 97 100 100 100 100 100 100 100 100 100
100 100 100 100 100 100 97 100 99 100 80 5 5 5 5 5 15 9 8 5 21 80 90 100 100 100 98 98 65 8 82 73 5 49 100 100 100 100 100 100 100 100 100
100 100 100 100 100 100 100 100 100 100 100 96 100 89 75 5 5 5 7 97 94 96 81 100 100 100 100 100 84 16 5 57 93 5 52 100 100 100 100 100 100 100 100
100 100 100 100 100 100 100 100 99 99 99 99 100 100 97 15 5 20 94 97 100 100 100 100 100 100 100 100 100 100 96 79 16 66 99 94 100 100 100 100 100 100 100
100 100 92 86 100 78 100 100 100 100 99 100 100 100 96 94 92 71 82 83 94 98 100 100 100 100 100 100 100 100 98 100 100 38 41 98 100 99 100 100 100 100 100
100 100 100 100 100 100 100 100 100 100 100 100 98 87 86 63 99 99 100 99 94 90 100 100 100 100 100 100 100 100 100 100 100 79 37 5 95 100 86 100 100 100 98
100 100 100 100 100 99 100 97 100 100 100 100 98 100 91 59 73 81 86 84 79 54 77 99 99 100 100 100 100 100 100 100 100 100 98 7 84 100 100 86 100 100 99
97 100 100 99 98 99 100 100 100 100 100 100 100 100 100 82 79 87 89 80 81 83 55 100 100 100 100 99 98 99 100 100 100 100 99 96 100 100 100 100 74 99 100
93 93 100 100 100 99 100 100 100 98 100 100 100 100 100 94 89 93 100 100 100 100 100 100 100 81 96 100 100 100 98 94 100 99 86 49 97 100 100 100 100 69 86
82 100 79 96 100 100 100 100 100 100 100 100 100 100 100 100 100 99 100 100 100 100 100 100 96 100 74 100 99 90 100 40 44 92 97 84 100 100 100 100 100 100 73
100 89 89 91 100 100 100 100 97 96 100 100 100 100 100 100 100 100 100 100 100 100 100 100 100 100 99 85 100 95 100 15 67 56 92 99 100 100 100 100 83 95 100

GFSGL_prec_cloud_021.txt.gz
Cloud_Cover
85 17 98 93 100 98 46 7 5 5 5 45 51 41 6 5 48 43 44 88 77 72 100 95 71 97 100 100 100 100 100 77 14 4 80 64 100 99 100 90 82 30 38
100 65 80 100 97 95 25 5 5 5 59 44 16 47 45 89 53 97 57 11 22 93 100 83 100 100 96 92 98 92 91 61 92 70 12 97 100 100 100 99 91 100 97
53 94 100 100 100 68 11 92 39 28 51 25 7 14 43 74 65 100 100 100 98 100 100 100 97 83 96 34 12 5 5 30 87 82 44 82 96 99 93 98 100 88 100
84 100 100 95 89 54 100 99 39 70 86 50 77 48 96 100 100 93 56 100 100 100 92 99 100 100 20 5 4 5 49 100 100 93 83 100 100 100 95 97 83 100 93
100 100 100 82 96 98 92 63 83 98 100 100 40 10 95 88 74 36 24 87 98 95 96 87 95 7 0 0 5 63 100 100 100 100 100 80 100 100 100 96 100 99 88
100 100 100 100 100 100 87 86 100 100 92 6 13 88 100 69 98 86 0 5 61 100 100 62 5 23 77 5 87 95 52 100 100 100 100 100 100 100 98 100 100 100 98
100 100 99 97 100 100 96 97 86 82 56 70 92 50 83 98 23 0 4 5 25 72 50 20 6 5 66 69 82 100 99 75 70 57 100 97 100 100 100 99 100 100 100
100 100 100 100 100 100 100 100 100 90 87 98 100 99 75 86 35 1 2 0 48 82 64 60 64 76 72 5 7 64 95 100 100 89 66 76 100 100 100 100 100 100 80
100 100 95 100 100 100 100 100 100 100 72 100 100 98 65 92 19 4 5 5 96 98 99 91 47 5 35 5 7 71 70 89 100 89 50 21 43 20 9 94 93 100 83
100 100 100 100 100 100 100 100 100 93 100 100 100 87 100 13 5 5 5 6 89 99 98 97 100 5 4 5 5 16 66 80 5 22 84 97 100 100 64 89 100 100 100
100 100 100 100 100 100 100 100 100 100 100 100 100 100 93 54 94 23 5 5 81 70 70 86 100 26 3 5 5 33 77 5 50 100 100 100 100 100 100 100 100 100 100
100 100 100 100 100 100 100 100 100 100 71 100 100 20 96 90 12 12 5 5 5 17 91 97 92 7 3 5 4 4 4 19 96 100 100 100 100 99 100 98 100 100 100
100 100 100 100 100 100 100 100 100 93 100 99 70 99 100 99 87 66 5 5 5 25 86 48 5 5 5 5 57 5 7 100 85 100 100 100 100 100 100 99 100 100 84
100 100 100 100 100 100 100 100 100 100 92 60 100 98 100 100 99 95 37 30 15 37 74 97 30 13 21 22 80 100 100 100 66 97 100 100 100 100 100 100 100 100 100
100 100 100 100 100 100 100 91 99 88 88 100 88 95 92 36 50 14 40 96 93 97 11 31 99 100 89 100 100 100 100 100 100 30 100 100 100 100 100 100 100 100 100
100 100 100 100 100 100 100 100 100 100 100 37 5 79 64 8 5 5 5 5 5 5 52 100 99 100 100 100 100 100 100 100 100 77 100 100 100 100 100 100 100 100 100
100 100 100 100 100 100 99 100 100 91 17 5 43 95 86 13 5 5 5 5 11 76 87 99 100 100 100 100 100 100 100 100 38 100 100 100 100 100 100 100 100 100 100
100 100 100 100 100 100 100 69 94 97 38 91 100 97 90 100 76 5 5 26 95 98 94 100 100 100 100 99 100 100 100 100 100 100 100 100 100 100 100 100 100 100 100
100 100 100 91 66 99 100 89 97 80 100 100 100 100 98 64 32 5 6 65 98 100 100 98 95 98 98 100 99 99 100 99 84 99 99 100 100 100 100 100 100 100 100
85 96 99 98 100 100 94 100 98 100 100 100 100 100 100 100 88 62 70 89 73 94 98 100 100 98 100 100 95 100 100 100 100 100 100 100 100 100 100 100 100 100 100
100 100 100 100 100 100 99 100 100 100 100 100 100 100 100 97 78 82 100 100 100 83 98 100 100 95 99 100 99 100 100 100 100 100 100 100 100 100 100 100 100 100 100
100 100 100 95 79 91 93 100 98 100 100 100 100 100 100 100 100 100 100 100 99 100 100 100 100 100 94 92 100 100 100 100 100 100 100 100 100 100 100 100 100 90 100
100 100 97 97 100 91 89 99 100 100 100 100 100 100 100 100 100 100 100 100 100 100 100 100 100 100 83 86 98 92 100 100 100 100 100 100 100 100 100 100 100 100 85
100 77 82 86 56 83 93 99 100 100 100 100 100 100 100 100 100 100 100 100 100 100 100 100 100 100 100 78 97 95 99 98 98 100 93 100 100 100 100 100 100 100 100
100 95 100 72 100 98 93 100 100 100 100 100 100 100 100 100 100 100 100 100 100 100 100 100 100 100 100 100 100 87 99 100 91 100 100 100 100 100 99 100 100 98 98
100 100 100 100 100 93 87 94 100 100 100 100 100 100 100 100 100 100 100 100 100 100 100 100 100 100 100 100 100 100 100 100 82 57 54 100 100 100 100 100 94 100 100

GFSGL_prec_cloud_024.txt.gz
Cloud_Cover
5 5 5 64 97 100 100 98 100 44 5 83 100 100 100 100 100 64 17 5 14 17 79 58 100 100 92 5 5 6 47 19 16 5 5 4 0 0 0 0 0 0 0
57 24 14 93 100 100 99 99 19 5 71 76 90 99 100 63 55 5 52 100 100 98 98 83 86 95 6 45 91 5 5 0 0 0 0 0 5 0 4 5 4 5 5
5 16 85 98 100 100 79 76 56 7 9 89 99 33 5 5 98 11 5 100 33 75 28 5 10 83 97 5 5 0 0 0 3 5 5 2 5 5 5 5 5 6 5
5 87 100 100 99 74 80 52 69 90 44 48 5 23 66 79 92 86 64 89 97 8 21 15 30 79 5 5 0 0 0 2 5 5 5 5 5 5 19 28 5 5 5
38 100 100 100 83 98 77 98 99 96 68 89 86 100 100 83 100 100 93 100 93 15 63 14 57 49 5 0 0 1 5 5 5 5 5 5 5 5 5 34 31 23 5
100 100 100 100 100 100 100 100 93 99 100 83 95 99 95 94 100 100 100 100 95 4 5 36 5 2 5 5 5 5 5 5 5 46 43 97 14 75 74 50 5 5 28
100 100 100 100 83 100 100 85 100 100 100 100 94 100 100 100 100 100 100 100 6 5 5 5 5 5 5 5 4 4 0 2 64 100 100 98 99 88 72 24 5 5 5
100 100 100 100 100 100 100 100 100 100 100 100 100 100 100 100 100 100 100 100 94 5 5 5 5 62 5 0 0 0 3 3 5 76 86 5 5 5 5 5 5 5 5
100 100 99 100 100 100 100 100 100 100 100 100 100 100 100 100 100 100 42 22 5 8 5 5 52 84 5 3 0 4 5 2 4 5 5 5 5 55 71 98 44 96 70
100 100 94 100 100 100 100 100 100 100 100 100 100 100 100 91 100 100 13 5 54 5 5 5 5 5 5 5 4 5 5 5 2 3 20 22 5 7 100 100 100 100 98
100 100 100 100 100 100 100 100 100 100 100 100 100 100 100 100 100 47 4 5 5 5 5 5 93 56 7 5 2 4 4 0 2 5 45 32 89 97 5 5 98 100 100
100 100 100 100 100 100 100 100 100 100 100 100 100 100 100 5 5 39 48 5 4 5 5 5 5 5 1 5 1 2 5 5 8 20 6 82 84 98 43 12 94 85 100
100 100 100 100 100 100 100 100 100 100 100 93 10 22 70 93 98 92 99 19 5 5 5 5 5 5 5 5 5 51 50 5 84 5 5 45 98 98 99 30 40 42 100
100 100 100 100 100 100 100 100 100 100 100 100 90 100 100 90 100 98 7 5 5 5 5 29 66 5 18 5 8 68 60 85 63 77 6 8 82 93 72 87 82 73 92
100 100 100 100 100 100 100 100 100 98 67 100 98 100 100 100 100 100 80 40 64 95 92 48 6 23 92 70 41 65 100 93 70 48 5 5 66 100 80 80 100 100 100
100 100 100 100 100 100 100 100 100 99 93 67 9 16 67 100 100 98 100 84 7 9 5 5 48 38 64 88 22 16 23 5 14 5 50 51 97 44 100 100 100 100 100
97 98 96 97 94 50 8 5 59 6 9 49 44 100 100 100 100 99 99 71 54 5 5 5 6 26 74 87 22 39 83 56 5 49 58 80 97 63 55 100 100 100 100
6 5 5 5 26 17 9 74 100 31 5 5 10 98 98 100 98 89 68 100 82 92 62 40 49 46 75 79 80 50 6 5 24 37 12 80 100 100 42 72 100 100 100
5 3 6 60 83 45 93 100 85 44 54 18 41 96 100 100 99 68 94 89 69 54 82 100 96 60 71 95 83 95 56 80 23 15 86 99 100 100 94 85 96 100 100
5 15 97 100 100 100 100 100 75 74 89 93 99 100 100 100 95 92 100 82 97 100 91 87 96 95 100 100 93 84 91 92 60 39 78 87 100 59 65 100 86 99 100
8 56 96 100 100 100 87 64 80 72 100 94 99 87 100 100 100 99 100 100 100 100 100 100 100 100 100 100 100 84 89 25 37 55 57 99 90 7 67 100 100 83 100
69 94 100 89 95 94 7 10 5 5 36 73 94 98 100 100 100 100 100 100 100 100 100 100 100 100 100 100 100 100 67 72 64 65 52 69 90 70 94 100 100 100 74
100 100 100 100 100 99 60 57 6 23 57 96 100 100 100 100 100 100 100 100 100 100 100 100 100 98 100 92 100 100 64 92 65 74 55 11 45 84 99 26 100 100 32
97 100 100 100 100 100 100 82 81 28 94 100 100 100 100 100 100 100 100 100 100 100 100 100 100 100 100 100 99 100 100 85 98 35 46 12 11 9 72 91 77 100 89
74 100 100 89 100 100 100 100 72 89 100 100 100 100 100 100 100 100 100 100 100 100 100 100 100 100 100 100 100 100 100 100 98 64 78 36 25 35 61 5 5 5 69
98 100 100 100 98 100 100 100 100 100 100 100 100 100 100 100 100 100 100 100 100 100 100 100 100 100 100 100 100 100 100 100 100 74 79 100 61 8 11 44 71 5 21

GFSGL_prec_cloud_027.txt.gz
Cloud_Cover
1 5 23 8 8 88 100 88 100 84 100 100 99 96 89 99 58 83 62 64 80 99 100 99 100 90 92 100 44 99 95 100 72 4 0 0 0 0 0 0 0 0 2
100 5 5 5 88 100 100 100 100 100 74 69 64 99 99 55 72 100 100 100 100 100 100 100 100 100 24 100 75 100 99 46 0 0 0 0 0 0 0 0 0 0 2
29 5 8 97 100 100 100 87 80 95 66 100 77 83 100 100 100 98 74 96 93 100 100 100 100 97 96 26 5 5 1 0 0 5 0 0 0 0 0 0 0 0 0
5 5 81 100 100 100 100 85 100 71 95 97 77 100 100 100 100 100 97 100 100 100 100 100 100 80 26 5 2 1 0 0 0 5 1 1 4 1 5 62 25 5 5
7 9 65 100 99 81 100 99 73 91 75 34 88 96 100 100 100 100 100 100 100 99 100 100 100 54 5 5 0 0 0 4 5 5 5 5 5 10 100 84 52 5 5
97 97 100 100 72 96 99 98 100 100 100 100 100 100 100 100 100 100 100 100 100 100 96 84 100 99 0 0 0 3 5 5 5 5 50 85 39 91 63 5 5 5 6
100 100 100 100 100 100 100 100 100 100 100 100 99 77 93 100 100 100 100 100 100 100 59 3 1 5 0 3 5 4 0 0 2 4 11 88 83 83 59 4 5 11 39
100 100 100 97 83 99 100 100 100 100 100 100 100 100 100 100 100 100 100 100 99 81 5 5 5 5 5 5 4 0 0 0 0 3 44 3 4 45 86 68 10 18 8
100 79 100 67 100 100 100 100 100 100 100 100 100 100 100 100 100 100 99 9 5 6 16 12 5 5 5 5 5 5 4 0 0 1 0 5 5 9 66 99 65 100 76
90 91 73 100 100 100 100 100 100 100 100 100 100 100 100 97 100 94 96 56 72 24 1 5 5 5 5 5 5 5 6 2 2 5 0 5 5 5 40 98 98 99 100
87 100 100 100 100 100 100 100 100 100 100 100 100 100 100 100 100 100 76 12 5 5 5 5 5 5 5 5 5 5 5 5 5 5 5 4 5 5 5 5 70 97 100
100 100 100 100 100 100 100 100 100 100 100 100 100 99 100 90 19 99 36 5 6 5 5 5 5 5 5 5 5 5 5 5 5 5 5 5 5 5 5 5 5 5 83
100 100 98 69 96 100 100 95 100 85 100 42 5 40 100 97 100 100 29 39 68 5 5 5 5 5 5 5 5 5 84 79 5 23 7 5 5 5 5 34 5 5 99
78 77 54 66 36 5 0 4 5 5 29 20 5 18 21 91 98 32 97 97 73 76 79 5 5 5 8 99 94 36 6 5 5 5 5 5 5 5 5 66 62 13 44
5 6 2 0 1 3 5 5 5 6 21 5 5 5 39 41 65 100 98 96 99 30 66 91 34 87 97 100 98 75 26 43 32 5 5 5 5 5 5 60 86 85 78
5 5 5 5 2 4 5 5 5 5 5 5 31 81 23 90 94 60 83 73 56 88 97 83 68 57 41 62 98 95 91 91 81 51 30 11 48 43 5 5 88 99 87
2 0 2 4 5 5 5 5 5 5 5 1 0 5 22 50 100 100 100 100 100 100 62 63 66 14 38 48 82 70 100 93 76 74 5 5 60 9 18 7 26 97 100
5 5 5 5 5 16 19 66 89 100 21 5 4 5 5 51 100 100 100 100 100 93 60 51 39 18 48 74 47 60 61 80 32 53 5 13 66 63 74 29 7 96 100
5 6 8 68 88 100 100 99 97 91 87 6 6 6 27 97 100 100 100 100 98 100 94 99 68 36 65 94 96 92 94 48 64 59 35 57 67 54 47 55 61 6 100
5 41 78 97 88 72 100 100 99 96 74 77 80 16 54 99 84 100 100 100 100 100 100 100 100 90 99 100 100 100 100 97 71 54 60 77 53 44 6 34 75 76 18
85 100 91 88 100 93 97 100 100 99 68 53 16 8 68 100 100 100 69 88 100 100 100 100 100 96 84 51 98 84 89 94 36 57 7 55 68 5 5 43 94 58 5
98 91 52 75 100 82 99 100 83 99 100 100 5 9 8 88 100 100 100 100 100 100 100 100 100 100 100 100 90 98 99 98 78 33 5 10 47 12 42 74 57 66 14
8 44 47 45 54 46 48 42 84 100 100 100 86 100 99 41 94 100 100 100 100 100 100 100 100 100 100 100 100 100 100 100 100 100 61 16 47 47 58 51 56 42 5
100 100 100 100 100 100 100 72 100 98 100 100 98 94 84 77 100 100 100 100 100 100 100 100 100 100 100 100 100 90 93 100 100 100 92 100 51 82 52 52 16 52 36
70 100 100 100 100 100 100 97 100 100 100 100 100 100 98 100 80 80 98 100 100 100 100 100 100 100 100 100 100 91 84 100 100 99 94 86 100 72 93 24 41 12 55
68 100 78 100 100 100 100 100 100 100 100 100 100 100 100 87 72 68 80 96 100 100 100 100 100 100 100 100 100 100 100 100 100 100 100 93 81 70 65 58 14 17 62

GFSGL_prec_cloud_030.txt.gz
Cloud_Cover
2 59 97 100 100 100 100 100 96 100 99 100 100 79 99 70 81 80 100 76 100 82 99 99 90 100 100 100 100 100 100 100 100 66 7 0 0 0 0 0 0 0 0
2 5 71 74 72 78 98 94 82 88 97 62 67 18 76 87 99 53 38 67 90 100 100 94 92 78 87 100 100 100 100 91 18 4 0 0 0 0 0 0 0 0 0
29 100 94 44 90 42 54 60 40 24 15 19 31 5 41 99 100 98 78 41 73 94 98 100 100 100 100 100 99 70 5 5 2 5 4 0 0 0 0 1 4 1 1
78 67 36 100 97 99 15 57 6 5 5 50 97 80 99 100 100 97 94 98 100 92 100 100 100 98 65 9 5 5 4 0 0 5 5 5 5 1 5 5 33 5 3
5 34 100 100 100 93 100 100 61 26 87 79 79 100 96 85 74 95 89 71 100 100 100 100 72 4 5 5 2 1 4 5 5 5 5 5 5 5 5 5 35 5 0
83 100 100 100 100 100 100 100 98 97 100 100 100 96 93 84 87 98 100 100 100 100 98 5 5 0 0 0 4 5 5 4 5 5 5 5 5 5 5 5 6 48 85
89 67 98 100 100 100 100 100 100 100 100 100 91 100 99 100 100 100 100 100 93 5 5 5 5 0 0 1 5 5 5 0 0 5 5 8 35 3 53 68 91 95 90
100 100 82 74 18 78 100 100 100 100 100 100 100 100 100 100 100 100 100 83 70 85 82 21 5 0 0 5 5 5 3 3 0 0 4 1 4 5 94 99 100 96 72
98 99 100 100 100 100 100 100 100 100 100 100 100 100 100 100 59 62 80 46 40 5 62 7 0 1 5 5 5 5 5 5 0 0 2 4 5 5 88 100 80 94 83
28 97 100 100 100 100 100 100 100 100 99 99 74 26 5 5 5 10 70 81 6 5 5 2 3 4 1 4 5 5 5 5 5 5 0 5 0 0 5 55 77 100 100
100 100 100 100 100 100 100 100 100 62 10 4 0 0 3 5 7 82 90 5 42 8 5 5 5 1 4 5 5 5 9 5 5 5 5 5 5 5 4 5 5 63 100
100 100 100 100 100 100 100 100 75 2 4 0 0 4 1 4 40 100 92 28 63 14 5 19 5 5 5 9 32 8 6 5 34 6 5 5 42 5 5 5 5 11 8
100 100 100 100 100 98 100 61 4 5 2 5 5 5 4 0 5 47 90 100 30 5 74 86 73 48 5 34 56 9 22 48 41 44 5 5 27 5 5 5 5 89 23
100 100 100 99 96 100 46 5 5 5 5 5 5 5 5 5 6 15 39 100 97 96 81 100 85 99 6 44 53 8 93 88 80 33 30 68 49 5 5 5 5 82 85
100 100 76 98 100 90 5 5 5 1 5 5 5 5 5 5 5 5 64 51 76 100 100 100 89 96 72 60 66 60 100 85 80 48 99 100 58 51 5 5 5 55 95
100 62 96 83 35 10 5 3 1 5 5 5 5 5 5 4 5 5 90 100 95 100 100 86 84 88 100 61 88 83 90 71 39 75 94 100 34 72 64 5 5 10 79
100 100 60 21 5 5 5 5 5 5 5 5 5 5 49 5 5 5 30 99 100 100 100 99 100 90 78 85 100 78 100 27 13 49 55 68 52 67 67 60 17 5 10
98 77 88 81 63 100 86 71 61 50 14 5 52 73 88 35 86 62 89 100 100 100 95 100 92 91 100 70 97 74 77 46 73 77 94 60 67 78 73 66 52 96 22
8 66 48 37 73 85 89 97 99 100 92 100 57 16 16 5 5 5 92 100 100 100 100 100 100 100 100 80 99 85 61 13 35 100 92 70 70 75 65 44 75 74 70
84 97 53 18 37 30 55 100 98 90 100 100 100 77 77 60 60 30 73 84 100 100 100 100 100 100 100 100 96 100 100 95 97 99 68 88 94 79 35 45 58 94 63
5 7 8 9 31 54 73 43 59 98 74 98 93 90 100 86 76 86 70 72 98 100 100 100 100 100 100 100 100 100 100 100 100 97 90 83 99 68 13 56 77 72 75
97 99 95 98 100 100 100 100 99 100 100 100 100 89 100 100 100 95 71 94 84 100 100 100 100 100 100 100 100 100 100 100 100 82 92 99 58 11 43 68 81 78 41
33 100 100 87 100 100 100 98 96 100 100 100 100 100 100 100 100 100 100 100 98 100 100 100 100 100 100 100 100 100 100 100 98 100 100 100 81 42 44 83 61 73 16
59 100 47 97 100 100 100 100 100 99 100 100 100 100 100 100 100 100 91 96 95 96 100 100 100 100 100 100 100 100 100 100 100 100 100 100 86 66 75 62 68 61 65
31 95 64 100 100 100 100 100 100 100 100 100 100 100 100 100 100 100 100 100 21 7 100 100 100 100 100 100 100 100 100 100 100 100 100 100 100 92 55 63 65 67 30
62 91 36 100 100 100 100 100 100 100 100 100 100 100 100 100 100 100 100 100 99 76 42 100 100 100 100 100 100 100 100 100 100 100 100 100 100 100 95 57 61 100 61

GFSGL_prec_cloud_033.txt.gz
Cloud_Cover
0 5 5 10 74 37 64 100 100 100 100 100 100 100 100 91 86 100 96 25 69 94 27 5 5 5 67 100 97 100 100 99 61 5 4 0 0 0 0 0 0 0 0
5 1 5 27 94 98 100 100 100 100 98 82 97 100 100 96 100 100 100 91 5 5 5 92 99 100 100 100 100 100 87 70 85 5 0 0 0 0 0 2 0 0 0
8 37 60 14 58 95 100 100 100 50 69 99 100 89 100 100 100 87 25 93 73 10 90 100 100 100 91 19 88 60 5 5 5 5 5 0 4 0 0 1 5 1 3
26 11 42 79 97 99 100 100 100 100 100 100 100 100 100 100 90 99 69 82 63 94 91 74 15 4 5 5 3 3 1 1 5 5 5 4 5 2 5 5 5 3 0
43 95 92 87 40 26 27 45 100 100 100 100 100 100 100 100 100 86 96 100 100 78 6 5 1 5 5 5 0 0 2 5 5 5 5 5 5 5 5 4 5 5 5
87 74 22 65 100 100 100 100 100 100 100 100 100 100 100 100 100 84 95 24 5 5 5 27 5 5 5 5 0 0 3 5 5 5 5 5 5 5 5 5 22 99 95
31 96 83 100 100 100 100 100 100 100 100 100 100 100 100 100 100 90 5 5 5 5 5 5 5 46 5 3 0 5 5 5 5 5 5 5 5 5 10 80 95 99 96
5 29 77 99 100 100 100 100 100 100 92 100 100 100 100 96 9 5 5 5 16 5 63 5 5 5 3 1 5 5 5 5 5 0 1 5 5 5 14 95 98 88 32
34 96 100 100 100 100 100 100 100 100 100 96 100 100 87 60 7 3 5 5 89 74 73 5 5 2 0 4 5 5 5 5 5 5 5 5 5 4 4 5 5 98 94
60 91 100 100 100 100 100 100 100 100 100 100 100 100 84 6 45 3 5 92 94 91 74 50 5 5 5 5 5 5 5 5 5 5 5 5 4 5 5 3 5 99 100
71 100 100 100 100 100 100 100 100 100 100 100 86 53 72 99 12 4 5 74 99 100 99 50 14 5 5 5 5 5 5 5 5 5 5 5 5 5 5 1 4 6 99
100 100 100 99 100 100 100 100 100 100 98 87 100 100 84 5 5 0 5 5 65 94 100 48 88 66 38 64 12 5 5 7 41 64 71 7 5 5 5 5 5 5 80
59 12 79 98 100 100 100 100 95 98 99 100 100 64 8 5 5 5 5 3 47 89 79 100 99 98 100 70 90 61 60 53 60 91 10 14 7 6 7 5 5 5 5
29 83 99 100 100 100 90 91 84 100 100 100 85 5 5 5 5 5 6 5 84 100 100 97 100 96 100 82 99 60 86 56 23 32 29 24 11 78 45 6 15 5 33
71 67 25 50 58 62 84 76 100 100 99 70 5 5 5 5 5 5 5 7 14 68 98 100 99 100 100 99 100 86 100 42 65 68 52 5 52 96 55 32 55 38 77
5 5 5 7 81 100 95 91 100 100 73 72 13 5 5 5 5 5 5 5 8 71 100 88 90 92 100 100 100 100 94 78 34 29 56 7 89 41 63 37 59 78 75
5 35 91 100 100 100 100 100 100 97 98 19 46 80 100 96 97 100 11 5 8 99 100 90 100 100 100 100 100 100 100 68 48 44 10 45 94 64 78 67 64 78 55
95 100 100 100 95 99 100 98 100 100 100 100 24 40 98 71 100 100 6 10 94 77 100 100 99 99 100 100 100 100 100 100 57 53 56 90 100 97 80 76 59 100 96
84 100 85 22 56 99 70 45 48 51 51 93 61 34 70 17 100 88 93 85 98 100 100 100 73 100 100 100 100 100 100 100 70 81 50 77 100 100 94 70 60 62 93
99 81 97 97 92 98 88 92 100 100 98 87 86 86 70 76 56 65 96 99 96 100 100 100 88 97 100 100 100 100 100 100 99 100 97 84 100 100 87 63 70 99 84
87 100 66 84 82 100 100 100 100 100 99 100 100 100 100 100 100 100 100 100 100 100 93 98 100 100 100 100 100 100 100 100 100 91 96 68 100 100 68 53 64 83 89
54 100 47 12 99 96 99 100 100 100 100 100 99 99 96 100 100 100 100 100 100 100 100 99 99 100 100 100 100 100 100 100 100 98 100 83 93 100 100 60 90 89 60
84 75 5 63 56 82 100 94 99 100 100 100 100 100 100 100 100 100 100 100 100 100 100 100 93 100 100 100 100 100 100 100 100 88 100 93 100 100 100 75 84 96 62
72 65 6 84 73 93 100 91 100 100 100 100 100 100 100 100 100 100 100 100 100 100 96 83 84 96 100 100 100 100 100 100 100 100 100 100 100 99 99 94 72 74 72
91 69 56 97 97 100 100 67 100 100 70 100 100 100 100 100 100 100 100 100 100 100 100 80 90 93 100 100 100 100 100 100 100 100 100 100 100 100 97 91 64 69 68
79 52 34 87 100 100 70 76 100 94 95 100 100 100 100 100 100 100 100 100 100 100 100 100 99 33 54 100 100 100 100 100 100 100 100 100 100 100 100 88 99 98 68

GFSGL_prec_cloud_036.txt.gz
Cloud_Cover
35 10 24 15 15 94 92 89 81 40 43 100 100 100 100 71 72 94 80 95 28 75 100 96 90 89 5 5 5 5 5 21 51 5 5 5 5 0 0 0 0 0 0
91 82 89 56 33 51 80 42 88 92 96 100 100 90 100 100 98 98 100 96 6 64 70 100 86 5 5 5 5 5 5 5 5 5 5 1 0 0 0 0 0 0 0
5 6 96 83 37 69 90 17 79 28 100 100 10 69 100 76 100 100 92 100 100 100 95 5 5 5 5 0 3 5 5 5 5 3 0 0 0 0 0 1 4 1 0
5 30 36 58 44 100 91 92 99 100 100 82 86 100 100 100 100 100 100 100 91 76 62 6 5 5 0 2 5 5 5 0 0 4 5 3 0 0 4 5 4 0 4
4 5 12 5 93 84 80 91 80 100 58 98 100 100 100 100 100 100 98 100 50 97 82 39 5 5 5 5 39 41 5 0 4 5 5 0 0 3 3 5 5 5 5
100 91 94 100 100 96 100 87 99 31 39 100 100 100 100 100 100 100 96 86 100 100 37 5 5 5 5 41 22 4 0 5 5 5 5 5 5 2 5 5 37 98 98
68 86 83 97 99 100 100 100 96 98 100 100 100 100 100 100 100 100 99 100 100 94 6 84 8 5 5 5 3 0 3 5 5 5 5 4 4 5 6 12 90 98 100
88 56 18 62 98 100 100 100 100 100 100 100 100 100 100 100 100 100 100 100 100 28 5 99 63 87 13 5 5 4 5 5 5 5 1 5 5 5 59 5 8 32 54
5 5 56 72 88 100 100 100 100 100 100 100 100 100 100 100 100 100 100 100 100 70 89 100 100 99 94 79 5 4 1 5 4 2 5 5 5 11 5 5 5 60 98
11 17 55 91 100 100 99 100 100 100 100 100 100 100 100 100 100 100 100 100 65 6 70 100 100 94 100 100 19 5 5 5 5 5 7 5 5 5 5 5 5 84 98
49 68 92 95 100 100 100 97 83 85 92 100 100 100 100 100 100 100 100 87 35 5 6 53 91 100 100 99 61 9 72 50 84 89 99 39 26 5 5 5 5 5 87
99 100 92 79 64 72 74 58 65 66 100 93 70 100 100 85 97 100 68 15 4 5 5 19 83 76 100 100 93 79 86 63 96 100 100 83 89 13 5 5 5 5 5
100 95 99 80 74 95 80 11 5 8 26 33 76 92 61 82 85 32 5 0 1 20 6 5 6 26 79 100 99 96 100 71 64 100 100 100 80 54 10 36 5 5 5
92 86 74 82 73 29 5 5 5 8 23 85 73 8 5 5 19 5 5 5 5 8 16 91 73 96 100 100 100 100 100 97 80 100 100 100 54 46 6 76 5 5 41
85 73 72 26 5 5 5 6 5 26 72 14 8 70 98 89 51 30 50 100 100 100 100 90 100 100 100 100 89 100 100 100 100 100 100 100 63 20 24 9 5 18 83
70 46 25 28 29 25 23 35 55 72 25 6 6 41 12 63 10 72 86 100 100 100 100 100 100 96 98 100 100 100 100 100 100 88 100 100 74 27 29 5 23 15 94
19 37 30 6 9 30 43 49 71 70 64 5 5 43 23 6 5 55 75 100 100 100 100 100 100 100 100 97 100 100 100 100 100 100 100 100 74 66 61 34 21 31 5
5 5 5 26 57 83 85 95 92 94 98 91 40 5 36 35 13 8 51 98 100 100 98 100 100 100 100 100 91 100 100 100 81 100 100 100 77 62 55 47 32 62 10
65 79 68 81 74 29 66 94 96 94 100 98 36 38 15 5 6 23 7 100 100 87 99 97 100 100 100 100 87 100 100 100 100 100 100 100 100 96 80 72 48 47 53
87 95 77 98 71 99 66 97 100 100 100 100 100 100 92 79 38 85 100 100 95 100 99 100 100 100 100 90 100 100 100 100 100 100 100 100 100 99 89 88 72 19 13
100 100 100 88 72 63 98 100 100 100 100 100 100 100 97 100 100 100 100 100 100 100 100 100 100 100 100 100 98 100 100 100 100 100 100 100 100 100 96 92 63 31 56
100 100 100 100 96 70 96 94 80 100 100 100 100 94 96 100 100 100 100 100 100 100 100 100 100 100 98 97 100 100 100 100 100 100 100 100 100 100 99 88 67 38 94
100 100 100 100 99 36 93 19 56 100 100 32 83 100 100 100 100 100 100 100 100 100 100 100 100 100 100 100 100 100 100 100 100 100 100 100 100 100 100 100 84 86 81
100 100 100 100 58 57 85 42 39 84 91 56 89 100 100 100 100 100 100 100 100 100 100 100 100 100 100 100 100 100 100 100 100 100 100 100 100 100 100 100 100 87 84
100 100 98 91 100 100 91 28 5 80 58 22 96 100 100 100 100 100 100 100 100 100 100 100 100 100 100 73 63 100 100 100 100 100 100 100 100 100 100 100 100 95 100
100 81 9 85 98 94 33 46 8 77 64 54 81 91 99 100 100 100 100 100 100 100 100 100 100 100 100 100 100 100 100 100 100 100 100 100 100 100 100 100 100 100 99

GFSGL_prec_cloud_039.txt.gz
Cloud_Cover
100 86 92 79 100 100 100 100 100 96 99 94 95 98 100 100 98 15 25 98 100 98 100 100 100 44 5 5 7 5 10 53 6 5 31 5 2 2 3 1 0 0 0
35 98 100 100 100 91 100 100 100 100 100 100 100 100 100 100 100 84 87 100 100 90 94 79 81 15 66 5 5 5 5 5 5 5 5 5 5 5 3 0 0 0 0
100 100 100 93 97 100 100 100 99 99 58 66 51 89 100 100 16 82 100 95 92 70 65 82 89 77 92 58 24 5 5 5 5 5 5 5 5 5 5 0 0 0 0
100 69 68 52 58 31 41 59 51 57 98 100 100 100 100 99 100 100 100 100 100 100 100 100 100 100 100 42 22 5 5 5 5 5 5 5 5 5 5 0 0 0 2
5 4 5 4 5 46 86 32 90 100 100 100 100 96 100 100 100 100 100 100 100 100 100 100 100 100 99 50 5 5 5 5 5 5 5 5 5 5 0 1 5 4 5
4 0 1 83 93 98 100 100 100 100 100 100 100 100 100 97 100 100 100 99 100 100 100 100 100 100 36 5 5 5 5 5 5 5 5 5 5 5 0 5 13 70 7
1 5 5 52 96 100 100 100 100 100 100 100 100 100 100 100 100 100 99 99 100 100 100 98 100 64 100 5 27 40 5 5 2 5 6 5 18 1 5 18 90 100 85
5 5 5 14 77 100 84 90 100 99 99 99 84 100 100 100 96 97 96 81 57 87 99 99 17 28 94 71 100 92 5 13 5 9 5 5 2 5 6 94 100 99 97
5 5 14 56 68 55 42 89 100 100 43 91 100 100 87 100 81 73 61 30 84 98 76 72 12 5 18 98 96 76 95 75 29 5 5 5 5 5 6 90 100 100 94
48 57 68 72 44 100 99 99 100 100 97 93 46 85 65 81 11 29 48 70 88 87 74 40 14 5 5 37 100 69 83 22 83 5 5 5 5 5 55 50 99 100 100
91 73 77 94 100 97 52 14 5 13 19 21 38 68 36 5 55 39 69 38 60 52 7 5 5 5 5 5 10 93 100 100 87 53 18 6 5 21 77 87 98 100 100
89 98 72 28 7 10 29 10 12 31 48 18 80 71 39 6 8 45 30 43 6 19 5 5 5 5 5 63 91 94 82 100 100 100 99 100 49 71 80 96 100 92 99
8 5 5 5 28 46 49 70 80 36 17 84 24 32 41 22 53 56 72 5 20 100 8 5 5 5 5 18 95 100 100 100 100 100 98 100 79 92 93 100 93 100 36
10 5 20 55 79 89 66 64 32 5 22 5 30 57 89 100 100 100 91 24 52 98 100 84 97 91 100 100 100 100 100 100 100 100 100 99 100 100 100 100 99 99 88
5 28 69 55 6 6 5 5 33 12 5 5 5 22 59 5 39 73 99 99 100 100 94 100 100 100 100 100 100 100 100 100 100 100 100 100 100 100 100 93 97 97 95
43 36 9 5 5 5 5 5 24 23 5 5 6 5 51 76 10 5 5 9 7 84 100 100 98 100 100 100 100 100 100 100 100 100 100 100 100 100 100 100 100 100 100
96 91 82 71 23 5 19 5 9 61 94 100 99 83 68 63 68 56 51 22 5 11 66 100 100 100 100 100 100 100 100 100 100 100 100 100 100 100 100 99 100 100 99
100 94 92 57 65 39 5 5 5 10 33 76 88 93 99 72 73 90 76 9 84 83 76 100 100 100 99 93 100 100 100 100 100 100 100 100 100 100 100 99 100 100 98
100 100 100 76 69 19 14 29 60 38 34 34 42 6 37 50 76 89 96 100 100 100 98 99 99 100 100 100 100 100 100 100 100 100 100 100 100 100 100 100 94 72 52
100 96 77 49 26 52 72 86 84 46 61 78 72 95 80 72 96 99 100 100 100 100 100 100 94 97 100 100 100 100 100 100 100 100 100 100 100 100 100 100 95 100 88
88 65 73 80 71 86 76 81 91 69 95 97 90 92 88 100 100 100 100 100 100 100 100 100 100 100 100 100 100 100 100 100 100 100 100 100 100 100 100 100 100 100 96
99 96 93 86 78 99 100 100 88 99 94 99 77 74 74 100 100 100 100 100 100 100 100 100 100 100 100 100 100 100 100 100 100 100 100 100 100 100 100 100 100 100 99
100 100 90 89 100 100 100 98 100 70 98 92 92 100 100 100 100 100 100 100 100 100 100 100 100 100 100 100 100 100 100 100 100 100 100 100 100 100 100 100 100 100 100
100 100 100 100 100 100 100 100 55 8 55 77 99 99 100 100 100 100 100 100 100 100 100 100 100 100 100 100 100 100 100 100 100 100 100 100 100 100 100 100 100 100 97
100 100 100 100 100 100 98 74 68 72 82 94 96 100 100 100 100 100 100 100 100 100 100 100 100 100 100 100 100 100 100 100 100 100 100 100 100 100 100 100 100 100 97
100 100 100 100 94 98 100 88 78 88 96 98 100 100 100 100 100 100 100 100 100 100 100 100 100 100 100 100 100 100 100 100 100 100 100 100 100 100 100 100 100 100 100

GFSGL_prec_cloud_042.txt.gz
Cloud_Cover
52 98 100 100 100 100 100 100 100 100 100 100 100 99 95 100 91 100 100 100 99 96 100 96 98 91 100 100 100 100 99 92 86 80 66 83 91 97 60 5 5 0 0
23 43 89 100 100 100 100 100 100 100 100 100 100 74 99 100 98 95 100 100 100 100 100 61 100 100 100 100 100 100 100 100 100 61 63 22 95 95 5 5 5 0 0
18 30 61 98 100 100 100 100 100 100 100 100 100 100 100 100 100 100 100 100 100 100 100 100 100 100 100 100 100 100 100 100 100 100 70 96 73 16 46 19 5 0 0
5 3 12 51 97 100 100 100 100 100 100 100 100 100 100 100 100 100 100 100 100 100 100 100 100 100 100 100 100 100 100 100 100 100 100 94 36 55 50 13 3 0 0
52 3 10 46 73 63 50 15 64 86 71 95 94 100 100 100 100 100 96 84 100 100 100 100 100 100 100 100 100 100 100 100 100 100 99 97 51 78 43 10 0 2 1
5 5 5 5 5 5 24 50 55 80 80 100 100 100 100 94 87 98 93 100 100 100 100 100 100 100 100 100 95 83 100 63 98 100 100 100 72 65 66 5 3 5 4
1 5 6 5 5 19 68 91 100 100 100 100 100 88 100 99 100 100 100 100 100 100 97 98 100 100 74 78 72 95 65 5 5 22 52 76 84 55 57 4 5 5 5
0 0 3 5 5 5 5 22 71 94 94 100 97 100 100 93 93 100 70 85 79 90 37 19 85 90 83 40 64 65 95 84 44 5 5 5 18 44 5 5 8 32 40
5 5 22 18 36 51 73 96 83 99 100 99 100 100 100 100 74 65 48 42 24 23 5 23 48 37 10 14 6 53 87 79 100 14 8 5 5 5 5 5 6 91 91
72 64 62 93 100 100 100 100 100 100 96 32 30 11 10 41 20 5 6 5 5 5 14 39 5 17 15 5 13 96 87 66 90 100 21 10 55 58 5 8 41 100 100
73 93 99 100 100 98 96 95 84 20 6 5 5 6 7 5 20 24 9 5 5 11 50 22 80 83 5 2 5 98 70 66 95 71 100 100 99 87 100 100 100 100 100
82 81 87 97 99 100 94 88 57 33 14 6 10 20 8 5 50 79 86 14 13 89 82 28 75 78 64 14 48 5 20 100 100 100 100 100 100 100 100 100 100 100 100
99 100 100 90 66 62 14 5 5 6 14 28 39 54 6 30 15 5 6 84 83 17 71 10 34 100 100 97 31 86 93 100 98 100 100 96 100 100 100 100 100 100 100
56 37 26 5 5 5 5 5 5 6 9 9 58 78 5 5 18 86 49 32 9 5 5 60 25 77 100 98 100 87 100 98 100 99 100 100 100 100 100 100 100 100 100
92 63 28 14 5 5 5 5 5 5 26 8 7 5 32 80 92 88 85 79 50 14 42 5 5 5 90 65 100 99 100 100 100 98 100 100 100 100 100 100 100 100 100
5 6 5 5 5 7 5 5 5 5 5 5 5 24 85 91 73 59 92 94 40 11 72 56 6 5 5 32 100 100 100 100 100 100 100 100 100 100 100 100 100 100 100
5 5 31 29 5 33 64 5 5 5 5 8 5 54 92 81 19 40 74 57 16 30 100 100 100 97 97 90 100 100 100 100 100 100 100 100 100 100 100 100 100 100 100
82 78 75 69 55 16 5 8 12 41 14 5 12 5 5 25 10 62 81 16 58 88 100 100 100 100 86 94 100 100 100 100 92 100 100 100 100 100 100 100 100 100 100
82 98 70 11 5 5 8 37 28 5 5 5 5 5 17 5 80 97 100 100 100 100 100 100 100 100 100 99 100 97 100 100 100 100 100 100 100 100 100 100 100 100 93
76 99 100 100 46 44 55 20 5 5 26 9 5 80 54 7 92 100 100 100 100 100 100 100 100 100 100 100 100 100 100 100 100 100 100 100 100 100 100 100 100 100 96
100 100 100 100 99 100 65 54 65 92 93 52 80 100 77 89 100 100 100 100 100 100 100 100 100 100 100 100 100 100 100 100 100 100 100 100 100 100 100 100 100 100 100
100 100 94 100 100 94 100 100 100 100 80 95 100 99 84 100 100 100 100 100 100 100 100 100 100 100 100 100 100 100 100 100 100 100 100 100 100 100 100 100 100 100 100
100 100 100 100 100 100 100 100 100 100 100 100 100 100 100 100 100 100 100 100 100 100 100 100 100 100 100 100 100 100 100 100 100 100 100 100 100 100 100 100 100 100 100
100 100 100 100 100 100 100 100 100 100 100 100 100 100 100 100 100 100 100 100 100 100 100 100 100 100 100 100 100 100 100 100 100 100 100 100 100 100 100 100 100 100 100
100 100 100 100 100 100 100 100 100 100 100 100 100 100 100 100 100 100 100 100 100 100 100 100 100 100 100 100 100 100 100 100 100 100 100 100 100 100 100 100 100 100 100
100 100 100 100 100 100 100 100 100 100 100 100 100 100 100 100 100 100 100 100 100 100 100 100 100 100 100 100 100 100 100 100 100 100 100 100 100 100 100 100 100 100 100

GFSGL_prec_cloud_045.txt.gz
Cloud_Cover
24 38 36 28 84 100 100 100 100 100 100 100 100 100 100 100 100 100 100 100 99 100 97 100 100 100 100 100 100 100 100 99 89 72 99 100 92 81 72 47 70 48 27
100 26 100 50 87 100 100 100 100 100 100 100 100 100 100 100 100 100 100 100 100 100 100 100 100 89 99 100 100 100 100 100 88 97 100 99 57 27 50 45 6 66 48
98 100 100 95 100 100 100 100 100 100 100 100 100 100 100 100 100 100 100 100 100 100 100 100 99 100 100 100 100 98 88 100 100 92 12 71 73 41 83 48 55 89 23
76 99 100 100 100 100 100 100 100 100 100 100 100 100 100 100 100 100 100 100 89 97 100 100 100 100 100 100 100 100 100 46 77 60 53 60 85 74 74 22 10 94 95
46 88 100 100 100 100 100 100 100 91 93 98 100 100 100 100 100 100 100 61 77 100 100 100 100 89 84 100 100 85 21 19 25 96 66 94 89 100 99 98 75 35 7
43 47 40 17 7 12 9 6 16 38 46 77 100 100 100 100 100 99 43 88 100 100 100 78 82 6 72 55 57 20 5 5 5 5 5 61 95 100 100 100 92 100 4
2 2 1 1 1 2 2 3 5 14 45 100 97 91 90 100 76 59 100 100 100 100 78 16 5 51 5 12 5 16 5 5 6 43 96 87 30 93 98 54 97 91 5
5 5 5 5 5 5 8 6 50 81 99 100 90 98 100 100 100 89 76 76 49 7 5 5 16 49 62 5 5 10 10 5 5 32 5 5 5 95 80 94 45 5 5
5 15 48 79 94 98 100 91 72 98 96 100 100 100 100 56 21 5 24 5 5 23 99 99 74 6 5 5 5 5 4 1 5 97 34 66 68 84 100 100 37 23 5
5 5 5 15 44 72 88 99 100 100 94 56 64 88 35 5 5 5 5 9 13 38 52 50 11 11 9 81 99 11 5 5 5 5 100 100 48 98 100 100 100 51 87
36 63 74 87 98 100 100 78 46 49 87 90 54 10 5 6 8 7 6 8 73 88 98 16 19 5 69 91 100 100 90 31 5 5 54 100 76 90 96 64 100 100 100
100 99 88 82 84 82 83 87 100 89 33 52 32 5 6 12 80 56 44 43 9 5 51 5 5 10 44 5 5 39 100 100 92 13 81 95 100 93 100 100 82 100 93
100 100 100 100 84 99 100 89 68 31 7 5 5 5 22 6 18 17 6 5 5 5 5 4 0 0 5 5 21 33 100 100 100 100 100 100 100 42 100 100 100 100 100
38 24 7 86 96 44 16 5 5 5 5 5 5 5 5 5 6 32 5 5 5 5 5 5 5 5 5 5 5 7 54 100 100 100 97 100 100 100 100 99 100 100 83
46 38 97 87 6 5 62 75 5 26 73 50 5 27 18 8 67 43 27 7 5 5 5 5 67 97 91 32 7 5 13 75 100 100 93 99 100 88 100 100 100 100 99
98 77 9 5 6 10 14 46 56 52 22 11 36 51 12 51 5 5 26 59 8 5 9 70 37 74 72 88 98 92 97 98 100 100 100 100 79 98 100 100 100 100 100
69 76 74 84 97 79 13 16 10 64 66 99 97 80 12 5 8 35 70 32 5 17 88 96 100 100 100 99 82 92 100 100 99 100 100 100 86 100 100 100 100 100 100
97 99 75 91 100 100 100 84 78 98 100 100 98 12 13 26 17 23 62 7 74 91 100 100 100 100 100 100 100 100 67 98 100 84 98 74 82 100 98 100 100 100 100
100 100 100 81 99 100 100 100 100 100 100 100 96 71 78 74 100 72 86 100 100 100 100 100 100 100 100 100 100 100 100 100 100 100 100 100 100 100 99 100 100 100 100
100 100 100 100 100 100 100 100 100 100 100 100 99 100 100 100 90 100 100 100 100 100 100 100 100 100 100 100 100 100 99 100 100 100 100 100 100 95 87 100 100 100 100
100 100 100 100 100 100 100 100 100 100 100 100 100 100 100 93 100 100 100 100 100 100 100 100 100 100 100 100 100 100 96 100 100 100 100 100 100 96 98 100 100 100 100
100 100 100 100 100 100 100 100 100 100 100 100 100 100 88 100 100 100 100 100 100 100 100 100 100 100 100 100 100 100 100 100 100 100 100 100 100 100 93 100 100 100 100
100 100 100 100 100 100 100 100 100 100 100 100 100 100 100 100 100 100 100 100 100 100 100 100 100 100 100 100 100 100 100 100 100 100 100 100 100 100 100 100 100 100 100
100 100 100 100 100 100 100 100 100 100 100 100 100 100 100 100 100 100 100 100 100 100 100 100 100 100 100 100 100 100 100 100 100 100 100 100 100 100 100 100 100 100 100
100 100 100 100 100 100 100 100 100 100 100 100 100 100 100 100 100 100 100 100 100 100 100 100 100 100 100 100 100 100 100 100 100 100 100 100 100 100 100 100 100 100 100
100 100 100 100 100 100 100 100 100 100 100 100 100 100 100 100 100 100 100 100 100 100 100 100 100 100 100 100 100 100 100 100 100 100 100 100 100 100 100 100 100 100 100

GFSGL_prec_cloud_048.txt.gz
Cloud_Cover
88 84 72 98 41 28 93 100 100 100 100 100 100 100 100 100 100 100 100 100 100 100 100 99 100 100 100 93 8 64 80 20 54 5 5 7 9 26 98 100 96 5 1
100 100 77 76 64 34 58 82 100 100 100 100 100 100 100 100 100 100 100 100 100 100 100 100 99 94 24 49 99 95 76 100 98 5 5 5 5 5 5 5 5 5 1
8 26 100 97 100 100 100 100 100 100 100 100 100 100 100 100 100 100 100 100 100 100 100 98 79 100 100 100 95 100 99 100 89 86 8 5 5 30 5 5 5 5 5
80 18 76 100 100 100 100 100 100 100 100 100 100 100 100 100 100 100 100 100 100 100 100 80 100 100 100 99 84 71 28 39 81 100 98 10 20 27 43 77 38 5 5
60 54 64 81 100 100 100 100 100 100 100 100 100 100 100 100 100 100 100 100 100 90 54 97 100 84 7 6 5 5 7 14 42 72 31 91 85 100 100 100 100 71 76
5 60 100 100 100 100 100 100 100 51 30 27 95 65 58 28 99 100 100 100 100 100 100 100 71 5 5 5 5 5 5 5 5 5 5 5 5 5 94 99 87 36 40
61 85 68 57 23 18 23 13 24 5 5 5 27 60 59 79 73 34 72 100 100 100 94 12 5 5 5 5 5 5 5 5 32 94 97 53 10 24 100 100 100 98 45
5 4 5 5 9 23 26 23 21 32 37 48 18 29 88 100 89 100 100 68 44 38 7 5 5 5 5 5 5 5 5 5 5 5 7 17 59 48 100 100 100 88 91
83 61 5 5 5 5 5 9 5 10 70 92 99 37 95 100 55 10 24 88 33 5 5 6 26 6 5 5 5 5 5 5 5 4 4 6 4 5 98 100 100 100 10
1 5 6 9 42 26 82 100 70 93 67 56 100 100 18 5 68 100 94 6 44 93 100 100 53 100 82 24 28 73 98 96 99 100 64 36 1 5 42 99 100 84 98
0 5 11 100 96 84 61 46 57 87 99 100 96 57 33 100 98 72 46 26 83 100 65 44 100 91 47 41 37 38 19 5 30 99 98 93 95 100 60 62 100 100 100
5 6 22 12 13 20 60 65 56 100 99 71 22 84 100 90 62 37 42 23 5 30 22 100 100 90 38 6 35 5 5 6 86 100 100 100 52 100 100 99 100 100 100
38 10 21 80 100 100 75 96 100 84 56 67 66 40 16 13 45 78 64 71 97 97 99 100 93 52 25 35 56 42 22 9 31 100 90 100 98 89 100 100 100 100 83
60 100 100 100 89 44 95 79 44 5 7 7 7 71 19 5 5 13 54 91 96 100 100 95 58 44 48 100 67 7 94 100 100 77 98 100 100 87 88 100 100 94 100
100 100 100 85 68 67 84 57 6 5 26 100 92 65 66 43 89 13 51 86 100 100 72 10 31 86 100 84 8 20 74 53 85 95 100 100 98 73 66 100 96 99 86
84 100 100 33 57 62 55 50 95 100 100 100 98 80 69 91 55 12 94 100 100 52 5 26 50 100 75 5 65 92 75 92 96 80 100 100 100 100 100 99 99 86 78
98 99 94 100 100 100 98 100 100 100 100 100 100 95 98 93 42 100 100 100 88 54 88 94 100 93 5 70 100 100 100 100 98 97 100 100 100 100 100 100 93 100 97
98 99 96 100 100 100 100 100 100 100 100 100 100 100 100 100 100 100 100 100 100 100 100 100 95 23 32 93 75 100 100 96 100 100 100 100 100 98 87 98 100 98 98
100 100 100 100 100 100 100 100 100 100 100 100 100 100 100 100 100 100 100 100 100 100 100 100 88 70 93 100 100 100 100 100 100 100 100 100 100 100 100 100 100 100 100
100 100 100 100 100 100 100 100 100 100 100 100 100 100 100 100 100 100 100 100 100 100 100 89 40 90 97 100 100 100 100 99 100 100 100 100 100 100 94 98 100 99 100
100 100 100 100 100 100 100 100 100 100 100 100 100 100 100 100 100 100 100 100 100 100 70 100 99 93 100 100 100 94 99 100 100 100 100 100 100 100 100 100 100 100 100
100 100 100 100 100 100 100 100 100 100 100 100 100 100 100 100 100 100 100 100 98 67 100 94 88 100 100 100 87 93 100 100 100 100 100 100 100 100 100 100 100 100 100
100 100 100 100 100 100 100 100 100 100 100 100 100 100 100 100 100 100 100 98 93 98 76 100 100 100 62 8 95 100 100 100 100 100 100 100 100 100 100 100 100 100 100
100 100 100 100 100 100 100 100 100 100 100 100 100 100 100 100 100 100 100 97 74 86 60 99 90 6 47 100 99 99 100 100 100 100 98 100 100 100 100 100 100 100 100
100 100 100 100 100 100 100 100 100 100 100 100 100 100 100 100 100 100 92 96 84 50 98 27 11 99 96 92 76 94 100 100 100 100 100 100 100 100 100 100 100 100 100
100 100 100 100 100 100 100 100 100 100 100 100 100 100 99 100 100 98 98 82 96 94 6 55 90 90 75 96 100 100 100 100 100 100 100 100 100 100 100 100 100 100 100

GFSGL_prec_cloud_051.txt.gz
Cloud_Cover
100 100 98 62 100 100 100 100 100 100 99 28 43 81 99 100 100 100 100 100 100 100 100 100 100 100 100 100 100 82 87 59 16 5 5 5 5 5 1 4 4 39 5
100 100 100 100 100 100 100 100 100 100 100 100 88 77 100 100 100 100 100 100 100 100 100 100 100 100 87 93 83 68 32 35 92 13 5 5 5 5 5 6 5 5 5
100 100 100 100 100 100 100 100 100 100 98 100 100 100 100 100 100 98 100 100 100 100 100 100 100 100 73 49 100 100 100 100 100 97 8 5 5 97 100 100 79 98 100
100 100 100 100 78 89 94 100 100 100 100 100 100 100 100 100 100 100 100 100 100 100 100 100 100 96 92 100 21 5 9 14 6 5 23 25 53 42 93 34 71 82 35
7 26 67 69 67 70 100 100 100 100 100 100 100 100 100 100 100 100 100 100 100 89 100 100 73 84 70 7 7 5 5 5 5 50 5 95 6 5 12 22 16 100 100
36 64 48 44 100 89 100 100 100 100 100 100 100 100 100 100 100 100 100 98 100 100 58 76 100 25 5 5 30 5 5 32 99 88 13 71 18 38 7 24 100 100 100
5 48 68 73 100 100 100 100 100 100 100 94 79 53 77 87 63 87 26 43 33 92 92 67 22 32 53 62 5 29 99 100 100 98 100 59 45 20 99 41 38 96 98
14 58 55 60 57 100 100 100 64 5 5 5 5 6 13 58 44 9 61 79 38 15 86 5 41 11 14 13 37 64 93 90 78 100 64 66 28 17 15 5 8 26 84
21 85 62 9 7 35 36 8 3 5 5 6 40 43 95 100 100 57 12 14 63 64 100 58 5 72 5 52 14 29 63 100 100 59 62 9 22 59 52 99 78 84 94
0 4 9 90 2 2 4 5 5 8 19 8 48 30 7 9 5 6 5 45 22 52 12 5 5 47 100 81 17 80 100 94 16 31 34 23 100 46 12 40 100 100 98
5 5 1 5 5 5 7 13 5 37 5 6 5 24 34 33 67 32 5 21 30 87 81 84 64 97 88 6 99 100 70 39 70 36 15 99 9 37 17 98 100 90 100
5 5 4 5 5 6 8 21 44 57 51 5 40 39 66 47 7 44 35 72 73 99 100 81 98 100 92 98 100 100 22 70 70 79 100 66 57 6 5 13 84 73 100
5 47 69 5 9 14 6 83 98 50 54 39 68 64 45 80 99 83 90 95 100 100 99 95 77 95 100 100 100 88 65 80 100 100 93 29 96 99 97 97 100 100 100
48 14 24 5 5 32 63 97 100 90 99 100 100 100 100 95 100 100 100 100 100 100 100 100 95 99 100 100 100 100 100 100 100 100 100 87 81 92 100 100 100 100 92
78 65 73 27 35 97 100 100 98 100 86 96 100 100 95 95 92 99 100 100 100 100 100 100 100 100 100 100 100 100 100 100 99 99 98 100 95 100 99 97 97 96 100
100 100 92 99 98 100 100 100 100 100 100 100 100 100 100 100 100 100 100 100 100 100 100 100 100 100 100 100 100 100 100 95 52 99 100 100 100 100 100 100 100 90 100
100 100 100 100 100 100 100 100 100 100 100 100 100 100 100 100 100 97 100 100 100 100 100 100 100 100 100 100 100 100 99 93 76 95 100 100 100 100 100 94 100 100 100
100 100 100 100 100 100 100 100 100 100 100 100 100 100 100 100 100 100 100 100 100 100 100 100 100 100 100 100 100 98 100 99 99 93 90 100 100 100 100 99 99 81 92
100 100 100 100 100 100 100 100 100 100 100 100 100 100 100 100 100 100 100 100 100 100 100 100 100 100 100 100 99 64 77 58 88 29 76 100 100 100 100 100 100 98 100
100 100 100 100 100 100 100 100 100 100 100 100 100 100 100 100 100 100 100 100 100 100 100 100 100 100 100 100 69 96 5 34 100 84 100 100 100 100 100 100 100 100 100
100 100 100 100 100 100 100 100 100 100 100 100 100 100 100 100 100 100 100 100 100 100 100 100 100 100 92 62 99 32 7 100 75 100 100 75 100 100 100 100 100 100 100
100 100 100 100 100 100 100 100 100 100 100 100 100 100 100 100 100 100 100 100 100 100 100 100 99 65 96 71 12 19 100 100 99 88 98 100 100 100 100 100 100 100 100
100 100 100 100 100 100 100 100 100 100 100 100 100 100 100 100 100 100 100 100 100 100 100 72 92 66 5 8 68 100 98 87 99 100 100 100 100 100 100 100 100 100 96
100 100 100 100 100 100 100 100 100 100 100 100 100 100 100 100 100 100 100 100 100 100 67 33 11 11 79 76 12 30 100 100 100 100 94 100 100 100 100 100 100 100 100
100 100 100 100 100 100 100 100 100 100 100 100 100 100 100 100 100 100 100 100 50 97 42 5 5 18 5 5 6 72 100 100 100 99 100 100 100 100 100 100 100 100 100
100 100 100 100 100 100 100 100 100 100 100 100 100 100 100 100 100 96 37 33 92 84 49 5 5 5 5 43 99 97 100 96 100 100 100 100 100 100 100 100 100 100 100

GFSGL_prec_cloud_054.txt.gz
Cloud_Cover
100 100 98 52 100 100 100 100 100 100 100 100 100 100 40 41 66 79 100 100 100 100 100 100 100 100 100 100 100 90 100 88 100 100 98 26 15 5 10 44 23 5 6
100 100 100 100 100 100 100 100 100 100 100 100 100 88 65 100 100 100 100 100 100 100 100 100 98 100 100 100 100 100 8 84 77 27 23 8 5 5 11 53 100 91 99
100 91 100 100 98 100 100 100 100 100 100 100 100 100 100 100 100 100 100 100 100 84 84 100 100 100 100 100 100 73 83 67 13 22 78 7 5 57 9 5 6 91 6
100 100 100 89 85 100 100 100 100 100 100 100 100 100 100 100 100 100 100 100 100 88 99 100 100 100 100 97 82 13 5 91 63 6 5 5 5 5 5 5 5 5 5
5 20 97 100 100 100 100 100 100 100 100 100 100 100 100 100 100 100 100 100 76 100 100 100 100 100 96 96 53 51 94 73 18 10 5 21 5 5 36 80 100 5 5
91 100 100 100 100 100 100 100 100 100 100 100 100 100 100 100 100 100 91 100 100 100 100 100 100 100 100 89 5 8 5 5 5 5 5 5 5 5 50 80 100 85 30
100 100 100 100 100 100 100 100 100 100 100 100 100 100 100 100 100 100 100 100 100 100 100 96 100 100 64 65 73 96 41 82 42 30 6 8 12 51 100 100 100 100 71
97 100 100 100 100 100 100 81 98 100 100 100 100 100 100 100 100 98 95 65 34 6 25 21 38 18 85 99 80 100 100 97 91 100 88 87 100 100 88 50 10 76 100
100 100 100 100 100 100 100 100 100 99 100 100 80 29 10 5 5 6 8 36 5 8 14 9 14 27 64 6 61 9 83 100 100 100 100 100 100 100 100 16 99 100 93
50 83 98 99 99 45 73 64 21 5 4 5 5 53 46 37 100 100 98 47 8 5 7 7 19 26 17 66 46 16 100 100 99 100 100 100 100 100 100 100 100 100 97
40 100 100 100 34 24 26 5 5 5 5 5 5 74 98 98 86 45 48 94 36 92 75 50 53 62 69 92 74 86 100 100 100 99 99 100 100 100 100 100 100 100 100
82 100 100 72 100 39 7 5 5 5 5 52 94 48 57 12 6 5 66 61 52 94 100 100 100 100 98 87 84 100 100 100 100 89 100 100 100 100 100 100 94 100 100
100 100 94 24 62 85 60 5 47 69 53 35 6 19 21 10 46 86 100 100 100 100 100 100 100 100 100 100 100 100 100 100 95 100 100 100 100 100 100 96 100 98 100
100 100 100 84 68 73 97 100 100 67 10 9 5 46 59 100 100 100 100 100 100 100 100 100 100 100 100 100 100 100 100 100 100 100 100 100 100 100 100 90 100 98 100
100 100 100 100 100 96 91 42 78 100 100 74 100 100 100 100 100 100 100 100 100 100 100 98 100 100 100 100 100 100 100 100 100 100 100 100 100 100 100 73 100 100 91
100 100 100 100 100 100 100 100 100 100 100 100 100 100 100 100 100 100 100 100 100 100 100 100 100 100 100 100 100 100 100 100 100 100 100 100 100 100 100 90 100 100 100
100 100 100 100 100 100 100 100 100 100 100 100 100 100 100 100 100 100 100 100 100 100 100 100 100 100 100 100 100 100 100 100 100 100 100 100 100 100 100 100 95 100 100
100 100 100 100 100 100 100 100 100 100 100 100 100 100 100 100 100 100 100 100 100 100 100 100 100 100 100 100 100 100 100 100 100 100 100 76 99 91 100 100 100 100 100
100 100 100 100 100 100 100 100 100 100 100 100 100 100 100 100 100 100 100 100 100 100 100 100 100 100 100 100 100 100 100 100 100 100 52 100 26 88 100 100 100 100 100
100 100 100 100 100 100 100 100 100 100 100 100 100 100 100 100 100 100 100 100 100 100 100 100 100 100 100 100 100 100 100 100 100 96 99 72 34 100 100 100 100 100 100
100 100 100 100 100 100 100 100 100 100 100 100 100 100 100 100 100 100 100 100 100 100 100 100 100 100 100 100 100 100 100 84 97 33 72 98 100 100 100 100 100 100 100
100 100 100 100 100 100 100 100 100 100 100 100 100 100 100 100 100 100 100 100 100 100 100 100 100 100 100 100 95 100 100 80 16 68 98 100 100 100 100 100 100 100 100
100 100 100 100 100 100 100 100 100 100 100 100 100 100 100 100 100 100 100 100 100 100 100 100 100 100 33 11 63 78 94 98 100 100 100 100 100 100 100 100 100 100 100
100 100 100 100 100 100 100 100 100 100 100 100 100 100 100 100 100 100 100 100 100 100 98 55 14 9 7 9 27 20 84 100 100 100 100 100 100 100 100 100 100 100 100
100 100 100 100 100 100 100 100 100 100 100 100 100 100 100 100 100 100 100 100 94 75 13 5 25 5 5 5 5 46 99 100 97 93 100 100 100 100 100 100 100 100 100
100 100 100 100 100 100 100 100 100 100 100 100 100 99 100 100 100 98 94 62 12 34 39 5 13 5 5 5 41 98 98 78 91 100 100 100 100 100 100 100 97 100 100

GFSGL_prec_cloud_057.txt.gz
Cloud_Cover
100 100 100 81 80 96 91 86 100 100 100 100 100 100 100 100 100 100 49 58 72 100 100 100 100 100 100 99 78 100 100 100 100 100 98 99 15 6 15 8 19 20 5
99 85 100 100 77 99 100 100 100 100 100 100 100 100 100 100 100 100 100 100 100 100 100 100 100 100 100 99 100 100 100 100 72 94 81 5 29 85 83 30 5 5 27
100 100 95 99 100 32 98 100 100 100 100 100 100 100 100 100 100 100 100 100 100 100 100 100 100 98 86 100 100 100 100 100 41 86 100 74 94 64 85 21 43 33 15
2 92 100 100 100 100 100 100 100 100 100 100 100 100 100 100 100 100 100 100 100 100 100 100 100 99 98 100 100 100 92 45 96 97 100 100 100 55 29 11 11 10 50
0 0 8 33 73 100 100 100 100 100 100 100 100 100 100 100 100 100 100 100 100 100 100 100 100 100 100 100 100 91 84 42 88 72 16 6 89 69 97 66 5 9 100
0 20 54 78 100 100 100 100 100 100 100 100 100 100 100 100 100 100 100 100 100 100 74 94 100 100 100 100 95 100 41 42 8 6 61 76 54 82 52 8 43 87 100
11 5 6 83 99 100 100 100 100 100 100 100 100 100 100 100 100 100 100 100 100 100 100 100 100 100 100 100 96 35 13 28 35 50 42 78 65 73 67 11 36 100 100
20 59 80 94 79 100 100 100 100 100 100 100 100 100 100 100 100 100 100 100 100 100 100 100 100 100 100 75 75 98 95 81 67 12 22 44 42 30 93 52 15 100 100
94 95 99 100 100 100 100 100 100 100 100 100 100 100 100 100 100 100 100 100 100 100 100 99 98 90 43 18 78 95 100 100 100 100 100 100 100 100 100 93 100 100 100
100 100 100 100 100 100 100 100 100 100 100 100 100 100 100 100 100 100 100 99 91 64 26 12 92 79 98 100 99 100 100 100 100 100 100 100 100 100 100 100 100 100 100
100 100 100 100 100 100 100 100 100 100 100 100 100 100 98 92 88 100 100 100 91 50 13 55 100 100 100 100 97 100 90 100 100 100 93 95 100 100 100 100 100 100 100
75 100 100 100 100 100 100 100 100 100 100 100 85 100 94 99 100 100 100 100 57 60 100 100 100 95 100 100 100 100 100 100 100 100 42 67 100 100 100 100 100 100 100
85 100 100 100 100 100 100 100 100 100 100 100 87 100 100 100 100 100 100 43 96 88 100 99 100 100 100 100 100 100 100 100 100 78 99 100 100 100 100 100 100 100 100
74 78 99 100 100 100 100 100 100 100 100 100 100 100 100 100 100 100 100 100 100 100 100 100 100 100 100 100 100 100 100 100 100 100 89 100 100 100 100 100 100 100 99
97 100 100 100 100 100 100 100 100 100 100 100 100 100 100 100 100 100 100 100 100 100 100 100 100 100 100 100 100 100 100 100 100 92 100 100 100 100 100 100 100 100 100
100 100 100 100 100 100 100 100 100 100 100 100 100 100 100 100 100 100 100 100 100 100 100 100 100 100 100 100 100 100 100 100 100 100 100 100 100 100 100 100 98 100 100
100 100 100 100 100 100 100 100 100 100 100 100 100 100 100 100 100 100 100 100 100 100 100 100 100 100 100 100 100 100 100 100 100 100 100 100 100 100 100 99 100 100 100
100 100 100 100 100 100 100 100 100 100 100 100 100 100 100 100 100 100 100 100 100 100 100 100 100 100 100 100 100 100 100 100 100 100 100 100 100 100 100 100 100 100 100
100 100 100 100 100 100 100 100 100 100 100 100 100 100 100 100 100 100 100 100 100 100 100 100 100 100 100 100 100 100 100 100 100 100 100 98 94 98 100 100 100 100 100
100 100 100 100 100 100 100 100 100 100 100 100 100 100 100 100 100 100 100 100 100 100 100 100 100 100 100 100 100 100 100 100 100 100 89 81 92 89 100 100 100 100 100
100 100 100 100 100 100 100 100 100 100 100 100 100 100 100 100 100 100 100 100 100 100 100 100 100 100 100 100 100 100 100 100 76 71 57 89 83 100 100 100 100 100 100
100 100 100 100 100 100 100 100 100 100 100 100 100 95 100 100 100 100 100 100 100 100 100 100 100 100 100 100 100 100 100 100 84 38 90 92 100 100 100 100 100 100 100
100 100 100 100 100 100 100 100 100 100 100 100 100 100 96 100 100 100 100 100 100 100 100 100 100 100 100 100 86 67 100 95 94 100 100 100 100 100 100 100 100 100 100
100 100 100 100 100 100 91 94 100 98 98 87 100 100 100 100 100 100 100 100 100 100 100 100 100 98 33 22 28 20 59 98 100 100 100 100 100 100 100 100 100 100 100
100 100 100 100 100 100 100 100 98 89 100 100 100 100 100 100 100 100 100 100 100 100 98 98 84 7 5 5 5 5 81 100 92 99 100 100 100 100 100 100 100 100 100
100 100 100 100 100 100 99 100 100 100 100 100 100 100 100 100 94 99 100 97 70 5 5 5 13 5 5 5 14 92 96 90 86 100 100 100 100 100 100 100 99 100 100

GFSGL_prec_cloud_060.txt.gz
Cloud_Cover
5 28 98 100 100 99 100 89 100 96 96 86 88 99 92 100 100 100 100 100 100 98 100 88 96 100 100 100 100 94 83 88 100 100 100 100 100 100 100 100 100 100 100
86 42 69 80 92 100 100 62 79 99 96 100 67 100 100 100 100 100 100 100 100 100 100 100 100 100 100 80 98 100 100 70 84 99 100 100 99 78 42 93 100 74 86
90 100 100 100 100 96 70 80 48 81 89 99 100 100 100 100 100 100 100 100 100 100 100 100 100 100 100 100 86 100 100 100 89 100 100 74 66 100 100 53 88 96 92
0 0 8 75 74 91 91 56 97 87 100 100 100 100 100 100 100 100 100 100 100 100 100 100 100 100 100 100 100 100 100 99 100 100 48 43 89 57 66 98 87 100 94
0 0 0 0 2 18 70 50 100 100 100 100 100 100 100 100 100 100 100 100 100 100 100 100 100 100 100 100 100 99 100 100 100 100 67 95 73 83 79 20 10 32 100
0 0 0 0 0 0 0 14 100 100 100 100 100 100 100 100 98 92 100 100 100 100 100 100 100 100 100 100 100 100 100 100 100 98 97 97 100 94 52 50 7 22 100
1 0 0 0 3 2 12 52 99 98 100 100 100 100 100 100 100 100 100 100 100 100 100 100 100 100 100 100 100 100 100 100 100 100 100 100 94 99 58 24 45 88 100
96 9 5 5 5 33 91 96 100 100 100 100 100 100 100 100 100 100 100 100 100 100 100 100 100 100 100 100 100 100 100 100 100 79 92 100 96 92 76 96 100 100 100
30 85 61 26 77 100 100 100 100 100 100 100 100 100 100 100 100 100 100 100 100 100 100 100 100 100 100 100 100 100 92 94 87 71 72 100 96 67 49 100 100 100 92
17 76 97 100 100 100 100 100 100 100 100 100 100 100 100 100 100 100 100 100 100 100 100 100 100 100 100 100 99 100 100 100 100 100 100 100 100 100 100 100 100 100 90
100 100 100 100 100 100 100 100 100 100 100 100 100 100 100 100 100 100 100 100 100 100 100 100 100 100 98 89 100 100 100 100 100 100 100 100 100 100 100 100 100 100 99
100 100 100 100 100 100 100 100 100 100 100 100 100 100 100 100 100 100 100 100 100 100 100 100 100 99 95 100 99 100 100 100 100 100 100 100 100 100 100 100 100 100 100
100 100 100 100 100 100 100 100 100 100 100 100 100 100 100 100 100 100 100 100 100 100 100 100 100 100 100 100 100 100 100 100 100 100 100 100 100 100 100 100 100 100 100
100 100 100 100 100 100 100 100 100 100 100 100 100 100 100 100 100 100 100 100 100 100 100 100 100 100 100 100 100 100 100 100 100 100 100 100 100 100 100 100 100 100 93
100 100 100 100 100 100 100 100 100 100 100 100 100 100 100 100 100 100 100 100 100 100 100 100 100 100 100 100 100 100 100 100 100 100 100 100 100 100 100 100 100 86 100
100 100 100 100 100 100 100 100 100 100 100 100 100 100 100 100 100 100 100 100 100 100 100 100 100 100 100 100 100 100 100 100 100 100 100 100 99 100 100 100 100 100 100
100 100 100 88 82 100 100 100 100 100 100 100 100 100 100 100 100 100 100 100 100 100 100 100 100 100 100 100 100 100 100 100 100 100 100 100 100 100 100 100 100 100 100
100 100 100 100 100 100 100 100 100 100 100 100 100 100 100 100 100 100 100 100 100 100 100 100 100 100 100 100 100 100 100 100 100 100 100 100 100 100 100 100 100 100 100
100 100 100 100 100 100 100 100 100 100 100 100 100 100 100 100 100 100 100 100 100 100 100 100 100 100 100 100 100 100 100 100 100 100 100 100 100 100 100 100 100 99 98
100 100 100 100 100 100 100 100 100 100 100 100 100 100 100 100 100 100 100 100 100 100 100 100 100 100 100 100 100 100 100 100 100 100 100 100 100 100 100 100 100 100 100
100 100 100 100 100 100 100 100 100 100 100 100 100 100 100 100 100 100 100 100 100 100 100 100 100 100 100 100 100 100 100 100 100 100 100 100 99 100 99 100 100 100 100
100 100 100 100 100 100 100 100 100 100 100 100 100 100 100 100 100 100 99 95 100 100 100 100 100 100 100 100 100 100 96 100 100 90 99 80 98 100 100 100 100 100 100
100 100 100 100 100 100 100 100 100 100 100 100 100 100 98 83 82 93 90 85 94 94 87 76 93 99 95 46 57 44 100 99 85 100 100 100 100 100 100 100 100 100 100
100 100 100 100 100 100 100 100 100 100 100 99 92 100 100 89 80 96 99 77 59 45 55 71 27 5 5 5 5 26 65 90 100 100 100 100 100 100 100 100 100 100 100
100 100 100 100 100 100 100 100 99 98 100 100 99 100 100 100 82 58 100 64 17 7 7 5 30 5 5 5 5 5 34 100 100 100 100 100 100 100 100 100 100 100 100
100 100 100 100 100 100 99 100 93 90 100 100 100 100 100 85 82 100 65 45 32 5 8 5 13 5 5 5 13 58 97 77 87 100 100 100 100 100 100 100 100 100 100

GFSGL_prec_cloud_063.txt.gz
Cloud_Cover
0 1 41 41 81 83 74 95 30 50 53 79 24 14 67 100 100 87 56 100 100 100 100 100 100 100 100 100 100 100 100 87 87 75 100 99 100 80 100 96 87 38 87
5 5 5 40 48 100 100 100 100 92 96 56 68 87 100 76 100 100 100 100 100 100 100 100 100 100 100 100 100 100 100 59 95 100 100 100 75 100 100 67 31 77 67
96 100 69 10 5 42 9 74 80 76 8 73 99 88 90 68 100 100 100 100 100 100 100 100 100 100 100 99 100 100 100 99 100 95 100 100 100 100 88 92 94 40 94
0 1 6 61 99 85 40 60 100 77 30 53 96 93 77 100 100 100 100 100 100 100 100 100 100 100 100 100 100 100 100 100 100 100 100 100 100 100 100 100 98 99 90
0 0 0 0 0 4 28 68 24 58 28 88 98 100 41 48 68 99 100 100 100 100 100 100 100 100 100 100 100 100 100 100 100 100 100 100 100 100 97 100 100 71 100
5 2 0 0 0 0 0 0 0 0 4 2 37 100 100 100 100 100 100 100 100 100 100 100 100 100 100 100 100 100 100 100 100 100 100 100 100 100 100 77 30 75 85
11 5 0 5 1 0 0 0 0 1 12 19 90 100 100 100 100 100 100 100 100 100 100 100 100 100 100 100 100 100 100 100 100 100 100 97 98 100 57 99 86 75 84
100 82 7 5 5 2 6 5 28 73 82 98 100 100 100 100 100 100 100 100 100 100 100 100 100 100 100 100 100 100 100 100 100 100 100 100 100 99 99 82 100 74 87
100 100 94 62 97 2 46 90 97 99 100 100 100 100 100 100 100 100 100 100 100 100 100 100 100 100 100 100 100 100 100 100 100 100 100 100 100 97 97 98 73 49 90
10 99 100 45 100 100 100 100 100 100 100 100 100 100 100 100 100 100 100 100 100 100 100 100 100 100 100 100 100 100 100 100 100 100 100 100 100 100 100 100 100 100 100
99 100 100 100 82 100 100 100 100 100 100 100 100 100 100 100 100 100 100 100 100 100 100 100 100 100 100 100 100 100 100 100 100 100 100 100 100 100 100 100 100 100 100
100 100 100 100 100 100 100 100 100 100 100 100 100 100 100 100 100 100 100 100 100 100 100 100 100 100 100 100 100 100 100 100 100 100 100 100 100 100 100 100 100 100 100
100 100 100 100 100 100 100 100 100 100 100 100 100 100 100 100 100 100 100 100 100 100 100 100 100 100 100 100 100 100 100 100 100 100 100 100 100 100 100 100 100 100 100
100 100 100 100 100 100 100 100 100 100 100 100 100 100 100 100 100 100 100 100 100 100 100 100 100 100 100 100 100 100 100 100 100 100 100 100 100 100 100 100 100 100 100
100 100 100 100 100 100 100 100 100 100 100 100 100 100 100 100 100 100 100 100 100 100 100 100 100 100 100 100 100 100 100 100 100 100 100 100 100 100 100 100 100 100 100
100 100 100 100 100 100 100 100 100 100 100 100 100 100 100 100 100 100 100 100 100 100 100 100 100 100 100 100 100 100 100 100 100 100 100 100 100 100 100 100 100 100 100
100 100 100 100 100 100 100 100 100 100 100 100 100 100 100 100 100 100 100 100 100 100 100 100 100 100 100 100 100 100 100 100 100 100 100 100 100 100 100 100 100 100 100
100 100 100 100 100 100 100 100 100 100 100 100 100 100 100 100 100 100 100 100 100 100 100 100 100 100 100 100 100 100 100 100 100 100 100 100 100 100 100 100 100 100 100
100 100 100 100 100 100 100 100 100 100 100 100 100 100 100 100 100 100 100 100 100 100 100 100 100 100 100 100 100 100 100 100 100 100 100 100 100 100 100 100 100 100 100
100 100 100 100 100 100 100 100 100 100 100 100 100 100 100 100 100 100 100 100 100 100 100 100 100 100 100 100 100 100 100 100 100 100 100 100 100 100 100 100 100 100 100
100 100 100 100 100 100 100 100 100 100 100 100 100 100 100 100 100 100 100 100 100 100 100 100 100 100 100 100 100 100 100 100 100 100 100 100 100 100 100 100 100 100 100
100 100 100 100 100 100 100 100 100 100 100 100 100 100 100 100 100 100 100 100 100 100 100 100 100 100 100 100 100 100 100 100 100 100 100 100 100 100 100 100 100 100 100
100 100 100 100 100 100 100 100 100 100 100 100 100 100 100 100 100 100 100 100 100 100 95 98 100 96 100 100 100 100 100 100 100 100 100 100 100 100 100 100 100 100 100
100 100 100 100 100 100 100 100 100 100 100 100 100 100 100 100 100 100 100 100 100 100 91 79 67 63 27 59 100 100 100 100 100 100 100 100 100 100 100 100 100 100 100
100 100 100 100 100 100 100 100 100 100 98 100 100 100 100 100 100 100 100 98 75 85 85 92 100 100 96 76 61 89 100 100 100 100 100 100 100 100 100 100 100 100 100
100 100 100 100 100 100 100 94 87 100 100 100 100 100 100 100 100 100 100 100 100 100 100 100 100 95 82 76 98 100 100 99 84 99 100 100 100 100 100 100 100 100 100

GFSGL_prec_cloud_066.txt.gz
Cloud_Cover
0 33 88 100 94 25 16 27 5 12 22 35 25 78 99 60 69 89 20 71 85 100 99 97 100 100 100 100 100 100 100 100 100 100 100 60 78 40 100 84 73 100 100
0 0 1 21 20 18 55 14 45 65 99 50 94 98 100 100 69 89 97 60 40 98 100 100 100 100 100 100 100 100 100 100 100 100 82 100 75 100 40 97 64 93 100
0 0 0 0 4 40 6 5 5 5 13 52 63 17 6 6 56 67 39 90 90 95 100 100 100 100 100 100 100 100 100 100 100 100 100 100 99 100 100 100 100 100 98
0 0 0 0 0 0 2 2 5 25 10 78 98 6 5 5 6 31 48 96 100 100 100 100 100 100 100 100 100 100 100 100 100 100 100 100 100 100 100 100 100 99 100
0 0 0 0 0 0 0 0 0 0 5 5 55 18 13 5 86 99 100 98 65 60 80 100 100 100 100 100 100 100 100 100 100 100 100 100 100 100 100 100 100 100 100
6 3 5 1 0 0 0 0 0 0 0 0 0 3 9 21 50 89 100 98 70 99 100 100 100 100 100 100 100 100 100 100 100 100 100 100 100 100 100 100 100 100 100
36 75 94 93 48 0 0 0 4 1 0 3 0 0 0 0 75 100 100 100 100 100 100 100 100 100 100 100 100 100 100 100 100 100 100 100 100 100 100 100 100 100 100
33 99 69 56 87 92 9 33 4 3 2 20 41 63 78 79 100 100 100 100 100 100 100 100 100 100 100 100 100 100 100 100 100 100 100 100 100 100 100 100 100 100 100
55 75 72 99 14 62 100 100 100 36 89 100 100 100 100 99 100 100 100 100 100 100 100 100 100 100 100 100 100 100 100 100 100 100 100 100 100 100 100 100 100 100 100
100 63 100 96 83 98 100 100 100 100 100 100 100 100 100 100 100 100 100 100 100 100 100 100 100 100 100 100 100 100 100 100 100 100 100 100 100 100 100 100 100 100 100
100 100 100 100 100 100 100 100 100 100 100 100 100 100 100 100 100 100 100 100 100 100 100 100 100 100 100 100 100 100 100 100 100 100 100 100 100 100 100 100 100 100 100
100 100 100 100 100 100 100 100 100 100 100 100 100 100 100 100 100 100 100 100 100 100 100 100 100 100 100 100 100 100 100 100 100 100 100 100 100 100 100 100 100 100 100
100 100 100 100 100 100 100 100 100 100 100 100 100 100 100 100 100 100 100 100 100 100 100 100 100 100 100 100 100 100 100 100 100 100 100 100 90 96 100 100 100 100 100
100 100 100 100 100 100 100 100 100 100 100 100 100 100 100 100 100 100 100 100 100 100 100 100 100 100 100 100 100 100 100 100 100 100 100 100 100 100 100 100 100 100 100
100 100 100 100 100 100 100 100 100 100 100 100 100 100 100 100 100 100 100 100 100 100 100 100 100 100 100 100 100 100 100 100 100 100 100 100 100 100 100 100 100 100 100
100 100 100 100 100 100 100 100 100 100 100 100 100 100 100 100 100 100 100 100 100 100 100 100 100 100 100 100 100 100 100 100 100 100 100 100 100 100 100 100 100 100 97
100 100 100 100 100 100 100 100 100 100 100 100 100 100 100 100 100 100 100 100 100 100 100 100 100 100 100 100 100 100 100 100 100 100 100 100 100 100 100 100 100 100 100
100 100 100 100 100 100 100 100 100 100 100 100 100 100 100 100 100 100 100 100 100 100 100 100 100 100 100 100 100 100 100 100 100 100 100 100 100 100 100 100 100 100 100
100 100 100 100 100 100 100 100 100 100 100 100 100 100 100 100 100 100 100 100 100 100 100 100 100 100 100 100 100 100 100 100 99 100 100 100 100 100 100 100 100 100 100
100 100 100 100 100 100 100 100 100 100 100 100 100 100 100 100 100 100 100 100 100 100 100 100 100 100 100 100 100 100 100 100 100 100 100 100 100 100 100 100 100 100 100
100 100 100 100 100 100 100 100 100 100 100 100 100 100 100 100 100 100 100 100 100 100 100 100 100 100 100 100 100 100 100 100 100 100 100 100 100 100 100 100 100 100 100
100 100 100 100 100 100 100 100 100 100 100 100 100 100 100 100 100 100 100 100 100 100 100 100 100 100 100 100 100 100 100 100 100 100 100 100 100 100 100 100 100 100 100
100 100 100 100 100 100 100 100 100 100 100 100 100 100 100 100 100 100 100 100 100 100 100 100 100 100 100 100 100 100 100 100 100 100 100 100 100 100 100 100 100 100 100
100 100 100 100 100 100 100 100 100 100 100 100 100 100 100 100 100 100 100 100 100 100 100 100 100 100 100 100 100 100 100 100 100 100 100 100 100 100 100 100 100 100 100
100 100 100 100 100 100 100 100 100 100 100 100 100 100 100 100 100 100 100 100 100 100 100 100 100 100 100 100 100 100 100 100 100 100 100 100 100 100 100 100 100 100 100
100 100 100 100 100 100 100 100 100 100 100 100 100 100 100 100 100 100 100 100 100 100 100 100 100 100 100 100 100 100 100 100 100 100 100 100 100 100 100 100 100 100 100

GFSGL_prec_cloud_069.txt.gz
Cloud_Cover
0 28 77 66 100 100 98 24 6 18 90 100 100 100 100 100 100 100 100 100 100 100 100 100 100 100 98 95 100 100 100 100 100 100 100 100 100 100 99 100 100 80 95
0 0 13 26 55 44 7 36 81 34 5 9 18 27 97 99 63 99 96 99 100 96 100 100 100 99 93 100 100 100 100 100 100 100 100 100 100 99 100 73 100 89 100
0 0 0 0 0 0 0 12 14 1 1 48 96 58 12 50 35 55 69 83 85 92 100 62 75 94 100 100 100 100 100 100 100 100 100 100 100 100 100 100 100 100 100
1 0 0 0 0 0 0 0 0 0 0 4 5 5 6 40 44 54 63 62 23 5 5 43 86 97 100 78 100 100 100 100 100 100 100 100 100 100 100 100 100 100 100
0 0 2 0 0 0 0 0 0 0 0 0 1 0 4 5 5 5 5 5 5 14 100 90 59 75 100 100 100 100 100 100 100 100 100 100 100 100 100 100 100 100 100
100 86 0 0 0 4 6 98 7 0 0 0 0 0 0 0 5 5 9 78 74 83 86 32 99 100 100 100 100 100 100 100 100 100 100 100 100 100 100 100 100 100 100
100 100 100 9 0 1 2 6 94 100 86 4 19 3 2 2 5 5 2 3 42 37 20 87 98 100 100 100 100 100 100 100 100 100 100 100 100 100 100 100 100 100 100
65 69 100 100 100 55 45 100 80 14 65 100 100 100 70 50 22 100 100 26 52 35 100 100 100 100 100 100 100 100 100 100 100 100 100 100 100 100 100 100 100 100 100
40 100 100 98 86 100 100 100 100 100 99 97 99 100 100 100 92 100 100 98 99 100 100 100 100 100 100 100 100 100 100 100 100 100 100 100 100 100 100 100 100 100 100
100 100 100 100 94 100 90 84 99 100 100 100 100 100 100 100 100 100 100 100 100 100 100 100 100 100 100 100 100 100 100 100 100 100 100 100 100 100 100 100 100 100 100
100 100 100 100 100 88 89 100 100 69 76 100 100 100 100 100 100 100 100 100 100 100 100 100 100 100 100 100 100 100 100 100 100 100 100 100 100 100 100 100 100 100 100
100 100 100 70 100 100 100 100 100 100 100 100 100 100 100 100 100 100 100 100 100 100 100 100 100 100 100 100 100 100 100 100 100 100 100 100 100 100 100 100 100 100 100
100 100 100 100 100 100 100 100 100 100 100 100 100 100 100 100 100 100 100 100 100 100 100 100 100 100 100 100 100 100 100 100 100 100 100 100 100 100 100 100 100 100 100
100 100 100 100 100 100 100 100 100 100 100 100 100 100 100 100 100 100 100 100 100 100 100 100 100 100 100 100 100 100 100 100 100 100 100 100 100 100 100 100 100 100 100
100 100 100 100 100 100 100 100 100 100 100 100 100 100 100 100 100 100 100 100 100 100 100 100 100 100 100 100 100 100 100 100 100 100 100 100 100 100 100 100 100 100 100
100 100 100 100 100 100 100 100 100 100 100 100 100 100 100 100 100 100 100 100 100 100 100 100 100 100 100 100 100 100 100 100 100 100 100 100 100 100 100 100 100 100 100
100 100 100 100 100 100 100 100 100 100 100 100 100 100 100 100 100 100 100 100 100 100 100 100 100 100 100 100 100 100 100 97 100 100 100 100 100 100 100 100 100 100 100
100 100 100 100 100 100 100 100 100 100 100 100 100 100 100 100 100 100 100 100 100 100 100 100 100 100 100 100 100 100 100 100 100 100 100 100 100 100 100 100 100 100 100
100 100 100 100 100 100 100 100 100 100 100 100 100 100 100 100 100 100 100 100 100 100 100 100 100 100 100 100 100 100 100 100 100 100 100 100 100 100 100 100 100 100 98
100 100 100 100 100 100 100 100 100 100 100 100 100 100 100 100 100 100 100 100 100 100 100 100 100 100 100 100 100 100 100 100 100 100 100 100 100 100 100 100 100 100 100
100 100 100 100 100 100 100 100 100 100 100 100 100 100 100 100 100 100 100 100 100 100 100 100 100 100 100 100 100 100 100 100 100 100 100 100 100 100 100 100 100 100 100
100 100 100 100 100 100 100 100 100 100 100 100 100 100 100 100 100 100 100 100 100 100 100 100 100 100 100 100 100 100 100 100 100 100 100 100 100 100 100 100 100 100 100
100 100 100 100 100 100 100 100 100 100 100 100 100 100 100 100 100 100 100 100 100 100 100 100 100 100 100 100 100 100 100 100 100 100 100 100 100 100 100 100 100 100 100
100 100 98 99 100 100 100 100 100 100 100 100 100 100 100 100 100 100 100 100 100 100 100 100 100 100 100 100 100 100 100 100 100 100 100 100 100 100 100 100 100 100 100
100 100 100 100 100 100 100 100 100 100 100 100 100 100 100 100 100 100 100 100 100 100 100 100 100 100 100 100 100 100 100 100 99 100 100 100 100 100 100 100 100 100 100
100 100 100 100 100 100 100 100 100 100 100 100 100 100 100 100 100 100 100 100 100 100 100 100 100 100 100 100 100 100 98 100 100 100 100 100 100 100 100 100 100 100 100

GFSGL_prec_cloud_072.txt.gz
Cloud_Cover
0 10 86 100 100 100 19 26 38 24 22 80 100 100 100 100 100 100 100 100 100 100 100 100 100 100 100 100 100 100 100 70 100 84 100 100 100 100 100 100 100 100 100
0 0 0 73 100 100 68 34 46 8 37 7 1 6 68 100 100 100 100 100 100 100 100 100 100 100 100 100 100 87 94 99 100 100 100 100 100 100 100 100 100 100 100
0 0 0 0 0 17 0 0 19 13 0 0 1 4 5 3 4 47 88 86 92 73 64 40 75 95 100 86 100 99 93 100 100 100 100 100 100 100 99 98 100 100 100
89 3 2 0 0 0 0 0 1 2 28 1 0 0 1 5 5 5 5 13 45 14 66 56 78 89 42 100 100 99 100 100 100 100 100 100 100 100 96 100 100 100 100
100 100 88 21 7 1 0 0 0 0 9 76 4 1 0 0 0 1 4 5 5 5 47 5 5 5 55 100 95 100 100 100 100 100 100 100 100 100 100 100 100 100 100
0 4 5 22 100 54 12 3 0 0 26 100 100 96 18 4 0 5 5 4 5 5 5 47 25 21 18 13 100 100 100 100 100 100 100 100 100 100 100 100 100 100 100
5 5 3 4 4 55 93 63 13 21 6 19 21 5 21 100 100 100 100 88 10 13 48 93 88 34 19 100 98 100 100 100 100 100 100 100 100 100 100 100 100 100 100
94 69 39 46 58 59 6 49 100 100 88 100 99 79 46 73 61 100 100 100 100 97 73 93 87 88 100 99 100 100 100 100 100 100 100 100 100 100 100 100 100 100 100
52 60 89 89 63 56 78 100 100 66 81 45 67 92 100 100 100 100 100 100 100 100 100 100 100 100 100 100 100 100 100 100 100 100 100 100 100 100 100 100 100 100 100
90 56 9 5 5 22 11 79 76 100 100 84 100 100 100 100 100 100 100 100 100 100 100 100 100 100 100 100 100 100 100 100 100 100 100 100 100 100 100 100 100 100 100
100 100 89 50 45 91 40 42 87 29 58 99 100 100 100 100 100 100 100 100 100 100 100 100 100 100 100 100 100 100 100 100 100 100 100 100 100 100 100 100 100 100 100
100 100 100 100 98 100 100 100 99 100 100 100 100 100 100 100 100 100 100 100 100 100 100 100 100 100 100 100 100 100 100 100 100 100 100 100 100 100 100 100 100 100 100
100 100 100 100 100 100 100 100 100 100 100 100 100 100 100 100 100 100 100 100 100 100 100 100 100 100 100 100 100 100 100 100 100 100 100 100 100 100 100 100 100 100 100
100 100 100 100 100 100 100 100 100 100 100 100 100 100 100 100 100 100 100 100 100 100 100 100 100 100 100 100 100 100 100 100 100 100 100 100 100 100 100 100 100 100 99
100 100 100 100 100 100 100 100 100 100 100 100 100 100 100 100 100 100 100 100 100 100 100 100 100 100 100 100 100 100 100 100 100 100 100 100 100 100 100 100 100 100 100
100 100 98 100 100 100 100 100 100 100 100 100 100 100 100 100 100 100 100 100 100 100 100 100 100 100 100 100 100 100 100 100 100 100 100 100 100 100 100 100 98 85 97
100 100 100 100 100 100 100 100 100 100 100 100 100 100 100 100 100 100 100 100 100 100 100 100 100 100 100 100 100 100 100 100 100 100 100 100 100 100 100 100 100 100 100
100 100 96 96 100 100 100 100 100 100 100 100 100 100 100 100 100 100 100 100 100 100 100 100 100 100 100 100 100 100 100 100 100 100 100 100 100 100 100 100 100 100 100
100 95 91 92 100 100 100 100 100 100 100 100 100 100 100 100 100 100 100 100 100 100 100 100 100 100 100 100 100 100 100 100 100 100 100 100 100 100 100 99 99 100 92
99 96 87 92 99 100 100 100 100 100 100 100 100 100 100 100 100 100 100 100 100 100 100 100 100 100 100 100 100 100 100 100 100 100 100 100 100 100 87 89 97 100 100
100 93 97 100 96 100 100 98 100 100 100 100 100 100 100 100 100 100 100 100 100 100 100 100 100 100 100 100 100 100 100 100 100 100 100 54 26 88 92 96 100 100 100
100 100 99 98 100 100 100 99 96 92 96 91 100 100 100 100 100 100 100 100 100 100 100 100 100 100 100 100 100 100 100 100 100 62 43 61 54 56 48 90 88 41 76
100 100 100 100 100 100 100 100 100 100 100 97 98 91 97 100 100 100 100 100 100 100 100 100 100 100 94 100 100 100 100 100 98 43 12 5 21 68 70 89 100 100 97
100 100 100 100 100 100 100 100 98 82 82 100 100 100 96 97 99 76 99 100 100 100 88 91 100 92 40 34 12 8 100 50 5 6 57 16 9 11 44 48 16 6 51
100 100 100 100 100 100 100 100 100 100 87 82 94 100 100 100 86 100 100 99 34 19 100 100 94 84 96 8 72 100 76 36 5 5 50 99 98 56 5 29 74 100 99
100 100 100 100 100 100 100 100 100 100 100 100 98 100 100 98 46 100 100 50 5 86 100 97 100 82 56 100 100 100 23 16 76 100 100 100 91 20 28 100 91 37 73

GFSGL_prec_cloud_075.txt.gz
Cloud_Cover
0 66 100 100 100 100 100 82 94 100 100 92 100 98 100 100 100 100 100 100 100 100 100 100 100 100 100 100 100 100 100 100 100 100 100 97 31 6 32 86 100 100 100
36 0 2 88 100 100 100 100 5 1 0 1 2 1 5 37 100 100 100 100 92 84 96 100 100 100 100 100 100 100 100 100 28 46 68 8 18 31 63 98 100 100 100
5 94 7 0 26 100 100 100 100 30 0 0 0 0 0 1 4 5 5 38 96 100 100 100 100 100 100 100 100 100 48 95 45 97 98 100 100 100 93 100 100 100 100
5 29 42 3 0 7 97 100 100 61 1 0 4 3 5 0 0 0 4 4 5 5 5 10 27 37 52 28 8 62 95 94 84 100 99 100 100 99 100 100 100 100 100
1 1 1 68 60 75 5 48 81 74 40 0 0 2 29 35 5 0 0 0 0 0 1 2 5 18 98 100 59 68 87 88 100 100 100 100 100 100 100 100 100 100 100
5 0 0 0 0 0 2 0 0 1 18 47 21 6 1 0 0 1 4 5 14 100 100 100 51 7 4 74 69 68 100 100 100 95 100 100 100 100 100 100 100 100 100
71 6 5 11 5 3 4 5 3 0 1 4 23 39 71 52 9 6 5 9 2 3 4 18 70 100 100 100 100 100 100 100 100 100 100 100 100 100 100 100 100 100 100
90 89 66 51 45 60 11 5 5 5 5 28 14 96 96 59 60 71 95 100 100 94 96 98 98 100 100 100 100 100 100 100 100 100 100 100 100 100 100 100 100 100 100
73 53 41 100 97 50 91 98 5 5 5 14 100 96 64 97 100 98 80 100 100 100 100 100 100 100 100 100 100 100 100 100 100 100 100 100 100 100 100 100 100 100 100
100 100 100 100 96 59 96 67 98 100 100 94 92 62 99 100 100 100 100 100 100 100 100 100 100 100 100 100 100 100 100 100 100 100 100 100 100 100 100 100 100 100 100
100 100 90 95 90 100 100 100 100 100 100 100 100 100 100 100 100 100 100 100 100 100 100 100 100 100 100 100 100 100 100 100 100 100 100 100 100 100 100 100 100 100 100
100 70 99 96 98 100 100 100 100 100 100 100 100 100 100 100 100 100 100 100 100 100 100 100 100 100 100 100 100 100 100 100 100 100 100 100 100 100 100 100 100 100 100
100 100 100 100 94 96 73 100 100 100 100 100 100 100 100 100 100 100 100 100 100 100 100 100 100 100 100 100 100 100 100 100 100 100 100 100 100 100 100 100 100 100 100
86 71 56 99 98 85 100 100 100 100 100 100 100 100 100 100 100 100 100 100 100 100 100 100 100 100 100 100 100 100 100 100 100 100 100 100 100 100 100 100 100 100 100
100 100 100 94 100 100 100 100 100 100 100 100 100 100 100 100 100 100 100 100 100 100 100 100 100 100 100 100 100 100 100 100 100 100 100 100 100 100 100 100 100 100 100
100 100 100 100 100 100 100 100 100 100 100 100 99 100 100 100 100 100 100 100 100 100 100 100 100 100 100 100 100 100 100 100 100 100 100 100 100 100 100 100 100 100 100
100 100 100 100 100 100 100 100 100 100 100 100 100 100 100 100 100 100 100 100 100 100 100 100 100 100 100 100 100 100 100 100 100 100 100 100 100 100 100 100 100 100 100
90 90 98 100 100 100 100 100 100 100 100 98 100 100 100 100 100 100 100 100 100 100 100 100 100 100 100 100 100 100 100 100 100 100 100 100 100 100 100 100 100 100 100
93 89 89 100 100 99 99 100 100 100 99 98 100 100 100 100 100 100 100 100 100 100 100 100 100 100 100 100 100 100 100 100 100 100 100 100 100 100 100 100 100 100 100
96 97 98 100 100 100 100 100 100 100 100 100 100 100 100 100 100 100 100 100 100 100 100 100 100 100 100 100 100 100 100 100 100 100 100 100 100 100 100 100 100 100 71
95 80 72 85 84 98 100 100 100 100 100 100 100 100 100 100 100 100 100 100 100 100 100 100 100 100 100 100 100 100 100 100 100 100 100 100 100 18 12 85 94 100 91
90 99 100 97 98 99 100 100 100 100 100 100 100 100 100 100 100 100 100 100 100 100 100 100 100 100 100 100 100 100 100 100 100 100 100 100 100 71 75 89 81 55 35
100 92 98 100 94 93 100 100 100 100 100 100 100 100 100 100 100 100 100 100 55 13 27 40 48 87 76 73 100 100 88 97 99 100 79 39 37 8 46 61 45 8 45
99 92 89 89 76 74 100 100 100 100 100 100 100 100 100 100 100 100 100 100 59 24 97 87 31 11 5 5 14 68 8 10 5 5 5 62 99 81 8 5 38 27 91
83 99 100 98 100 100 100 100 100 100 100 99 100 100 100 100 100 100 96 61 21 52 100 100 93 86 59 46 56 100 96 10 5 8 8 9 25 59 49 81 95 99 54
100 100 100 98 84 98 74 72 79 95 82 64 86 91 100 100 100 100 93 70 94 77 90 78 72 74 97 100 99 33 17 66 34 5 12 36 99 92 70 31 5 41 57

GFSGL_prec_cloud_078.txt.gz
Cloud_Cover
100 99 100 100 100 100 66 67 100 100 100 100 100 100 100 100 100 100 100 100 100 100 98 100 100 100 100 100 100 100 100 100 100 100 100 100 100 100 96 32 38 30 11
100 99 96 100 100 100 100 100 53 14 8 22 98 100 100 100 100 100 100 100 91 99 100 100 95 82 100 95 54 100 100 100 100 100 100 100 100 73 14 6 5 7 97
98 62 6 5 67 98 100 100 100 98 58 14 20 0 0 5 47 31 64 94 83 35 9 16 81 100 100 100 100 100 100 100 99 95 97 78 44 50 13 27 91 89 98
41 37 16 22 5 4 61 98 100 100 100 100 42 32 1 9 1 14 25 15 16 10 5 5 5 14 5 9 18 10 30 55 5 56 71 60 51 75 94 99 87 89 71
15 19 0 0 1 0 3 6 89 98 100 100 100 89 28 0 0 0 1 4 1 1 2 1 4 1 56 97 37 5 5 63 57 11 94 100 100 100 100 100 100 100 100
96 26 37 27 93 26 0 0 0 0 19 99 100 100 36 19 17 0 0 4 1 0 0 0 0 2 38 11 5 5 5 7 6 29 79 100 94 100 100 100 100 100 100
100 100 91 79 49 54 70 72 37 29 20 15 8 7 19 6 5 5 17 58 13 4 12 10 5 5 5 5 5 6 20 30 66 81 100 100 100 100 100 100 100 100 100
18 42 81 99 100 100 99 76 98 94 92 98 97 42 16 9 6 56 83 29 80 86 100 85 84 43 46 45 80 38 83 100 100 100 100 100 100 100 100 100 100 100 100
100 100 96 100 100 100 100 100 100 98 98 100 100 100 80 100 99 96 93 100 100 100 100 100 100 100 100 100 100 100 100 100 100 100 100 100 100 100 100 100 100 100 100
100 100 100 100 100 100 100 100 100 100 100 100 100 100 100 100 100 100 100 100 100 100 89 100 100 100 100 100 100 100 100 100 100 100 100 100 100 100 100 100 100 100 100
64 78 92 100 100 100 100 100 100 100 100 100 100 100 100 100 100 100 100 100 100 100 100 100 100 100 100 100 100 100 100 100 100 100 100 100 100 100 100 100 100 100 100
94 82 67 85 88 100 100 100 100 100 100 100 100 100 100 100 100 100 100 100 100 100 100 100 100 100 100 100 100 100 100 100 100 100 100 100 100 100 100 100 100 100 100
100 100 100 100 100 100 100 100 100 100 100 100 100 100 100 100 100 100 100 100 100 100 100 100 100 100 100 100 100 100 100 100 100 100 100 100 100 100 100 100 100 100 100
100 99 100 100 100 100 100 100 100 99 96 100 100 100 100 100 100 100 100 100 100 100 100 100 100 100 100 100 100 100 100 100 100 100 100 100 100 100 100 100 100 100 100
97 82 87 100 100 100 100 100 100 100 100 100 100 100 100 100 100 100 100 100 100 100 100 100 100 100 100 100 100 100 100 100 100 100 100 100 100 100 100 100 100 100 100
100 100 100 100 100 100 100 100 100 100 100 100 100 100 100 97 79 91 99 100 100 99 96 82 99 100 100 100 100 100 100 100 100 100 100 100 100 100 100 100 100 100 100
100 100 100 100 100 100 100 100 100 99 100 100 100 100 100 100 100 100 100 99 100 100 100 100 100 100 100 100 100 100 100 100 100 100 100 100 100 100 100 100 100 100 100
89 88 98 96 100 99 100 100 93 97 100 96 100 100 100 100 100 100 100 100 100 100 99 100 100 100 100 100 100 100 100 100 100 100 100 100 100 100 100 100 100 100 100
100 92 98 100 95 79 63 72 70 79 95 100 100 100 100 100 100 100 100 100 100 100 100 100 100 100 100 100 100 100 100 100 100 100 100 100 100 100 100 100 100 100 34
98 79 58 56 58 69 69 79 88 91 96 100 100 100 100 100 100 100 100 100 100 100 100 100 100 100 100 100 100 100 100 100 100 100 100 100 100 100 100 100 96 100 62
99 70 66 96 100 96 97 96 93 89 96 100 100 100 98 100 100 100 100 100 100 100 100 100 100 100 100 100 100 100 87 58 100 100 100 100 100 100 100 100 100 100 93
90 91 68 82 92 100 100 99 98 95 88 100 100 95 98 94 100 100 100 100 100 100 100 100 100 100 100 100 100 100 98 93 77 100 100 100 100 100 100 100 100 86 85
70 77 94 97 92 84 100 99 92 85 97 97 93 100 100 92 99 100 100 100 100 100 100 100 100 89 90 100 100 100 85 81 27 5 5 29 42 95 97 76 50 51 88
88 98 100 98 87 98 100 100 100 88 99 100 100 100 100 97 88 74 80 100 100 100 100 81 53 37 9 93 86 19 19 26 5 6 38 61 83 16 44 44 88 99 96
92 96 100 92 88 94 100 91 81 68 76 100 100 100 97 93 100 100 99 83 48 15 58 92 90 39 46 22 71 51 21 84 40 38 49 67 98 99 100 91 73 5 27
100 100 100 93 89 92 100 100 100 100 100 100 100 97 98 95 84 69 40 34 30 34 71 76 93 92 75 83 94 76 57 39 40 18 28 26 19 7 32 47 27 69 67

GFSGL_prec_cloud_081.txt.gz
Cloud_Cover
22 100 82 27 40 96 100 48 100 100 100 100 100 100 100 100 100 100 100 100 100 100 100 100 100 100 100 100 100 100 100 100 100 100 100 100 100 100 100 100 100 100 100
100 100 100 100 63 50 77 3 0 7 78 100 100 100 100 100 100 100 100 100 100 100 100 100 100 100 100 100 100 100 100 100 100 100 100 100 100 100 100 100 99 55 24
100 100 100 100 100 52 18 5 5 0 0 0 4 8 16 50 68 47 35 87 98 98 100 100 99 100 100 100 100 100 100 100 100 100 100 100 100 88 5 7 20 74 30
46 24 38 17 20 70 92 100 100 100 89 15 5 0 0 0 0 0 2 4 5 5 17 82 98 98 36 22 41 36 45 100 100 100 100 100 94 33 57 86 68 96 99
17 58 53 7 5 2 5 10 30 68 93 100 100 98 76 32 4 14 17 0 1 22 33 33 28 5 5 5 28 17 5 33 53 96 100 100 96 100 100 96 94 100 100
69 50 29 72 67 58 5 44 21 1 1 5 68 99 100 100 100 81 68 81 75 4 4 3 16 59 34 55 62 47 70 66 62 48 64 99 86 88 31 75 83 99 100
100 100 100 100 91 98 38 37 89 72 59 72 42 20 16 27 53 89 98 71 35 39 5 4 5 5 10 8 7 19 24 16 50 58 81 90 87 71 100 100 100 100 100
100 100 100 100 100 100 100 100 100 100 100 100 100 100 100 100 100 100 94 100 89 48 30 20 54 76 90 100 100 100 100 100 100 100 100 100 100 100 100 100 100 100 100
100 100 100 100 100 100 100 100 100 100 100 100 100 100 100 100 100 100 100 100 100 100 100 100 100 100 100 100 100 100 100 100 100 100 100 100 100 100 100 100 100 100 100
100 100 100 100 100 100 100 100 100 100 100 100 100 100 100 100 100 100 100 100 100 100 100 100 100 100 100 100 100 100 100 100 100 100 100 100 100 100 100 100 100 100 100
100 100 100 100 100 100 100 100 100 100 100 100 100 100 100 100 100 100 100 100 100 100 100 100 100 100 100 100 100 100 100 100 100 100 100 100 100 100 100 100 100 100 100
100 99 100 100 100 100 100 100 100 100 100 100 100 100 100 100 100 100 100 100 100 100 100 100 100 100 100 100 100 100 100 100 100 100 100 100 100 100 100 100 100 100 100
100 100 100 100 100 100 100 100 100 100 100 100 100 100 100 100 100 99 100 97 100 100 100 100 100 100 100 100 100 100 100 100 100 100 100 100 100 100 100 100 100 100 100
100 99 91 98 100 100 100 100 100 100 100 100 100 100 100 100 100 100 88 92 100 100 100 100 100 100 100 100 100 100 100 100 100 100 100 100 100 100 100 100 100 100 100
100 92 90 97 100 100 100 100 100 100 100 100 100 100 100 100 100 98 100 100 100 100 100 100 100 100 100 100 100 100 100 100 100 100 100 100 100 100 100 100 100 100 100
100 100 98 93 99 100 99 100 100 100 100 98 88 79 100 100 99 100 100 100 98 97 100 100 100 100 100 100 100 100 100 100 100 100 100 100 100 100 100 100 100 100 100
100 99 91 93 96 97 100 98 100 100 99 100 100 100 100 100 100 100 100 100 100 100 100 94 98 98 100 100 100 100 100 100 100 100 100 100 100 100 100 100 100 100 100
98 93 98 100 93 91 98 91 85 97 100 100 100 100 100 100 100 100 100 94 76 90 98 100 100 100 100 100 100 100 100 100 100 100 100 100 99 100 100 100 100 100 100
100 96 89 72 84 80 62 62 70 88 100 99 80 62 99 100 100 100 86 77 96 100 100 100 100 100 100 100 100 100 100 100 100 100 100 100 100 100 100 100 100 100 100
88 85 86 70 56 59 67 78 75 89 100 100 100 100 74 100 88 98 100 100 100 100 96 99 100 100 100 100 100 100 100 100 100 100 100 100 100 100 100 100 100 100 100
74 58 76 86 100 100 100 99 87 95 100 100 100 89 6 73 99 100 100 100 100 92 86 98 100 76 90 100 100 100 100 100 99 99 100 100 100 100 100 100 100 100 88
90 100 87 100 98 92 93 68 74 80 78 82 81 41 17 88 94 84 98 89 73 26 30 18 39 43 70 100 100 100 100 100 100 99 68 22 20 32 36 56 57 35 27
54 50 82 100 96 73 97 98 94 88 95 95 82 85 90 95 94 96 100 100 99 100 100 100 83 45 61 67 10 5 32 82 86 41 71 59 30 27 36 23 50 81 92
13 51 71 66 63 74 81 88 88 86 97 98 99 99 100 100 100 100 100 100 100 100 100 100 100 99 94 99 69 47 46 24 20 19 69 50 29 14 42 20 82 89 75
9 31 48 45 30 57 8 14 57 72 90 92 84 94 96 100 100 100 100 100 100 100 100 100 100 100 100 100 100 100 93 91 50 12 11 31 38 49 53 9 27 6 34
21 10 30 10 16 21 52 92 99 83 100 100 98 100 91 97 80 60 23 5 35 21 82 94 97 79 42 71 87 96 30 35 5 5 51 62 87 26 46 40 43 70 21

GFSGL_prec_cloud_084.txt.gz
Cloud_Cover
100 85 83 100 100 93 100 99 100 100 100 100 100 100 100 100 100 100 100 100 100 100 100 100 100 100 100 100 100 100 100 100 100 100 100 100 100 100 100 100 100 100 100
94 48 100 100 96 100 100 100 100 100 100 100 100 100 100 100 100 100 100 100 100 100 100 100 100 100 100 100 100 100 99 100 100 100 100 100 100 100 100 100 100 100 91
33 78 100 100 100 100 100 100 76 4 3 52 97 98 99 100 100 100 100 100 100 100 100 100 99 100 100 100 99 90 95 100 100 100 100 98 78 83 56 95 28 19 46
65 19 33 16 53 77 99 86 98 98 48 31 22 9 6 48 98 100 100 100 100 96 95 97 94 100 91 90 100 100 100 100 97 100 100 100 100 87 97 100 51 49 98
100 68 60 23 22 5 5 5 6 17 53 62 30 40 39 45 37 49 51 68 71 55 37 40 22 8 5 5 94 100 100 100 100 100 100 100 100 100 97 54 46 100 100
100 100 98 77 40 21 9 0 0 4 5 13 1 44 75 100 100 100 100 100 73 76 62 65 38 15 23 90 100 100 100 100 100 100 100 100 100 100 100 100 100 100 100
100 100 100 100 100 100 100 100 100 100 100 82 95 98 100 100 100 100 97 99 100 100 100 100 100 85 32 8 33 94 99 100 100 100 100 100 100 100 100 100 100 100 100
100 100 100 100 100 100 100 100 100 100 100 100 100 100 100 100 100 100 100 100 100 100 100 100 100 100 100 100 100 100 100 100 100 100 100 100 100 100 100 100 100 100 100
100 100 100 100 100 100 100 100 100 100 100 100 100 100 100 100 100 100 98 100 100 100 100 100 100 100 100 100 100 100 100 100 100 100 100 100 100 100 100 100 100 100 100
100 100 100 100 100 100 100 100 100 100 100 100 100 100 100 100 100 100 100 100 100 100 100 100 100 100 100 100 100 100 100 100 100 100 100 100 100 100 100 100 100 100 100
100 100 100 100 100 100 100 100 100 100 100 100 100 100 100 100 100 100 100 100 100 100 100 100 100 100 100 100 100 100 100 100 100 100 100 100 100 100 100 100 100 100 100
100 100 100 100 100 100 100 100 100 100 100 100 100 100 100 100 100 100 100 100 100 100 100 100 100 100 100 96 100 100 100 100 100 100 100 100 100 100 100 100 100 100 100
100 100 100 100 100 100 100 100 100 100 100 100 100 100 100 100 100 100 100 100 100 100 100 100 100 100 100 100 100 100 100 100 100 100 100 100 100 100 100 100 100 100 100
100 100 100 100 100 100 99 100 100 100 100 100 100 100 100 100 100 100 100 100 87 87 99 100 98 93 67 96 96 95 100 100 100 100 100 100 100 100 100 100 100 100 100
100 99 100 99 100 100 98 100 98 100 99 99 100 100 100 100 100 99 89 100 97 100 100 100 100 100 100 100 100 100 100 100 100 100 100 100 100 100 100 96 90 98 100
100 100 100 96 100 100 100 100 100 100 100 100 100 100 100 100 100 100 98 93 81 93 91 66 84 89 100 100 99 100 100 86 92 99 100 100 100 100 100 100 100 100 100
100 100 96 98 100 96 100 100 100 100 100 100 100 100 100 100 100 100 98 97 69 99 75 100 100 100 100 100 100 100 100 90 96 100 100 100 100 100 100 100 100 100 100
93 100 99 99 90 83 92 96 97 100 100 100 100 100 100 100 100 99 94 98 54 70 100 100 100 100 100 100 89 92 97 95 63 52 77 92 100 100 100 100 100 100 100
100 94 73 80 61 50 53 57 59 68 93 98 51 32 57 100 99 96 80 80 94 100 93 92 95 100 96 84 74 64 64 63 64 88 78 88 93 95 98 100 100 100 100
100 100 82 66 53 54 67 72 65 68 81 98 99 100 12 78 65 90 80 68 79 100 92 93 93 81 75 62 60 74 84 97 96 100 100 100 100 94 91 100 100 100 100
84 100 100 100 100 93 79 79 71 80 98 100 100 86 5 34 99 100 92 90 94 94 68 55 61 56 33 12 63 55 70 76 100 100 100 100 100 100 100 100 100 85 100
73 90 86 91 60 58 64 20 56 60 61 70 83 40 11 20 76 86 69 84 87 11 5 50 63 71 69 43 60 69 88 100 100 100 100 100 100 100 100 100 100 87 81
17 44 58 71 53 61 85 87 82 57 61 76 51 21 57 46 91 98 100 100 60 43 26 5 9 48 72 88 87 99 100 100 99 100 100 100 100 100 100 100 95 93 94
5 28 14 54 14 42 46 98 91 77 67 81 62 26 15 62 99 97 100 95 67 36 62 73 33 15 34 48 13 19 44 32 54 69 79 86 92 94 92 68 66 20 53
5 5 5 20 46 62 57 59 100 99 68 100 100 78 70 5 5 50 12 11 20 51 85 95 85 91 93 61 50 93 78 55 5 5 6 55 60 53 39 53 47 24 32
24 5 14 5 52 32 55 96 100 100 100 100 100 100 82 42 11 49 32 32 23 46 87 79 39 24 21 40 99 100 53 63 23 5 56 67 82 73 80 70 68 85 70

GFSGL_prec_cloud_087.txt.gz
Cloud_Cover
100 96 100 100 100 100 100 100 100 100 100 100 100 100 100 100 100 100 100 100 100 100 100 100 100 100 100 100 100 100 100 100 100 100 100 100 100 100 100 100 100 100 100
100 64 100 100 100 100 100 100 100 100 100 100 100 100 100 100 100 100 100 100 100 100 100 100 100 100 100 100 100 100 100 100 100 100 100 88 44 66 77 100 100 100 80
100 91 100 100 100 100 100 100 100 100 100 100 100 100 100 100 100 100 100 100 100 100 100 100 100 100 100 100 100 100 97 100 100 100 57 40 36 26 12 14 5 6 23
67 78 100 100 100 100 100 100 100 100 100 100 100 100 100 100 100 100 100 100 100 100 100 100 100 100 100 100 100 100 99 95 97 100 100 100 97 54 78 73 68 96 92
44 61 65 99 55 62 73 69 94 100 100 100 74 43 44 62 59 79 98 100 100 100 100 100 100 39 58 31 75 36 79 94 96 100 100 95 61 84 99 100 96 100 100
100 100 100 87 75 68 70 54 52 48 60 76 93 71 100 100 100 100 100 100 100 100 100 97 100 90 68 89 100 100 100 100 100 100 100 100 100 100 100 100 100 100 100
100 100 100 100 100 100 100 100 100 100 100 100 100 100 100 100 100 98 93 80 96 100 100 100 100 100 100 100 98 100 100 100 100 100 100 100 100 100 100 100 100 100 100
100 100 100 100 100 100 100 100 100 100 100 100 100 100 100 100 100 100 94 100 100 100 100 100 100 100 100 100 100 100 100 100 100 100 100 100 100 100 100 100 100 100 100
100 100 100 100 100 100 100 100 100 100 100 100 100 100 100 100 100 100 100 100 100 100 100 100 100 100 100 100 100 100 100 100 100 100 100 100 100 100 97 100 100 100 100
100 100 100 100 100 100 100 100 100 100 100 100 100 100 100 100 100 100 100 100 100 100 100 100 100 100 100 100 100 100 100 100 100 100 100 100 100 100 100 100 100 100 100
100 100 100 100 100 100 100 100 100 100 100 100 100 100 100 100 100 100 100 100 100 100 100 100 100 100 100 100 100 100 100 100 100 100 100 100 100 100 100 100 100 100 100
100 100 100 100 100 100 100 100 100 100 100 100 100 100 100 100 100 97 100 92 96 96 100 100 100 100 92 100 100 100 100 100 100 100 100 100 100 99 100 100 100 100 100
100 100 100 100 100 100 100 100 100 100 100 100 100 100 100 100 100 100 100 98 97 91 83 97 99 100 100 97 88 100 100 80 99 100 98 98 100 100 100 100 100 100 100
100 100 100 100 100 100 100 100 100 100 100 100 100 100 100 100 100 98 100 100 100 100 100 100 100 100 100 97 92 86 95 99 94 100 100 100 94 82 74 68 46 83 57
100 100 100 100 100 100 100 100 100 100 100 100 100 100 100 100 100 94 82 86 83 67 88 82 81 96 100 94 97 100 100 100 98 100 99 82 16 40 9 27 9 18 48
100 100 100 100 100 100 100 100 100 100 99 100 100 100 100 100 100 100 97 89 46 68 86 95 100 100 100 100 100 100 86 32 44 18 7 5 5 5 5 7 7 5 9
100 100 100 100 100 100 100 98 100 100 100 100 100 100 100 100 100 100 100 86 59 72 94 100 100 100 99 100 78 21 5 5 5 5 5 7 5 5 5 5 5 5 5
100 100 100 100 100 100 100 100 100 100 100 100 100 100 100 100 100 99 70 73 45 84 100 100 100 100 88 25 7 6 6 8 5 5 6 34 61 5 5 5 5 5 5
100 100 100 100 99 95 100 100 100 100 99 100 99 78 93 100 93 91 73 90 100 100 95 97 100 100 93 79 99 93 82 54 55 66 38 39 95 30 18 5 15 5 5
100 100 100 100 98 100 100 100 100 65 65 54 65 68 39 10 37 77 93 100 100 87 81 69 89 97 100 99 100 98 71 53 24 18 82 84 93 94 79 48 17 23 5
100 100 100 91 88 85 87 80 75 67 54 60 72 87 43 6 68 79 74 90 88 71 89 80 100 100 100 97 74 66 5 14 5 5 5 18 81 67 70 72 73 66 52
100 100 95 89 79 78 53 14 6 7 8 47 73 100 74 73 83 86 88 99 100 99 87 84 75 82 92 90 88 98 76 84 79 70 54 45 34 52 56 68 81 100 98
87 97 87 95 72 67 94 94 88 73 86 92 84 76 85 97 100 100 100 100 100 100 97 100 100 100 100 100 100 100 100 100 100 94 88 80 71 80 93 93 99 100 100
82 100 83 98 100 100 100 100 99 61 95 100 100 100 100 100 100 100 100 100 100 100 100 100 100 89 98 100 100 100 100 100 100 100 69 99 90 83 100 100 100 100 100
83 86 88 95 100 100 100 100 100 100 100 100 100 100 100 100 99 83 75 83 90 100 100 100 100 100 94 100 100 100 64 88 61 49 100 100 100 100 100 100 100 100 100
17 37 74 84 86 92 98 98 95 93 99 100 100 100 100 99 77 63 79 96 100 99 91 100 91 70 84 100 100 100 98 39 55 5 59 100 100 100 100 100 100 100 100

GFSGL_prec_cloud_090.txt.gz
Cloud_Cover
87 99 100 62 100 100 100 100 100 100 100 100 100 100 100 100 100 100 100 100 100 100 100 100 100 100 100 100 100 100 100 100 100 100 100 100 100 100 100 100 100 100 100
91 100 78 50 100 100 100 100 100 100 100 100 100 100 100 100 100 100 100 100 100 100 100 100 100 100 100 100 100 100 100 100 100 100 100 100 100 100 100 98 25 86 44
100 100 98 86 98 100 100 100 100 100 100 100 100 100 100 100 100 100 100 100 100 100 100 100 100 100 100 100 100 100 100 100 100 100 100 100 69 31 24 11 6 14 78
100 100 100 94 70 87 100 100 100 100 100 100 100 100 100 100 100 100 100 100 100 100 100 100 100 100 100 100 100 100 100 100 100 100 100 86 68 5 25 5 7 11 11
98 100 100 99 100 100 100 100 100 100 100 100 100 100 100 100 100 100 100 100 100 100 100 100 100 100 100 100 100 100 100 100 100 100 100 65 25 22 92 100 100 96 69
100 100 100 100 100 100 100 100 100 100 100 100 100 100 100 100 100 100 100 100 100 100 100 100 100 100 100 100 100 100 94 85 100 100 100 100 100 100 100 100 100 100 100
100 100 100 100 100 100 100 100 100 96 93 100 100 100 100 100 100 100 100 100 100 100 100 100 100 100 100 100 100 100 100 100 100 100 100 100 100 100 100 100 100 100 100
100 100 100 100 100 100 100 100 100 100 100 100 100 100 100 100 99 99 95 100 100 100 100 100 100 100 100 100 100 100 100 100 100 100 100 100 100 100 100 100 100 100 100
100 100 100 100 100 100 100 100 100 100 100 100 100 100 100 100 100 100 100 100 100 100 100 100 100 100 100 100 100 100 100 100 100 100 100 100 100 100 100 100 100 100 100
100 100 100 100 100 100 100 100 100 100 100 100 100 100 100 100 100 100 100 100 100 100 100 100 100 100 100 100 100 100 100 100 100 100 100 100 90 100 99 100 100 100 100
100 100 100 100 100 100 100 100 100 100 100 100 100 100 100 100 100 100 100 100 100 100 100 100 100 100 100 100 100 100 100 100 100 100 100 100 100 100 100 100 100 100 95
100 100 100 100 100 100 100 100 100 100 100 100 100 100 100 100 100 100 100 94 95 99 100 100 100 100 100 98 67 100 100 100 100 100 100 100 100 100 100 84 79 71 73
100 100 100 100 100 100 100 100 100 100 100 100 100 100 100 100 100 100 100 100 100 100 100 100 100 100 100 75 75 98 100 100 100 100 100 100 100 100 100 100 99 93 7
100 100 100 100 100 100 100 100 100 100 100 100 100 100 100 100 100 100 100 100 100 100 100 98 84 87 100 100 100 100 100 100 100 100 100 100 97 77 60 5 6 26 6
100 100 100 100 100 100 100 100 100 100 100 100 100 100 100 100 100 100 99 100 100 100 100 100 100 100 100 100 98 97 94 98 94 99 97 76 17 10 5 8 6 5 5
100 100 100 100 100 100 100 100 100 100 100 100 100 100 100 100 100 99 96 92 53 93 100 100 100 100 100 100 96 95 57 6 5 36 60 6 5 5 13 5 5 5 17
100 100 100 100 100 100 100 100 100 100 100 100 100 100 100 100 100 97 98 77 87 86 100 100 100 100 91 98 40 6 5 5 5 5 6 19 50 61 38 81 5 5 5
100 100 100 100 100 100 100 100 100 100 100 100 100 100 100 100 100 98 82 94 80 94 100 100 99 99 34 5 5 8 19 41 32 18 63 76 97 76 68 6 5 21 5
100 100 100 100 100 100 100 100 100 100 100 100 100 94 96 100 100 100 100 99 100 100 84 67 96 84 71 81 100 99 100 89 90 100 98 84 100 92 72 63 92 26 5
100 100 100 100 100 100 100 100 100 100 100 100 100 100 100 100 100 100 100 100 100 93 79 49 84 99 100 100 100 100 98 90 78 69 98 100 100 100 100 100 100 76 63
100 100 100 100 100 100 100 100 100 100 99 99 100 100 97 49 78 86 92 100 100 100 100 100 100 100 100 100 100 100 93 100 93 96 100 94 100 100 93 100 100 100 72
100 100 100 100 100 100 96 95 86 67 88 82 87 32 72 100 96 96 100 100 100 100 100 100 100 100 100 100 100 100 100 100 100 100 100 100 99 100 100 100 100 100 100
100 100 100 100 100 90 97 100 100 100 100 100 100 100 100 100 100 100 100 100 100 100 100 100 100 100 100 100 100 100 100 100 100 100 100 100 100 100 100 100 100 100 100
100 100 100 100 100 100 100 100 100 80 100 100 100 100 100 100 100 100 100 100 100 100 100 100 100 92 100 100 100 100 100 100 100 100 100 100 100 100 100 100 100 100 100
100 100 100 100 100 100 100 100 100 100 100 100 100 100 100 100 100 100 100 100 100 100 100 100 100 100 100 100 100 100 98 100 98 50 100 100 100 100 100 100 100 100 100
100 100 100 100 100 100 100 100 100 100 100 100 100 100 100 100 100 100 100 100 100 100 100 100 100 100 100 100 98 100 100 100 99 100 93 100 100 100 100 100 100 100 100

GFSGL_prec_cloud_093.txt.gz
Cloud_Cover
100 99 99 100 85 64 86 100 100 100 100 100 100 100 100 100 100 100 100 100 100 100 100 100 100 100 100 98 100 88 99 100 100 99 100 100 100 100 100 100 100 100 100
100 100 100 100 78 95 100 100 100 100 100 100 100 100 100 100 100 100 100 100 100 100 100 100 100 100 100 99 100 100 100 100 100 100 100 100 100 100 100 100 100 100 100
100 100 100 100 82 100 100 100 100 100 100 100 100 100 100 100 100 100 100 100 100 100 100 100 99 100 100 100 100 100 100 100 100 100 100 100 100 100 100 100 100 91 25
100 100 100 100 75 80 100 100 100 100 100 100 100 100 100 100 100 100 100 100 100 100 100 100 91 100 100 100 100 100 100 100 100 100 100 100 100 100 100 93 21 35 5
100 100 100 100 34 100 100 100 100 100 100 100 100 100 100 100 100 100 100 100 100 100 100 100 100 100 100 100 100 100 100 100 100 100 100 100 100 100 59 64 86 92 98
100 100 100 100 88 100 100 100 100 100 100 100 100 100 100 100 100 100 100 100 100 100 100 100 100 100 100 100 100 100 100 100 100 100 100 100 100 100 100 100 100 100 100
100 100 100 100 100 100 100 100 100 100 100 100 100 100 100 100 100 100 100 100 100 100 100 100 100 100 100 100 100 100 100 100 100 100 100 100 100 100 100 100 100 100 100
100 100 100 100 100 100 100 100 100 100 100 100 100 100 100 100 100 100 100 100 100 100 100 100 100 100 100 100 100 100 100 100 100 100 100 100 100 100 100 100 100 100 100
100 100 100 100 100 100 100 100 100 100 100 100 100 100 100 100 100 100 100 100 100 100 100 100 100 100 100 100 100 100 100 100 100 100 100 100 100 100 100 100 96 100 100
100 100 100 100 100 100 100 100 100 100 100 100 100 100 100 100 100 100 100 100 100 100 100 100 100 100 100 100 100 100 100 100 100 100 100 100 80 96 38 100 100 100 100
100 100 100 100 100 100 100 100 100 100 100 100 100 100 100 100 100 100 100 100 100 100 100 100 100 100 100 100 100 100 100 100 100 100 100 99 100 100 100 96 100 100 100
100 100 100 100 100 100 100 100 100 100 100 100 100 100 100 100 100 100 100 100 100 100 100 100 100 100 100 100 86 100 100 100 100 100 100 100 100 100 93 70 96 78 34
100 100 100 100 100 100 100 100 100 100 100 100 100 100 100 100 100 99 100 100 100 100 100 100 100 100 98 100 100 100 100 100 100 100 100 100 94 90 82 84 29 90 39
100 100 100 100 100 100 100 100 100 100 100 100 100 100 100 100 100 100 100 100 100 100 100 99 100 100 100 100 100 97 95 100 100 100 100 98 89 57 39 17 53 82 82
100 100 100 100 100 100 100 100 100 100 100 100 100 100 100 100 100 100 100 100 100 100 100 100 100 100 100 100 100 95 92 97 95 98 98 73 49 5 5 5 67 5 5
100 100 100 100 100 100 100 100 100 100 100 100 100 100 100 100 100 100 100 98 100 100 100 100 100 100 100 100 99 99 71 9 17 5 23 19 23 5 5 5 5 5 5
100 100 100 100 100 100 100 100 100 100 100 100 100 100 100 100 100 100 100 100 100 100 100 100 100 100 91 97 84 28 61 69 13 63 66 85 87 82 71 54 53 48 46
100 100 100 100 100 100 100 100 100 100 100 100 100 100 100 100 100 100 100 100 100 100 100 98 98 100 80 72 69 86 93 100 94 89 100 100 100 100 99 75 85 69 19
100 100 100 100 100 100 100 100 100 100 100 100 100 100 100 100 100 100 100 100 100 100 100 96 100 98 95 100 100 100 100 100 97 100 100 100 100 100 100 100 100 70 16
100 100 100 100 100 100 100 100 100 100 100 100 100 100 100 100 100 100 100 100 100 100 100 100 100 100 100 100 100 100 100 100 100 100 100 100 100 100 100 100 100 100 100
100 100 100 100 100 100 100 100 100 100 100 100 100 100 100 100 100 100 100 100 100 100 100 100 100 100 100 100 100 100 100 100 100 100 100 100 100 100 100 100 100 100 100
100 100 100 100 100 100 100 100 100 100 100 100 100 100 100 100 100 100 100 100 100 100 100 100 100 100 100 100 100 100 100 100 100 100 100 100 100 100 100 100 100 100 100
100 100 100 100 100 100 100 100 100 100 100 100 100 100 100 100 100 100 100 100 100 100 100 100 100 100 100 100 100 100 100 100 100 100 100 100 100 100 100 100 100 100 100
100 100 100 100 100 100 100 100 100 62 100 100 100 100 100 100 100 100 100 100 100 100 100 100 100 100 100 100 100 100 100 100 100 100 100 100 100 100 100 100 100 100 100
100 100 100 100 100 100 100 100 100 100 100 100 100 100 100 100 100 100 100 100 100 100 100 100 100 100 100 100 100 100 78 100 100 100 100 100 100 100 100 100 100 100 100
100 100 100 100 100 100 100 100 100 100 100 100 100 100 100 100 100 100 100 100 100 100 100 100 100 100 100 100 98 100 100 100 100 100 100 100 100 100 100 100 100 100 100

GFSGL_prec_cloud_096.txt.gz
Cloud_Cover
100 100 100 100 100 100 60 97 85 100 80 100 100 100 100 100 100 100 100 100 100 100 100 100 100 100 100 100 100 100 100 100 99 100 98 100 93 99 91 100 100 100 100
100 100 100 100 100 100 100 100 98 100 100 100 100 100 100 100 100 100 100 100 100 100 100 100 100 100 100 100 100 100 100 99 98 100 100 100 99 100 100 100 100 100 100
100 100 100 100 100 100 84 100 100 100 100 100 100 100 100 100 100 100 100 100 100 100 100 100 100 100 100 100 100 100 100 95 99 100 100 100 100 100 100 100 100 100 100
100 100 100 100 100 100 100 73 100 100 100 100 100 100 100 100 100 100 100 100 100 100 100 100 100 100 100 100 100 100 100 100 100 100 100 100 100 100 100 100 100 100 100
100 100 100 100 100 58 82 81 100 100 100 100 100 100 100 100 100 100 100 100 100 100 100 100 100 100 100 100 100 100 100 100 100 100 100 100 100 100 100 100 100 100 100
100 100 100 100 100 100 100 100 100 100 100 100 100 100 100 100 100 100 100 100 100 100 100 100 100 100 100 100 100 100 100 100 100 100 100 100 100 100 100 100 100 100 100
100 100 100 100 100 100 100 100 100 100 100 100 100 100 100 100 100 100 100 100 100 100 100 100 100 100 100 100 100 100 100 100 100 100 100 100 100 100 100 100 100 100 100
100 100 100 100 100 100 100 100 100 100 100 100 100 100 100 100 100 100 100 100 100 100 100 100 100 100 100 100 100 100 100 100 100 100 100 100 100 100 100 100 100 100 100
100 100 100 100 100 100 100 100 100 100 100 100 100 100 100 100 100 100 100 100 100 100 100 100 100 100 100 100 100 100 100 100 100 100 100 100 100 100 100 100 100 100 100
100 100 100 100 100 100 100 100 100 100 100 100 100 100 100 100 100 100 100 100 100 100 100 100 100 100 100 100 100 100 100 100 100 100 100 100 100 100 100 87 100 100 100
100 100 100 100 100 100 100 100 100 100 100 100 100 100 100 100 100 100 100 100 100 100 100 100 100 100 100 100 100 100 100 100 100 100 100 100 100 100 100 100 97 87 80
100 100 100 100 100 100 100 100 100 100 100 100 100 100 100 100 100 100 100 100 100 100 100 100 100 100 100 100 100 100 100 100 100 100 100 100 100 98 29 12 63 45 71
100 100 100 100 100 100 100 100 100 100 100 100 100 100 100 100 100 100 100 100 100 100 100 100 100 100 100 100 100 100 100 100 100 100 100 100 97 99 93 30 54 96 51
100 100 100 100 100 100 100 100 100 100 100 100 100 100 100 100 100 100 100 100 100 100 100 96 85 92 99 98 79 92 99 100 100 100 97 100 100 97 62 54 51 30 16
100 100 100 100 100 100 100 100 100 100 100 100 100 100 100 100 100 100 100 100 100 100 100 100 100 98 100 96 90 100 100 98 94 90 90 43 30 54 39 66 13 5 5
100 100 100 100 100 100 100 100 100 100 100 100 100 100 100 100 100 100 100 100 100 100 100 100 100 100 96 98 100 100 100 98 57 33 5 6 6 5 5 12 25 42 8
100 100 100 100 100 100 100 100 100 100 100 100 100 100 100 100 100 100 100 100 100 100 100 100 100 100 100 100 100 100 86 88 16 7 5 5 5 5 5 5 5 6 21
100 100 100 100 100 100 100 100 100 100 100 100 100 100 100 100 100 100 100 100 100 100 100 100 100 100 100 100 100 100 100 100 99 100 100 100 100 97 79 21 6 30 9
100 100 100 100 100 100 100 100 100 100 100 100 100 100 100 100 100 100 100 100 100 100 100 100 100 100 100 100 100 100 100 100 100 100 78 35 8 38 72 81 32 100 63
100 100 100 100 100 100 100 100 100 100 100 100 100 100 100 100 100 100 100 100 100 100 100 100 100 100 100 100 100 100 100 100 100 100 100 100 100 97 98 96 100 100 62
100 100 100 100 100 100 100 100 100 100 100 100 100 100 100 100 100 100 100 100 100 100 100 100 100 100 100 100 100 100 100 100 100 100 100 99 89 99 97 98 75 75 33
100 100 100 100 100 100 100 100 100 100 100 100 100 100 100 100 100 100 100 100 100 100 100 100 100 100 100 100 100 99 100 94 97 95 85 100 88 100 55 23 93 5 51
99 98 100 100 100 100 98 91 93 100 97 95 100 88 97 100 92 100 86 95 100 73 88 100 100 100 95 100 100 99 42 96 100 92 13 79 17 83 11 6 5 44 82
89 96 100 94 29 77 93 99 94 67 44 100 100 100 100 99 100 96 82 98 95 92 48 97 55 84 54 46 80 100 15 5 35 65 37 83 30 87 7 84 96 92 65
94 99 100 100 100 98 100 100 100 100 100 100 100 100 100 100 100 100 97 85 58 100 98 100 39 56 75 78 93 5 5 5 5 5 24 5 23 57 100 100 96 5 93
94 65 97 100 100 100 100 100 100 100 100 100 100 100 100 100 100 88 94 100 8 27 84 95 100 20 5 100 97 6 5 52 99 6 5 32 98 100 67 24 65 32 70

GFSGL_prec_cloud_099.txt.gz
Cloud_Cover
64 63 100 100 100 100 100 99 24 52 100 100 83 100 100 100 100 100 100 100 100 100 100 100 100 100 100 100 100 100 100 100 100 100 100 100 100 100 100 100 100 100 84
57 100 100 100 100 100 100 100 74 97 100 58 100 100 100 100 100 100 100 100 100 100 100 100 100 100 100 100 100 100 100 100 100 100 100 100 100 100 100 100 100 100 100
100 100 100 100 100 100 100 83 100 100 100 100 100 100 100 100 100 100 100 100 100 100 100 100 100 100 100 100 100 100 100 100 100 100 100 100 100 100 98 100 100 100 100
100 100 100 100 100 100 100 98 100 100 100 100 100 100 100 100 100 100 100 100 100 100 100 100 100 100 100 100 100 100 100 100 100 100 100 100 90 100 100 100 100 100 41
100 100 100 100 100 100 86 44 100 100 100 100 100 100 100 100 100 100 100 100 100 100 100 100 100 100 100 100 100 100 100 100 100 100 100 100 79 100 91 87 99 36 100
100 100 100 100 100 100 100 100 100 100 100 100 100 100 100 100 100 100 100 100 100 100 100 100 100 100 100 100 100 100 100 100 100 100 100 100 100 100 100 100 100 100 100
100 100 100 100 100 100 100 100 100 100 100 100 100 100 100 100 100 100 100 100 100 100 100 100 100 100 100 100 100 100 100 100 100 100 100 100 100 100 100 100 100 100 100
100 100 100 100 100 100 100 100 100 100 100 100 100 100 100 100 100 100 100 100 100 100 100 100 100 100 100 100 100 100 100 100 100 100 100 100 100 100 100 100 100 100 100
100 100 100 100 100 100 100 100 100 100 100 100 100 100 100 100 100 100 100 100 100 100 100 100 100 100 100 100 100 100 100 100 100 100 100 100 100 100 100 100 100 100 100
100 100 100 100 100 100 100 100 100 100 100 100 100 100 100 100 100 100 100 100 100 100 100 100 100 100 100 100 100 100 100 100 100 100 100 100 100 100 100 100 100 100 99
100 100 100 100 100 100 100 100 100 100 100 100 100 100 100 100 100 100 100 100 100 100 100 100 100 100 100 100 100 100 100 100 100 100 100 100 100 100 100 100 100 100 97
100 100 100 100 100 100 100 100 100 100 100 100 100 100 100 100 100 100 100 100 100 100 100 100 100 100 100 100 100 100 100 100 100 100 100 100 100 100 99 84 78 90 56
100 100 100 100 100 100 100 100 100 100 100 100 100 100 100 100 100 100 100 100 100 100 100 100 100 100 100 100 100 100 100 100 100 100 100 100 100 87 100 100 100 100 100
100 100 100 100 100 100 100 100 100 100 100 100 100 100 100 100 100 100 100 100 100 100 100 100 100 100 100 100 100 100 100 100 99 100 100 100 100 100 66 64 85 100 100
100 100 100 100 100 100 100 100 100 100 100 100 100 100 100 100 100 100 100 100 100 100 100 100 100 100 100 100 100 100 100 100 100 100 100 100 100 100 100 100 88 17 8
100 100 100 100 100 100 100 100 100 100 100 100 100 100 100 100 100 100 100 100 100 100 100 100 100 100 100 100 100 100 100 100 100 100 100 100 100 100 100 100 100 100 78
100 100 100 100 100 100 100 100 100 100 100 100 100 100 100 100 100 100 100 100 100 100 100 100 100 100 100 100 100 100 100 100 100 100 100 100 100 100 100 100 100 100 100
100 100 100 100 100 100 100 100 100 100 100 100 100 100 100 100 100 100 100 100 100 100 100 100 100 100 100 100 100 100 100 100 100 100 100 100 100 100 100 100 100 100 100
100 100 100 100 100 100 100 100 100 100 100 100 100 100 100 100 100 100 100 100 100 100 100 100 100 100 100 100 100 100 100 100 100 100 100 100 100 100 100 100 100 100 100
100 100 100 100 100 100 100 100 100 100 100 100 100 100 100 100 100 100 100 100 100 100 100 100 100 100 100 100 100 100 100 100 100 100 100 100 100 100 100 100 100 100 100
81 100 100 100 100 100 100 100 100 100 100 100 100 100 100 100 100 100 100 100 100 100 100 100 100 100 100 100 100 100 100 100 100 100 100 100 100 100 100 100 100 100 100
8 54 49 100 100 100 100 100 100 100 86 100 100 100 100 100 100 100 100 100 100 100 100 100 100 100 100 100 100 100 100 100 100 100 100 100 100 100 100 100 100 100 100
5 24 5 46 98 33 60 72 86 98 78 82 69 75 90 98 99 100 100 100 99 95 100 100 100 100 100 100 100 100 100 100 100 100 100 100 100 100 92 88 54 35 77
5 47 95 40 13 15 96 80 65 40 78 100 100 92 91 97 80 73 98 100 68 43 87 97 95 96 96 100 100 100 100 45 18 5 47 55 38 44 46 91 52 6 85
5 60 88 92 73 92 100 100 90 79 82 85 85 98 100 92 72 48 9 5 12 5 39 76 19 5 6 16 8 5 16 19 35 5 5 13 69 100 99 85 5 5 5
5 10 18 34 76 94 95 99 100 100 98 100 85 100 97 100 100 100 83 27 42 13 71 100 93 70 61 19 82 24 48 50 5 5 19 45 93 87 22 5 5 5 5

GFSGL_prec_cloud_102.txt.gz
Cloud_Cover
100 100 100 100 100 100 100 100 100 100 100 100 100 100 100 100 100 100 100 100 100 100 100 100 100 100 100 100 100 100 100 100 100 100 100 100 100 100 100 100 100 100 100
100 43 91 100 100 100 100 100 100 100 100 100 98 100 100 100 100 100 100 100 100 100 100 100 100 100 100 100 100 100 100 100 100 100 100 100 100 100 100 100 100 100 100
100 94 92 100 100 100 100 100 100 100 100 97 100 100 100 98 85 100 100 100 100 100 100 100 100 100 100 100 100 100 100 100 100 100 100 100 100 100 100 100 100 100 100
100 100 100 100 100 100 100 100 100 96 97 100 96 100 100 100 100 100 100 100 100 100 100 100 100 100 100 100 100 100 100 100 100 100 100 100 100 100 100 100 100 100 100
100 100 100 100 100 100 100 100 100 99 100 90 98 100 100 100 100 100 100 100 100 100 100 100 100 100 100 100 100 100 100 100 100 100 100 100 100 100 100 100 100 100 100
100 100 100 100 100 100 100 100 100 100 100 100 100 100 100 100 100 100 100 100 100 100 100 100 100 100 100 100 100 100 100 100 100 100 100 100 100 100 100 100 100 100 100
100 100 100 100 100 100 100 100 100 100 100 100 100 100 100 100 100 100 100 100 100 100 100 100 100 100 100 100 100 100 100 100 100 100 100 100 100 100 100 100 100 100 100
100 100 100 100 100 100 100 100 100 100 100 100 100 100 100 100 100 100 100 100 100 100 100 100 100 100 100 100 100 100 100 100 100 100 100 100 100 100 100 100 100 100 100
100 100 100 100 100 100 100 100 100 100 100 100 100 100 100 100 100 100 100 100 100 100 100 100 100 100 100 100 100 100 100 100 100 100 100 100 100 100 100 100 100 100 100
100 100 100 100 100 100 100 100 100 100 100 100 100 100 100 100 100 100 100 100 100 100 100 100 100 100 100 100 100 100 100 100 100 100 100 100 100 100 100 100 100 100 100
100 100 100 100 100 100 100 100 100 100 100 100 100 100 100 100 100 100 100 100 100 100 100 100 100 100 100 100 100 100 100 100 100 100 100 100 100 100 100 100 100 100 100
100 100 100 100 100 100 100 100 100 100 100 100 100 100 100 100 100 100 100 100 100 100 100 100 100 100 100 100 100 100 100 100 100 100 100 100 100 100 100 100 100 100 100
75 100 100 100 100 100 100 100 100 100 100 100 100 100 100 100 100 100 100 100 100 100 100 100 100 100 100 100 100 100 100 100 100 100 100 100 100 100 100 100 100 100 100
84 100 100 100 100 100 100 100 100 100 100 100 100 100 100 100 100 100 100 100 100 100 100 100 100 100 100 100 100 100 100 100 100 100 100 100 100 100 100 100 100 100 100
100 100 100 100 100 100 100 100 100 100 100 100 100 100 100 100 100 100 100 100 100 100 100 100 100 100 100 100 100 100 100 100 100 100 100 100 100 100 100 100 100 100 100
100 100 100 100 100 100 100 100 100 100 100 100 100 100 100 100 100 100 100 100 100 100 100 100 100 100 100 100 100 100 100 100 100 100 100 100 100 100 100 100 100 100 100
100 100 100 100 100 100 100 100 100 100 100 100 100 100 100 100 100 100 100 100 100 100 100 100 100 100 100 100 100 100 100 100 100 100 100 100 100 100 100 100 100 100 92
100 100 100 100 100 100 100 100 100 100 100 100 100 100 100 100 100 100 100 100 100 100 100 100 100 100 100 100 100 100 100 100 100 100 100 100 100 100 100 100 100 100 100
100 100 100 100 100 100 100 100 100 100 100 100 100 100 100 100 100 100 100 100 100 100 100 100 100 100 100 100 100 100 100 100 100 100 100 100 100 100 100 100 100 100 100
94 100 100 100 100 100 100 100 100 100 100 100 100 100 100 100 100 100 100 100 100 100 100 100 100 100 100 100 100 100 100 100 100 100 100 100 100 100 100 100 100 100 100
36 38 64 99 100 100 100 100 100 100 100 100 100 100 100 100 100 100 100 100 100 100 100 100 100 100 100 100 100 100 100 100 100 100 100 100 100 98 100 100 100 100 100
11 5 10 81 5 6 94 100 98 98 99 100 97 100 95 97 100 100 100 100 100 100 100 100 100 100 100 100 100 100 100 95 99 100 100 100 100 100 100 100 100 100 100
21 41 30 24 34 70 45 39 76 90 87 90 70 97 99 100 86 86 95 83 99 99 99 98 99 100 100 100 100 100 100 100 100 100 99 97 98 92 100 90 60 79 76
10 58 45 55 69 92 80 76 87 90 100 100 90 83 77 74 94 59 58 76 65 80 67 54 92 68 49 80 99 100 100 90 47 18 54 96 86 99 93 50 9 5 5
31 51 62 65 78 86 100 100 100 100 100 100 100 94 100 100 84 62 52 22 29 64 95 61 34 33 16 40 11 22 71 92 59 33 56 94 96 71 51 83 73 5 14
31 50 58 62 16 35 73 87 96 79 88 100 94 100 100 100 100 99 73 5 15 69 73 28 35 21 5 9 5 27 64 6 5 19 75 65 93 91 7 12 35 5 13

GFSGL_prec_cloud_108.txt.gz
Cloud_Cover
100 100 100 100 100 100 100 100 100 100 100 100 100 100 100 100 100 100 100 100 100 100 100 100 97 100 100 100 75 100 100 100 100 100 100 100 100 100 98 100 96 99 100
100 100 100 100 100 100 100 100 100 100 100 100 100 100 100 100 100 100 100 100 100 100 100 100 100 100 100 100 100 100 100 100 100 100 100 100 100 100 100 100 100 100 100
100 100 100 100 100 100 100 100 100 100 100 100 100 100 100 100 100 100 100 100 100 100 100 100 100 100 100 100 100 100 100 100 100 100 100 100 100 100 100 97 100 100 100
100 100 100 100 100 100 100 100 100 100 100 100 100 100 100 100 100 100 100 100 100 100 100 99 99 100 100 100 100 100 100 100 100 100 100 100 100 100 100 100 100 100 100
100 100 100 100 100 100 100 100 100 100 100 100 100 100 100 100 100 100 100 96 94 98 71 92 97 100 100 100 100 100 100 100 100 100 100 100 100 100 100 100 100 100 100
100 100 100 100 100 100 100 100 100 100 100 100 100 100 100 100 100 100 100 100 100 100 100 100 100 100 100 100 100 100 100 100 100 100 100 100 100 100 100 100 100 100 100
100 100 100 100 100 100 100 100 100 100 100 100 100 100 100 100 100 100 100 100 100 99 100 100 100 100 100 100 100 100 100 100 100 100 100 100 100 100 100 100 100 100 100
100 100 100 100 100 100 100 100 100 100 100 100 100 100 100 100 100 100 100 100 100 100 100 100 100 100 100 100 100 100 100 100 100 100 100 100 100 100 100 100 100 100 100
100 100 100 100 100 100 100 100 100 100 100 100 100 100 100 100 100 100 100 100 100 100 100 100 100 100 100 100 100 100 100 100 100 100 100 100 100 100 100 100 100 100 100
100 100 100 100 100 100 100 100 100 100 100 100 100 100 100 100 100 100 100 100 100 100 100 100 100 100 100 100 100 100 100 100 100 100 100 100 100 100 100 100 100 100 100
100 100 100 100 100 100 100 100 100 100 100 100 100 100 100 100 100 100 100 100 100 100 100 100 100 100 100 100 100 100 100 100 100 100 100 100 100 100 100 100 100 100 100
100 100 100 100 100 100 100 100 100 100 100 100 100 100 100 100 100 100 100 100 100 100 100 100 100 100 100 100 100 100 100 100 100 100 100 100 100 100 100 100 100 100 100
100 100 100 100 100 100 100 100 100 100 100 100 100 100 100 100 100 100 100 100 100 100 100 100 100 100 100 100 100 100 100 100 100 100 100 100 100 100 100 100 100 100 100
100 100 100 100 100 100 100 100 100 100 100 100 87 99 100 100 100 100 100 100 100 100 100 100 100 100 100 100 100 100 100 100 100 100 100 100 100 100 100 100 100 100 100
96 100 100 100 100 100 100 100 100 100 100 100 100 99 96 100 100 100 100 100 100 100 100 100 100 100 100 100 100 100 100 100 100 100 100 100 100 100 100 100 100 100 100
100 56 58 38 48 49 77 100 92 100 100 100 100 99 96 100 100 100 100 100 100 100 100 100 100 100 100 100 100 100 100 100 100 100 100 100 100 100 100 100 100 100 100
79 100 56 5 5 51 66 76 59 6 13 95 97 100 100 100 100 100 100 100 100 100 100 100 100 100 100 100 100 100 100 100 100 100 100 100 100 100 100 100 100 100 100
15 38 6 5 5 11 60 71 68 80 42 61 29 89 98 100 100 100 100 100 100 100 100 100 100 100 100 100 100 100 100 100 100 100 100 100 100 100 100 100 100 100 100
10 76 70 45 5 5 5 5 34 31 62 62 100 100 96 86 87 100 100 100 100 100 100 100 100 100 100 100 100 100 100 100 100 100 100 100 100 100 100 100 100 100 100
54 23 24 66 69 43 27 33 5 18 62 81 97 94 41 99 91 100 83 100 100 100 100 100 100 99 75 100 100 100 100 100 100 100 100 100 100 100 100 100 100 100 96
64 53 48 5 67 86 82 71 63 55 65 69 81 79 33 17 60 89 100 100 100 90 85 98 100 74 67 97 100 100 100 100 100 100 100 100 100 100 100 100 100 100 100
9 54 69 96 69 78 88 73 60 50 46 56 56 49 28 13 22 33 10 76 86 56 62 60 100 100 90 96 91 98 95 100 100 100 100 100 100 99 100 100 100 100 94
5 26 28 62 69 54 68 66 93 100 97 90 57 8 5 96 99 78 84 94 27 10 25 8 9 14 6 37 71 99 83 95 100 100 100 100 100 100 100 99 99 100 100
7 15 5 31 58 74 99 100 96 79 84 90 100 96 58 25 97 100 100 100 99 99 65 86 15 5 5 48 20 5 22 9 59 99 100 99 100 100 100 96 98 100 99
59 90 39 32 86 100 100 100 92 96 100 100 94 90 80 83 98 72 97 86 86 100 59 35 39 5 38 8 6 5 48 64 14 74 90 99 100 100 100 100 84 49 87
49 31 66 79 53 72 99 100 98 100 92 100 100 100 100 99 82 97 90 37 52 88 99 78 75 58 36 34 8 32 5 39 11 5 49 5 5 5 15 57 48 61 38

GFSGL_prec_cloud_111.txt.gz
Cloud_Cover
100 100 100 100 100 100 100 99 100 100 100 100 100 100 98 100 100 100 100 100 100 100 100 100 100 100 100 100 100 100 100 100 100 100 100 100 100 100 100 100 95 69 94
100 100 100 100 100 100 100 100 100 100 100 100 100 98 100 100 100 100 100 100 100 100 100 90 97 100 100 100 100 100 100 100 100 100 100 100 100 100 100 100 100 76 94
100 100 100 100 100 100 100 100 100 100 100 100 100 100 100 100 100 100 100 100 100 100 100 100 100 99 91 80 100 100 100 100 100 100 100 100 100 100 100 100 100 99 100
100 100 100 100 100 100 100 100 100 100 100 100 100 100 100 100 100 100 100 100 100 100 100 85 71 84 100 100 100 100 100 100 100 100 100 100 100 100 100 100 100 100 100
100 100 100 100 100 100 100 100 100 100 100 100 100 100 100 100 100 100 100 100 100 57 35 79 90 79 18 27 88 100 100 100 100 100 100 100 100 100 100 100 100 100 100
100 100 100 100 100 100 100 100 100 100 100 100 100 100 100 100 100 100 100 100 100 100 100 100 92 75 100 100 100 100 100 100 100 100 100 100 100 100 100 100 100 100 100
100 100 100 100 100 100 100 100 100 100 100 100 100 100 100 100 100 100 100 100 100 100 100 100 99 89 66 97 100 100 100 100 100 100 100 100 100 100 100 100 100 100 100
100 100 100 100 100 100 100 100 100 100 100 100 100 100 100 100 100 100 100 100 100 100 100 100 100 100 100 71 100 100 100 100 100 100 100 100 100 100 100 100 100 100 100
100 100 100 100 100 100 100 100 100 100 100 100 100 100 100 100 100 100 100 100 100 100 100 100 100 100 100 96 100 100 100 100 100 100 100 100 100 100 100 100 100 100 100
100 100 100 100 100 100 100 100 100 100 100 100 100 100 100 100 100 100 100 100 100 100 100 100 100 100 100 100 100 100 100 100 100 100 100 100 100 100 100 100 100 100 100
100 100 100 100 100 100 100 100 100 100 100 100 100 100 100 100 100 100 100 100 100 100 100 100 100 100 100 100 100 100 100 100 100 100 100 100 100 100 100 100 100 100 100
100 100 100 100 100 100 100 100 100 100 100 100 100 100 100 100 100 100 100 100 100 100 100 100 100 100 100 100 100 100 100 100 100 100 100 100 100 100 100 100 100 100 100
100 100 100 100 100 100 100 100 100 100 100 100 100 100 100 100 100 100 100 100 100 100 100 100 100 100 100 100 100 100 100 100 100 100 100 100 100 100 100 100 100 100 100
100 100 100 100 100 100 100 100 100 100 100 100 100 100 100 100 100 100 100 100 100 100 100 100 100 100 100 100 100 100 100 100 100 100 100 100 100 100 100 100 100 100 100
100 100 100 100 100 100 100 100 100 100 100 100 100 100 100 100 100 100 100 100 100 100 100 84 100 100 100 100 100 100 100 100 100 100 100 100 100 100 100 100 100 100 100
82 100 100 100 100 100 89 53 100 100 100 100 100 100 100 100 100 100 100 100 94 79 88 100 100 100 100 100 100 100 100 100 100 100 100 100 100 100 100 100 100 100 100
15 74 94 100 100 100 100 100 100 100 100 100 100 100 100 100 100 99 98 96 98 78 96 100 100 100 100 100 100 100 100 100 100 100 100 100 100 100 100 100 100 100 100
90 35 5 6 9 9 5 15 16 11 5 18 56 48 99 100 100 100 80 5 31 68 98 100 99 99 100 100 100 100 100 100 100 100 100 100 100 100 100 100 100 100 100
15 69 96 75 42 5 35 28 17 5 54 8 5 5 5 36 72 69 98 96 100 100 100 100 100 100 92 99 100 100 100 100 100 100 100 100 100 100 100 100 100 100 100
74 10 53 100 100 100 100 92 84 82 82 82 65 58 5 5 12 97 100 100 100 100 100 100 100 96 84 92 100 100 100 100 100 100 100 100 100 100 100 100 100 100 100
100 100 64 100 100 100 100 100 100 100 100 100 100 31 10 37 79 99 100 100 100 100 100 100 100 100 97 43 97 100 99 100 100 100 100 100 100 100 100 100 100 100 100
9 65 93 100 100 100 96 100 100 100 100 100 100 91 5 84 100 100 98 100 100 100 100 100 100 98 75 42 37 41 35 99 100 100 100 100 100 100 100 100 100 100 100
5 10 55 57 64 37 96 100 100 100 100 100 100 100 100 100 100 100 100 100 100 83 62 100 100 89 44 65 47 6 5 7 93 100 100 97 99 100 98 97 100 100 100
5 5 9 66 64 56 26 83 100 93 89 100 100 100 100 100 100 100 100 100 100 100 78 95 88 78 62 88 100 66 5 52 69 96 98 100 96 81 88 97 99 96 99
5 7 64 79 100 92 61 50 92 100 100 100 100 100 100 100 100 100 100 98 67 100 100 66 95 57 21 8 5 5 5 5 6 71 100 99 75 68 46 63 79 67 54
30 58 44 69 92 81 91 100 100 100 100 100 100 100 100 100 100 100 100 96 68 88 91 100 99 97 75 63 63 6 5 5 7 5 87 100 100 98 100 95 78 100 94

GFSGL_prec_cloud_114.txt.gz
Cloud_Cover
100 100 100 100 46 97 51 100 100 100 34 100 100 100 100 100 100 100 100 100 100 100 100 100 100 100 100 100 100 100 100 100 100 100 94 100 100 100 100 100 100 100 100
100 100 100 100 100 66 99 100 100 45 100 100 100 100 100 100 100 100 100 100 100 100 100 100 100 100 100 100 86 100 100 99 100 100 100 100 94 93 100 100 100 100 100
100 100 100 100 100 100 100 100 100 100 100 100 100 100 100 100 100 100 100 100 100 100 100 100 100 100 60 65 7 54 100 100 100 100 100 100 100 98 100 100 100 100 100
100 100 100 100 100 100 100 100 100 100 100 100 100 100 100 100 100 100 100 100 100 100 100 100 100 72 97 98 90 63 78 100 100 100 100 100 100 100 100 100 100 100 100
100 100 100 100 100 100 100 100 100 100 100 100 100 100 100 100 100 100 100 100 100 100 100 100 100 100 100 90 97 87 100 100 100 100 100 100 100 100 100 100 100 100 100
100 100 100 100 100 100 100 100 100 100 100 100 100 100 100 100 100 100 100 100 100 100 100 100 100 100 100 69 54 98 100 100 100 100 100 100 100 100 100 100 100 100 100
100 100 100 100 100 100 100 100 100 100 100 100 100 100 100 100 100 100 100 100 100 100 100 100 100 100 100 98 98 99 100 100 100 100 100 100 100 100 100 100 100 100 100
100 100 100 100 100 100 100 100 100 100 100 100 100 100 100 100 100 100 100 100 100 100 100 100 100 100 100 99 100 100 100 100 100 100 100 100 100 100 100 100 100 100 100
100 100 100 100 100 100 100 100 100 100 100 100 100 100 100 100 100 100 100 100 100 100 100 100 100 100 100 100 100 100 100 100 100 98 100 100 100 100 100 100 100 100 100
100 100 100 100 100 100 100 100 100 100 100 100 100 100 100 100 100 100 100 100 100 100 100 100 100 100 100 100 100 100 100 100 100 100 100 100 100 100 100 100 100 100 100
100 100 100 100 100 100 100 100 100 100 100 100 100 100 100 100 100 100 100 100 100 100 100 100 100 100 100 100 100 100 100 100 100 100 100 100 100 100 100 100 100 100 100
100 100 100 100 100 100 100 100 100 100 100 99 100 100 100 100 100 100 100 100 100 100 100 100 100 100 100 100 100 100 100 100 100 100 100 100 100 100 100 100 100 100 100
100 100 100 100 100 100 100 100 100 100 100 100 100 100 100 100 100 100 100 100 99 100 100 100 100 100 100 100 100 100 100 100 100 100 100 100 100 100 100 100 100 100 100
100 100 100 100 100 100 100 100 100 100 100 100 100 100 100 100 100 100 100 100 100 100 100 100 100 100 100 100 100 100 100 100 100 100 100 100 100 100 100 100 100 100 100
99 100 100 100 100 100 100 100 100 100 100 100 100 100 100 100 100 100 100 100 100 100 100 100 100 100 100 100 100 100 100 100 100 100 100 100 100 100 100 100 100 100 100
100 100 100 100 100 100 100 100 100 100 100 100 100 100 100 100 100 100 100 100 100 100 100 100 100 100 100 100 100 100 100 100 100 100 100 100 100 100 100 100 100 100 100
46 100 99 100 97 100 100 100 100 100 100 100 100 100 100 100 100 100 100 100 100 100 100 100 100 100 100 100 100 100 100 100 100 100 100 100 100 100 100 100 100 100 100
42 32 57 96 75 81 82 92 94 100 100 100 100 100 100 100 100 100 100 100 100 100 100 100 100 100 97 100 100 100 100 100 100 100 100 100 100 100 100 100 100 100 100
14 50 100 100 100 100 100 98 86 82 75 83 79 58 39 76 94 100 100 91 100 100 100 100 100 100 100 100 100 100 100 100 100 100 100 100 100 100 100 100 100 100 100
96 29 47 93 95 98 98 99 100 100 100 100 100 95 49 76 90 100 100 100 100 100 100 100 100 100 100 100 100 100 100 100 100 100 100 100 100 100 100 100 100 100 100
85 98 23 100 100 100 100 100 100 100 100 100 100 89 15 100 100 100 100 100 100 100 100 100 100 100 100 100 100 100 100 100 100 100 100 100 100 100 100 100 100 100 100
59 67 71 76 98 100 100 100 100 100 100 100 100 100 79 100 100 100 100 100 100 100 100 100 100 100 100 100 100 100 100 100 100 100 100 100 100 100 100 100 100 100 100
90 100 90 94 99 89 100 100 100 100 100 100 100 100 100 100 100 100 100 100 100 100 100 100 100 100 100 100 100 100 100 100 100 100 100 100 100 100 100 100 96 100 100
100 100 100 100 100 100 100 100 100 100 100 100 100 100 100 100 100 100 100 100 100 100 100 100 100 99 100 100 100 100 100 99 100 100 100 100 100 90 100 100 100 100 90
100 100 100 100 100 100 100 100 100 100 100 100 100 100 100 100 100 100 100 100 100 100 100 100 100 100 100 100 93 82 20 6 8 58 100 100 100 100 96 100 100 100 93
100 100 100 100 100 100 100 100 100 100 100 100 100 100 100 100 100 100 100 100 100 100 100 100 100 100 100 100 100 48 5 5 5 5 92 100 100 100 100 100 80 100 100

GFSGL_prec_cloud_117.txt.gz
Cloud_Cover
100 100 100 100 100 100 100 0 0 0 0 34 67 50 100 100 100 100 100 100 100 100 100 100 100 100 100 100 100 100 64 45 87 24 60 90 45 51 93 100 100 97 100
100 100 100 100 100 100 96 91 65 11 9 99 96 57 64 100 100 100 100 100 100 100 100 100 100 100 100 100 100 100 100 100 100 100 33 100 97 6 100 100 100 100 100
100 100 100 100 100 100 100 100 100 85 100 93 100 98 99 100 100 100 100 100 100 100 100 100 100 100 100 100 100 100 54 77 100 99 43 96 100 100 92 100 100 100 100
100 100 100 100 100 100 100 100 100 100 100 100 100 100 100 100 100 100 100 100 100 100 100 100 100 100 100 100 100 91 56 80 36 99 100 68 73 100 98 93 100 100 100
100 100 100 100 100 100 100 100 100 100 100 100 100 100 100 100 100 100 100 100 100 100 100 100 100 100 100 100 100 77 68 97 100 100 99 99 100 100 100 100 100 100 100
100 100 100 100 100 100 100 100 100 100 100 100 100 100 100 100 100 100 100 100 100 100 100 100 100 100 100 100 100 90 100 100 100 100 100 100 100 100 100 100 100 100 100
100 100 100 100 100 100 100 100 100 100 100 100 100 100 100 100 100 100 100 100 100 100 100 100 100 100 100 100 62 100 100 100 100 100 100 100 100 100 100 100 100 100 100
100 100 100 100 100 100 100 100 100 100 100 100 100 100 100 100 100 100 100 100 100 100 100 100 100 100 100 96 100 100 100 100 100 100 100 100 100 100 100 100 100 100 100
100 100 100 100 100 100 100 100 100 100 100 100 100 100 100 100 100 100 100 100 100 100 100 100 100 100 100 100 100 100 100 100 100 100 100 100 100 100 98 96 100 100 100
100 100 100 100 100 100 100 100 100 100 100 100 100 100 100 100 100 100 100 100 100 100 100 100 100 100 100 100 100 100 100 100 100 95 100 100 100 100 100 100 100 100 100
100 100 100 100 100 100 100 100 100 100 100 100 100 100 100 100 100 100 100 100 100 100 100 100 100 100 100 100 100 100 100 100 100 100 100 100 100 100 100 100 100 100 100
100 100 100 100 100 100 100 100 100 100 100 100 100 100 100 100 100 100 100 100 100 100 100 100 100 100 100 100 100 100 100 100 100 100 100 100 100 100 100 100 100 100 100
100 100 100 100 100 100 100 100 100 100 100 100 100 100 100 100 100 100 100 100 100 100 100 100 100 100 100 100 100 100 100 100 100 100 100 100 100 100 100 100 100 100 100
100 100 100 100 100 100 100 100 100 100 100 100 100 100 100 100 100 100 100 100 100 100 100 100 100 100 100 100 100 100 100 100 91 95 100 100 100 100 100 100 100 100 100
100 99 100 100 100 100 100 100 100 100 100 100 100 100 100 100 100 100 100 100 100 100 100 100 100 100 99 100 100 100 100 100 100 100 100 100 100 96 100 100 100 100 100
97 100 100 100 100 100 100 100 100 100 100 100 100 100 100 100 100 100 100 100 100 100 100 100 100 100 100 100 100 100 100 100 100 100 100 100 100 100 100 100 100 100 100
82 68 100 100 100 100 100 100 100 100 100 100 100 100 100 100 100 100 100 100 100 100 100 100 100 100 100 100 100 100 100 100 100 100 100 100 100 100 100 100 100 100 100
51 78 97 100 100 100 100 100 100 100 100 100 100 100 100 100 100 100 100 100 100 100 100 100 100 100 100 100 100 100 100 100 100 100 100 100 100 100 100 100 100 100 100
74 44 100 100 100 99 100 100 100 100 100 100 100 96 91 100 100 100 100 100 100 100 100 100 100 100 100 100 100 100 100 100 100 100 100 100 100 100 100 100 100 98 100
100 28 90 100 100 100 100 100 100 100 100 100 100 100 65 95 100 100 100 100 100 100 100 100 100 100 100 100 100 100 100 100 100 100 100 100 100 100 100 100 100 100 100
100 100 87 87 90 100 100 100 100 100 100 100 100 100 55 100 100 100 100 100 100 100 100 100 100 100 100 100 100 100 100 100 100 100 100 100 100 100 100 100 100 97 53
100 100 89 94 100 100 100 100 100 100 100 100 100 100 86 100 100 100 100 100 100 100 100 100 100 100 100 100 100 100 100 100 100 100 100 100 100 100 100 100 100 100 66
100 100 100 100 100 100 100 100 100 100 100 100 100 100 100 100 100 100 100 100 100 100 100 100 100 100 100 100 100 100 100 100 100 100 100 100 100 98 100 100 100 100 100
100 100 100 100 100 100 100 100 100 100 100 100 100 100 100 100 100 100 100 100 100 100 100 100 100 100 100 100 100 100 100 100 100 100 100 100 100 100 100 100 100 99 98
100 100 100 100 100 100 100 100 100 100 100 100 100 100 100 100 100 100 100 100 100 100 100 100 100 100 100 100 100 100 93 79 7 6 100 100 100 100 60 100 90 100 92
100 100 100 100 100 100 100 100 100 100 100 100 100 100 100 100 100 100 100 100 100 100 100 100 100 100 100 100 100 46 22 90 46 6 100 100 100 100 100 100 48 100 100

GFSGL_prec_cloud_120.txt.gz
Cloud_Cover
100 100 100 100 100 100 100 100 98 97 6 0 2 100 100 100 100 100 100 100 100 100 100 100 100 92 100 63 99 100 100 100 100 100 100 60 10 22 3 10 56 90 100
100 100 100 100 100 100 100 100 100 99 40 96 22 100 100 100 100 100 100 100 100 100 100 100 100 100 100 99 98 100 100 100 100 100 99 76 88 90 5 12 50 99 79
100 100 100 100 100 100 100 100 100 100 100 100 100 100 100 100 100 100 100 100 100 100 100 100 100 100 100 100 87 100 100 100 100 100 100 95 88 32 63 87 98 100 100
100 100 100 100 100 100 100 100 100 100 100 100 100 100 100 100 100 100 100 100 100 100 100 100 100 100 100 100 100 100 100 100 100 100 100 100 30 78 100 100 96 100 98
100 100 100 100 100 100 100 100 100 100 100 100 100 100 100 100 100 100 100 100 100 100 100 100 100 100 100 100 100 100 100 100 100 100 100 100 100 94 82 100 100 100 100
100 100 100 100 100 100 100 100 100 100 100 100 100 100 100 100 100 100 100 100 100 100 100 100 100 100 100 100 100 100 100 100 100 100 100 100 100 100 100 76 100 85 100
100 100 100 100 100 100 100 100 100 100 100 100 100 100 100 100 100 100 100 100 100 100 100 100 100 100 100 100 100 100 100 100 100 100 100 100 100 100 100 100 100 100 100
100 100 100 100 100 100 100 100 100 100 100 100 100 100 100 100 100 100 100 100 100 100 100 100 100 100 100 100 100 100 100 100 100 100 100 100 100 100 100 100 100 100 100
100 100 100 100 100 100 100 100 100 100 100 100 100 100 100 100 100 100 100 100 100 100 100 100 100 100 100 100 100 100 100 100 100 100 100 100 100 100 100 100 100 100 100
100 100 100 100 100 100 100 100 100 100 100 100 100 100 100 100 100 100 100 100 100 100 100 100 100 100 100 100 100 100 100 100 100 100 100 100 100 100 100 100 100 100 100
100 100 100 100 100 100 100 100 100 100 100 100 100 100 100 100 100 100 100 100 100 100 100 100 100 100 100 100 100 100 100 100 100 100 100 100 100 100 100 100 100 100 100
100 100 100 100 100 100 100 100 100 100 100 100 100 100 100 100 100 100 100 100 100 100 100 100 100 100 100 100 100 100 100 100 100 100 100 100 100 100 100 100 100 100 100
100 100 100 100 100 100 100 100 100 100 100 100 100 100 100 100 100 100 100 100 100 100 100 100 100 100 100 100 100 100 100 100 100 100 100 100 100 100 100 100 100 100 100
100 100 100 100 100 100 100 100 100 100 100 100 100 100 100 100 100 100 100 100 100 100 100 100 100 100 100 100 100 100 100 100 100 100 100 100 84 77 88 92 99 100 100
100 100 100 100 99 100 100 100 100 100 100 100 100 100 100 100 100 100 100 100 100 100 100 100 100 100 100 100 100 100 100 100 100 100 100 94 86 76 98 76 99 76 94
15 100 100 100 100 99 100 100 100 100 100 100 100 100 100 100 100 100 100 100 100 100 100 100 100 100 100 100 100 100 100 100 100 100 100 100 100 76 100 99 68 77 100
5 67 87 100 76 100 99 75 47 92 100 100 100 100 100 100 100 100 100 100 100 100 100 100 100 100 100 100 100 100 100 100 100 100 100 100 100 100 92 77 80 74 85
5 5 48 46 15 76 97 94 66 8 31 98 100 98 100 100 100 100 100 100 100 100 100 100 100 100 100 100 100 100 100 100 100 98 83 91 96 100 98 94 92 95 96
10 2 10 58 5 5 10 5 6 42 40 16 23 26 10 34 100 100 100 100 100 100 100 100 100 100 89 91 100 100 100 98 81 99 97 84 83 100 96 100 100 100 100
74 14 5 12 8 5 5 5 5 5 8 38 26 79 5 6 5 5 84 9 15 75 25 100 100 100 71 74 98 100 99 93 72 81 69 86 89 79 92 84 79 98 100
35 14 5 5 20 5 75 82 93 37 22 7 7 5 5 58 98 88 79 9 66 100 90 6 76 100 82 59 87 31 100 93 30 52 84 100 100 100 99 100 100 100 100
62 22 56 94 92 40 88 100 80 100 97 100 100 100 90 97 41 62 98 71 73 51 100 100 97 38 41 22 100 100 6 61 93 91 82 100 100 100 100 85 100 100 94
68 75 33 83 91 52 99 100 100 96 99 100 100 100 100 100 100 100 100 100 86 48 30 99 73 100 23 5 47 100 9 20 35 87 100 100 100 97 99 100 32 95 62
63 72 90 99 98 100 100 99 100 100 100 100 100 100 100 100 100 100 100 100 100 100 88 98 95 100 31 18 5 5 5 5 5 5 92 100 36 70 100 100 86 90 50
100 100 97 100 100 100 100 99 96 100 100 100 100 98 100 100 100 100 100 85 100 100 96 82 100 96 64 49 96 74 27 5 9 6 69 97 100 100 76 19 100 74 5
96 91 100 100 100 98 82 58 99 98 96 100 100 100 100 97 88 100 100 64 7 5 8 98 100 98 92 95 100 100 29 5 5 5 24 69 36 36 100 42 87 100 41

GFSGL_prec_cloud_123.txt.gz
Cloud_Cover
100 100 100 100 100 100 100 100 100 100 100 63 100 97 25 98 95 2 4 100 100 100 100 100 100 100 100 100 100 26 100 56 42 100 100 100 100 100 85 54 65 75 90
100 100 100 100 100 100 100 100 100 100 100 100 100 100 76 61 23 3 3 100 100 100 100 100 100 100 100 100 100 34 100 74 96 100 100 100 100 100 98 84 55 54 72
100 100 100 100 100 100 100 100 100 100 100 100 100 100 100 100 100 100 97 100 100 100 100 100 91 100 100 100 100 87 100 100 100 100 100 100 100 100 100 75 68 69 60
100 100 100 100 100 100 100 100 100 100 100 100 100 100 100 100 100 100 100 100 99 99 92 100 100 100 100 100 100 89 100 100 100 100 100 100 100 100 100 100 100 100 96
100 100 100 100 100 100 100 100 100 100 100 100 100 100 100 100 100 100 100 100 100 100 100 100 100 100 100 100 100 100 100 100 100 100 100 100 100 100 99 100 100 100 100
100 100 100 100 100 100 100 100 100 100 100 100 100 100 100 100 100 100 100 100 100 100 100 100 100 100 100 100 100 100 100 100 100 93 100 100 100 100 100 100 100 100 100
100 100 100 100 100 100 100 100 100 100 100 100 100 100 100 100 100 100 100 100 100 100 100 100 100 100 100 100 100 100 100 100 100 100 100 100 100 100 100 100 100 100 100
100 100 100 100 100 100 100 100 100 100 100 100 100 100 100 100 100 100 100 100 100 100 100 100 100 100 100 100 100 100 100 100 100 100 100 100 100 100 100 100 100 100 100
100 100 100 100 100 100 100 100 100 100 100 100 100 100 100 100 100 100 100 100 100 100 100 100 100 100 100 100 100 100 100 100 100 100 100 100 100 100 100 100 100 100 100
100 100 100 100 100 100 100 100 100 100 100 100 100 100 100 100 100 100 100 100 100 100 100 100 100 100 100 100 100 100 100 100 100 100 100 100 100 100 100 100 100 100 100
99 100 100 100 100 100 100 100 100 100 100 100 100 100 100 100 100 100 100 100 100 100 100 100 100 100 100 100 100 100 100 100 100 100 100 100 100 100 100 100 100 100 100
100 90 100 100 100 100 100 100 100 100 100 100 100 100 100 100 100 100 100 100 100 100 100 100 100 100 100 100 100 100 100 100 100 100 100 99 100 100 100 100 100 100 100
59 100 100 100 100 100 100 100 100 100 100 100 100 100 100 100 100 100 100 100 100 100 100 100 100 100 100 100 100 100 100 100 100 100 100 100 100 100 100 100 100 100 100
74 84 98 100 100 100 100 100 100 100 100 100 100 100 100 100 100 100 100 100 100 100 100 100 100 100 100 100 100 100 100 100 100 100 100 100 100 100 100 100 100 100 96
95 59 93 98 100 91 100 100 98 100 100 100 100 100 100 100 100 100 100 100 100 100 100 100 100 100 100 100 100 100 100 100 100 100 100 100 100 100 100 100 100 99 92
100 100 29 57 100 98 18 100 100 97 100 100 100 100 100 100 100 100 100 100 100 100 100 100 100 100 100 100 100 100 100 100 100 100 100 100 100 100 100 100 98 75 99
16 78 5 5 5 8 65 95 100 100 42 100 77 55 100 100 100 100 100 100 100 93 98 100 100 98 100 100 100 100 100 100 100 100 100 100 100 100 100 100 100 76 82
6 5 5 5 5 5 5 5 5 5 24 49 5 5 59 100 100 100 65 23 40 83 100 100 100 94 96 100 100 100 100 100 100 100 100 100 100 100 90 82 70 86 92
60 5 5 5 5 5 5 5 5 5 5 22 27 5 5 40 11 74 7 5 65 70 24 77 100 100 100 94 99 100 100 100 98 73 82 100 100 100 100 100 94 83 100
5 14 9 5 5 5 5 5 5 5 5 5 5 6 5 5 5 21 62 58 63 67 44 5 79 64 7 70 100 98 98 86 100 100 100 100 100 100 100 97 28 65 36
5 5 80 94 6 5 5 5 5 5 6 5 5 5 5 45 63 57 83 77 62 71 63 57 68 55 30 12 100 11 5 5 38 100 100 100 100 99 100 99 100 6 96
5 5 5 60 33 5 6 97 12 86 99 85 32 20 23 11 53 53 60 90 55 52 68 16 40 32 5 40 74 24 9 53 61 93 99 98 100 97 100 87 84 100 78
58 5 5 5 16 23 5 5 29 24 78 76 61 73 98 94 100 62 55 67 40 5 29 58 13 61 5 5 7 7 12 42 69 71 100 100 100 100 100 99 83 30 70
5 9 5 21 54 13 52 35 12 35 7 66 100 94 84 66 61 37 97 100 100 72 5 9 20 64 5 5 5 5 5 10 33 39 88 100 100 99 100 100 85 46 14
63 51 50 64 73 81 11 25 64 55 39 67 91 79 100 93 62 68 96 89 100 100 100 100 48 22 8 5 55 16 27 82 13 53 23 100 100 97 100 83 99 72 5
21 5 34 56 58 69 85 35 75 79 83 100 98 81 84 99 98 84 31 25 99 90 100 100 100 51 5 48 5 6 5 8 5 5 20 48 75 30 77 95 99 95 87